<?xml version="1.0" encoding="UTF-8" standalone="no" ?>
<gpx xmlns="http://www.topografix.com/GPX/1/1" xmlns:xsi="http://www.w3.org/2001/XMLSchema-instance" xsi:schemaLocation="http://www.topografix.com/GPX/1/1 http://www.topografix.com/GPX/1/1/gpx.xsd" version="1.1" creator="VisuGPX - https://www.visugpx.com">
  <metadata>
    <name>Etangs FONTARGENTE - refuge RULHE - RIEUTORT</name>
    <desc><![CDATA[Belle balade de remise en jambe après une trop longue période sans montagne pour cause de météo.
Quelques névés pentus à traverser entre les étangs et le refuge, sur le chemin des contrebandiers.
Nous nous sommes sécurisés avec le piolet pour assurer ces passages, mais la neige marquait bien sous les chaussures.]]></desc>
  </metadata>
  <trk>
    <name><![CDATA[20180610190522-hSWtA]]></name>
    <trkseg>
      <trkpt lat="42.67276" lon="1.70865">
        <ele>1559</ele>
        <time>2018-06-08T06:44:18Z</time>
      </trkpt>
      <trkpt lat="42.67265" lon="1.70865">
        <ele>1557</ele>
        <time>2018-06-08T06:45:26Z</time>
      </trkpt>
      <trkpt lat="42.67255" lon="1.70861">
        <ele>1554</ele>
        <time>2018-06-08T06:45:39Z</time>
      </trkpt>
      <trkpt lat="42.67246" lon="1.70857">
        <ele>1546</ele>
        <time>2018-06-08T06:45:49Z</time>
      </trkpt>
      <trkpt lat="42.67237" lon="1.70851">
        <ele>1544</ele>
        <time>2018-06-08T06:46:19Z</time>
      </trkpt>
      <trkpt lat="42.67237" lon="1.70841">
        <ele>1542</ele>
        <time>2018-06-08T06:46:38Z</time>
      </trkpt>
      <trkpt lat="42.67225" lon="1.70851">
        <ele>1545</ele>
        <time>2018-06-08T06:46:52Z</time>
      </trkpt>
      <trkpt lat="42.67213" lon="1.70856">
        <ele>1547</ele>
        <time>2018-06-08T06:47:05Z</time>
      </trkpt>
      <trkpt lat="42.67198" lon="1.70861">
        <ele>1547</ele>
        <time>2018-06-08T06:47:17Z</time>
      </trkpt>
      <trkpt lat="42.67184" lon="1.70867">
        <ele>1548</ele>
        <time>2018-06-08T06:47:28Z</time>
      </trkpt>
      <trkpt lat="42.67167" lon="1.70873">
        <ele>1549</ele>
        <time>2018-06-08T06:47:42Z</time>
      </trkpt>
      <trkpt lat="42.6715" lon="1.70881">
        <ele>1545</ele>
        <time>2018-06-08T06:47:56Z</time>
      </trkpt>
      <trkpt lat="42.67138" lon="1.70886">
        <ele>1545</ele>
        <time>2018-06-08T06:48:09Z</time>
      </trkpt>
      <trkpt lat="42.67125" lon="1.70892">
        <ele>1545</ele>
        <time>2018-06-08T06:48:20Z</time>
      </trkpt>
      <trkpt lat="42.67112" lon="1.70901">
        <ele>1545</ele>
        <time>2018-06-08T06:48:33Z</time>
      </trkpt>
      <trkpt lat="42.671" lon="1.70908">
        <ele>1547</ele>
        <time>2018-06-08T06:48:44Z</time>
      </trkpt>
      <trkpt lat="42.67086" lon="1.70915">
        <ele>1551</ele>
        <time>2018-06-08T06:48:58Z</time>
      </trkpt>
      <trkpt lat="42.67074" lon="1.70922">
        <ele>1559</ele>
        <time>2018-06-08T06:49:08Z</time>
      </trkpt>
      <trkpt lat="42.67056" lon="1.7093">
        <ele>1566</ele>
        <time>2018-06-08T06:49:21Z</time>
      </trkpt>
      <trkpt lat="42.67043" lon="1.70937">
        <ele>1568</ele>
        <time>2018-06-08T06:49:33Z</time>
      </trkpt>
      <trkpt lat="42.67031" lon="1.70939">
        <ele>1567</ele>
        <time>2018-06-08T06:49:42Z</time>
      </trkpt>
      <trkpt lat="42.6702" lon="1.70943">
        <ele>1567</ele>
        <time>2018-06-08T06:49:50Z</time>
      </trkpt>
      <trkpt lat="42.67009" lon="1.70944">
        <ele>1566</ele>
        <time>2018-06-08T06:49:59Z</time>
      </trkpt>
      <trkpt lat="42.66999" lon="1.70941">
        <ele>1563</ele>
        <time>2018-06-08T06:50:08Z</time>
      </trkpt>
      <trkpt lat="42.66989" lon="1.70941">
        <ele>1564</ele>
        <time>2018-06-08T06:50:16Z</time>
      </trkpt>
      <trkpt lat="42.66979" lon="1.70938">
        <ele>1565</ele>
        <time>2018-06-08T06:50:28Z</time>
      </trkpt>
      <trkpt lat="42.66969" lon="1.70936">
        <ele>1566</ele>
        <time>2018-06-08T06:50:37Z</time>
      </trkpt>
      <trkpt lat="42.66957" lon="1.70933">
        <ele>1567</ele>
        <time>2018-06-08T06:50:47Z</time>
      </trkpt>
      <trkpt lat="42.66945" lon="1.7093">
        <ele>1565</ele>
        <time>2018-06-08T06:50:57Z</time>
      </trkpt>
      <trkpt lat="42.66934" lon="1.70929">
        <ele>1563</ele>
        <time>2018-06-08T06:51:06Z</time>
      </trkpt>
      <trkpt lat="42.66921" lon="1.70934">
        <ele>1562</ele>
        <time>2018-06-08T06:51:17Z</time>
      </trkpt>
      <trkpt lat="42.66907" lon="1.70937">
        <ele>1568</ele>
        <time>2018-06-08T06:51:29Z</time>
      </trkpt>
      <trkpt lat="42.66896" lon="1.70939">
        <ele>1572</ele>
        <time>2018-06-08T06:51:40Z</time>
      </trkpt>
      <trkpt lat="42.66883" lon="1.70942">
        <ele>1575</ele>
        <time>2018-06-08T06:51:50Z</time>
      </trkpt>
      <trkpt lat="42.66868" lon="1.70937">
        <ele>1575</ele>
        <time>2018-06-08T06:52:01Z</time>
      </trkpt>
      <trkpt lat="42.66856" lon="1.70934">
        <ele>1574</ele>
        <time>2018-06-08T06:52:10Z</time>
      </trkpt>
      <trkpt lat="42.66845" lon="1.70926">
        <ele>1569</ele>
        <time>2018-06-08T06:52:18Z</time>
      </trkpt>
      <trkpt lat="42.66833" lon="1.70921">
        <ele>1564</ele>
        <time>2018-06-08T06:52:27Z</time>
      </trkpt>
      <trkpt lat="42.6682" lon="1.70919">
        <ele>1569</ele>
        <time>2018-06-08T06:52:38Z</time>
      </trkpt>
      <trkpt lat="42.66808" lon="1.70917">
        <ele>1551</ele>
        <time>2018-06-08T06:52:48Z</time>
      </trkpt>
      <trkpt lat="42.66795" lon="1.70919">
        <ele>1575</ele>
        <time>2018-06-08T06:53:00Z</time>
      </trkpt>
      <trkpt lat="42.66781" lon="1.70916">
        <ele>1551</ele>
        <time>2018-06-08T06:53:12Z</time>
      </trkpt>
      <trkpt lat="42.66768" lon="1.70912">
        <ele>1553</ele>
        <time>2018-06-08T06:53:25Z</time>
      </trkpt>
      <trkpt lat="42.66758" lon="1.7091">
        <ele>1555</ele>
        <time>2018-06-08T06:53:35Z</time>
      </trkpt>
      <trkpt lat="42.66747" lon="1.70911">
        <ele>1559</ele>
        <time>2018-06-08T06:53:48Z</time>
      </trkpt>
      <trkpt lat="42.6674" lon="1.70922">
        <ele>1570</ele>
        <time>2018-06-08T06:54:00Z</time>
      </trkpt>
      <trkpt lat="42.66732" lon="1.70932">
        <ele>1577</ele>
        <time>2018-06-08T06:54:12Z</time>
      </trkpt>
      <trkpt lat="42.6672" lon="1.70938">
        <ele>1581</ele>
        <time>2018-06-08T06:54:24Z</time>
      </trkpt>
      <trkpt lat="42.66706" lon="1.70938">
        <ele>1582</ele>
        <time>2018-06-08T06:54:34Z</time>
      </trkpt>
      <trkpt lat="42.66694" lon="1.70933">
        <ele>1581</ele>
        <time>2018-06-08T06:54:44Z</time>
      </trkpt>
      <trkpt lat="42.66683" lon="1.70929">
        <ele>1579</ele>
        <time>2018-06-08T06:54:55Z</time>
      </trkpt>
      <trkpt lat="42.66672" lon="1.70921">
        <ele>1574</ele>
        <time>2018-06-08T06:55:06Z</time>
      </trkpt>
      <trkpt lat="42.66662" lon="1.70915">
        <ele>1571</ele>
        <time>2018-06-08T06:55:16Z</time>
      </trkpt>
      <trkpt lat="42.66654" lon="1.70908">
        <ele>1571</ele>
        <time>2018-06-08T06:55:28Z</time>
      </trkpt>
      <trkpt lat="42.66641" lon="1.70903">
        <ele>1573</ele>
        <time>2018-06-08T06:55:46Z</time>
      </trkpt>
      <trkpt lat="42.66631" lon="1.70897">
        <ele>1574</ele>
        <time>2018-06-08T06:55:55Z</time>
      </trkpt>
      <trkpt lat="42.66621" lon="1.7089">
        <ele>1575</ele>
        <time>2018-06-08T06:56:06Z</time>
      </trkpt>
      <trkpt lat="42.66612" lon="1.70884">
        <ele>1576</ele>
        <time>2018-06-08T06:56:16Z</time>
      </trkpt>
      <trkpt lat="42.66605" lon="1.70875">
        <ele>1576</ele>
        <time>2018-06-08T06:56:25Z</time>
      </trkpt>
      <trkpt lat="42.66598" lon="1.70864">
        <ele>1575</ele>
        <time>2018-06-08T06:56:34Z</time>
      </trkpt>
      <trkpt lat="42.6659" lon="1.70857">
        <ele>1574</ele>
        <time>2018-06-08T06:56:45Z</time>
      </trkpt>
      <trkpt lat="42.66582" lon="1.7085">
        <ele>1583</ele>
        <time>2018-06-08T06:56:55Z</time>
      </trkpt>
      <trkpt lat="42.66574" lon="1.70844">
        <ele>1582</ele>
        <time>2018-06-08T06:57:04Z</time>
      </trkpt>
      <trkpt lat="42.66566" lon="1.70838">
        <ele>1583</ele>
        <time>2018-06-08T06:57:13Z</time>
      </trkpt>
      <trkpt lat="42.66559" lon="1.70833">
        <ele>1586</ele>
        <time>2018-06-08T06:57:23Z</time>
      </trkpt>
      <trkpt lat="42.6655" lon="1.70831">
        <ele>1575</ele>
        <time>2018-06-08T06:57:32Z</time>
      </trkpt>
      <trkpt lat="42.66539" lon="1.70832">
        <ele>1577</ele>
        <time>2018-06-08T06:57:42Z</time>
      </trkpt>
      <trkpt lat="42.66528" lon="1.70828">
        <ele>1578</ele>
        <time>2018-06-08T06:57:53Z</time>
      </trkpt>
      <trkpt lat="42.66519" lon="1.70825">
        <ele>1581</ele>
        <time>2018-06-08T06:58:06Z</time>
      </trkpt>
      <trkpt lat="42.66509" lon="1.70821">
        <ele>1582</ele>
        <time>2018-06-08T06:58:18Z</time>
      </trkpt>
      <trkpt lat="42.66501" lon="1.70815">
        <ele>1581</ele>
        <time>2018-06-08T06:58:31Z</time>
      </trkpt>
      <trkpt lat="42.66492" lon="1.7081">
        <ele>1585</ele>
        <time>2018-06-08T06:58:42Z</time>
      </trkpt>
      <trkpt lat="42.66482" lon="1.70808">
        <ele>1584</ele>
        <time>2018-06-08T06:58:53Z</time>
      </trkpt>
      <trkpt lat="42.66471" lon="1.70807">
        <ele>1584</ele>
        <time>2018-06-08T06:59:03Z</time>
      </trkpt>
      <trkpt lat="42.66459" lon="1.70805">
        <ele>1584</ele>
        <time>2018-06-08T06:59:14Z</time>
      </trkpt>
      <trkpt lat="42.66448" lon="1.70806">
        <ele>1584</ele>
        <time>2018-06-08T06:59:23Z</time>
      </trkpt>
      <trkpt lat="42.66437" lon="1.7081">
        <ele>1586</ele>
        <time>2018-06-08T06:59:31Z</time>
      </trkpt>
      <trkpt lat="42.66428" lon="1.70817">
        <ele>1588</ele>
        <time>2018-06-08T06:59:40Z</time>
      </trkpt>
      <trkpt lat="42.66418" lon="1.70823">
        <ele>1591</ele>
        <time>2018-06-08T06:59:49Z</time>
      </trkpt>
      <trkpt lat="42.66408" lon="1.70829">
        <ele>1593</ele>
        <time>2018-06-08T06:59:59Z</time>
      </trkpt>
      <trkpt lat="42.66398" lon="1.70827">
        <ele>1593</ele>
        <time>2018-06-08T07:00:08Z</time>
      </trkpt>
      <trkpt lat="42.66387" lon="1.70827">
        <ele>1593</ele>
        <time>2018-06-08T07:00:16Z</time>
      </trkpt>
      <trkpt lat="42.66377" lon="1.70825">
        <ele>1593</ele>
        <time>2018-06-08T07:00:24Z</time>
      </trkpt>
      <trkpt lat="42.66367" lon="1.7082">
        <ele>1594</ele>
        <time>2018-06-08T07:00:33Z</time>
      </trkpt>
      <trkpt lat="42.66359" lon="1.70811">
        <ele>1594</ele>
        <time>2018-06-08T07:00:40Z</time>
      </trkpt>
      <trkpt lat="42.66349" lon="1.70804">
        <ele>1594</ele>
        <time>2018-06-08T07:00:49Z</time>
      </trkpt>
      <trkpt lat="42.66342" lon="1.70798">
        <ele>1593</ele>
        <time>2018-06-08T07:00:56Z</time>
      </trkpt>
      <trkpt lat="42.66332" lon="1.70793">
        <ele>1599</ele>
        <time>2018-06-08T07:01:05Z</time>
      </trkpt>
      <trkpt lat="42.66323" lon="1.70792">
        <ele>1599</ele>
        <time>2018-06-08T07:01:13Z</time>
      </trkpt>
      <trkpt lat="42.66313" lon="1.7079">
        <ele>1600</ele>
        <time>2018-06-08T07:01:21Z</time>
      </trkpt>
      <trkpt lat="42.66304" lon="1.70788">
        <ele>1600</ele>
        <time>2018-06-08T07:01:29Z</time>
      </trkpt>
      <trkpt lat="42.66295" lon="1.70789">
        <ele>1601</ele>
        <time>2018-06-08T07:01:37Z</time>
      </trkpt>
      <trkpt lat="42.66284" lon="1.70791">
        <ele>1602</ele>
        <time>2018-06-08T07:01:47Z</time>
      </trkpt>
      <trkpt lat="42.66273" lon="1.70792">
        <ele>1603</ele>
        <time>2018-06-08T07:01:55Z</time>
      </trkpt>
      <trkpt lat="42.66262" lon="1.7079">
        <ele>1603</ele>
        <time>2018-06-08T07:02:04Z</time>
      </trkpt>
      <trkpt lat="42.66253" lon="1.70785">
        <ele>1602</ele>
        <time>2018-06-08T07:02:12Z</time>
      </trkpt>
      <trkpt lat="42.66243" lon="1.70776">
        <ele>1610</ele>
        <time>2018-06-08T07:02:21Z</time>
      </trkpt>
      <trkpt lat="42.66235" lon="1.70769">
        <ele>1609</ele>
        <time>2018-06-08T07:02:28Z</time>
      </trkpt>
      <trkpt lat="42.66226" lon="1.70765">
        <ele>1610</ele>
        <time>2018-06-08T07:02:36Z</time>
      </trkpt>
      <trkpt lat="42.66217" lon="1.70758">
        <ele>1611</ele>
        <time>2018-06-08T07:02:44Z</time>
      </trkpt>
      <trkpt lat="42.66208" lon="1.7075">
        <ele>1612</ele>
        <time>2018-06-08T07:02:52Z</time>
      </trkpt>
      <trkpt lat="42.66198" lon="1.70742">
        <ele>1594</ele>
        <time>2018-06-08T07:03:01Z</time>
      </trkpt>
      <trkpt lat="42.66189" lon="1.70734">
        <ele>1595</ele>
        <time>2018-06-08T07:03:09Z</time>
      </trkpt>
      <trkpt lat="42.6618" lon="1.70725">
        <ele>1594</ele>
        <time>2018-06-08T07:03:17Z</time>
      </trkpt>
      <trkpt lat="42.6617" lon="1.70719">
        <ele>1593</ele>
        <time>2018-06-08T07:03:27Z</time>
      </trkpt>
      <trkpt lat="42.66157" lon="1.70713">
        <ele>1600</ele>
        <time>2018-06-08T07:03:37Z</time>
      </trkpt>
      <trkpt lat="42.66144" lon="1.70705">
        <ele>1598</ele>
        <time>2018-06-08T07:03:50Z</time>
      </trkpt>
      <trkpt lat="42.66133" lon="1.70696">
        <ele>1598</ele>
        <time>2018-06-08T07:03:59Z</time>
      </trkpt>
      <trkpt lat="42.66123" lon="1.7069">
        <ele>1598</ele>
        <time>2018-06-08T07:04:08Z</time>
      </trkpt>
      <trkpt lat="42.66112" lon="1.70686">
        <ele>1598</ele>
        <time>2018-06-08T07:04:18Z</time>
      </trkpt>
      <trkpt lat="42.66102" lon="1.7068">
        <ele>1596</ele>
        <time>2018-06-08T07:04:28Z</time>
      </trkpt>
      <trkpt lat="42.66093" lon="1.70688">
        <ele>1597</ele>
        <time>2018-06-08T07:04:37Z</time>
      </trkpt>
      <trkpt lat="42.66081" lon="1.70692">
        <ele>1605</ele>
        <time>2018-06-08T07:04:46Z</time>
      </trkpt>
      <trkpt lat="42.66071" lon="1.70692">
        <ele>1605</ele>
        <time>2018-06-08T07:04:57Z</time>
      </trkpt>
      <trkpt lat="42.66061" lon="1.7069">
        <ele>1606</ele>
        <time>2018-06-08T07:05:09Z</time>
      </trkpt>
      <trkpt lat="42.66049" lon="1.70689">
        <ele>1607</ele>
        <time>2018-06-08T07:05:19Z</time>
      </trkpt>
      <trkpt lat="42.66036" lon="1.70687">
        <ele>1608</ele>
        <time>2018-06-08T07:05:30Z</time>
      </trkpt>
      <trkpt lat="42.66026" lon="1.70684">
        <ele>1607</ele>
        <time>2018-06-08T07:05:38Z</time>
      </trkpt>
      <trkpt lat="42.66015" lon="1.70684">
        <ele>1607</ele>
        <time>2018-06-08T07:05:47Z</time>
      </trkpt>
      <trkpt lat="42.66003" lon="1.70691">
        <ele>1608</ele>
        <time>2018-06-08T07:05:59Z</time>
      </trkpt>
      <trkpt lat="42.65993" lon="1.70692">
        <ele>1612</ele>
        <time>2018-06-08T07:06:07Z</time>
      </trkpt>
      <trkpt lat="42.65984" lon="1.70693">
        <ele>1613</ele>
        <time>2018-06-08T07:06:13Z</time>
      </trkpt>
      <trkpt lat="42.65973" lon="1.70694">
        <ele>1615</ele>
        <time>2018-06-08T07:06:23Z</time>
      </trkpt>
      <trkpt lat="42.65963" lon="1.70692">
        <ele>1615</ele>
        <time>2018-06-08T07:06:35Z</time>
      </trkpt>
      <trkpt lat="42.65952" lon="1.70688">
        <ele>1615</ele>
        <time>2018-06-08T07:06:45Z</time>
      </trkpt>
      <trkpt lat="42.6594" lon="1.70685">
        <ele>1615</ele>
        <time>2018-06-08T07:06:58Z</time>
      </trkpt>
      <trkpt lat="42.65929" lon="1.70686">
        <ele>1614</ele>
        <time>2018-06-08T07:07:09Z</time>
      </trkpt>
      <trkpt lat="42.65916" lon="1.70688">
        <ele>1617</ele>
        <time>2018-06-08T07:07:21Z</time>
      </trkpt>
      <trkpt lat="42.65904" lon="1.70688">
        <ele>1618</ele>
        <time>2018-06-08T07:07:31Z</time>
      </trkpt>
      <trkpt lat="42.65894" lon="1.70689">
        <ele>1619</ele>
        <time>2018-06-08T07:07:41Z</time>
      </trkpt>
      <trkpt lat="42.65883" lon="1.70689">
        <ele>1620</ele>
        <time>2018-06-08T07:07:51Z</time>
      </trkpt>
      <trkpt lat="42.65872" lon="1.70688">
        <ele>1620</ele>
        <time>2018-06-08T07:08:03Z</time>
      </trkpt>
      <trkpt lat="42.65856" lon="1.70684">
        <ele>1620</ele>
        <time>2018-06-08T07:08:15Z</time>
      </trkpt>
      <trkpt lat="42.65844" lon="1.70682">
        <ele>1618</ele>
        <time>2018-06-08T07:08:25Z</time>
      </trkpt>
      <trkpt lat="42.65831" lon="1.70679">
        <ele>1621</ele>
        <time>2018-06-08T07:08:34Z</time>
      </trkpt>
      <trkpt lat="42.65819" lon="1.70677">
        <ele>1623</ele>
        <time>2018-06-08T07:08:44Z</time>
      </trkpt>
      <trkpt lat="42.65811" lon="1.70679">
        <ele>1625</ele>
        <time>2018-06-08T07:08:53Z</time>
      </trkpt>
      <trkpt lat="42.65804" lon="1.70679">
        <ele>1627</ele>
        <time>2018-06-08T07:09:02Z</time>
      </trkpt>
      <trkpt lat="42.65795" lon="1.70679">
        <ele>1628</ele>
        <time>2018-06-08T07:09:12Z</time>
      </trkpt>
      <trkpt lat="42.65785" lon="1.7068">
        <ele>1629</ele>
        <time>2018-06-08T07:09:20Z</time>
      </trkpt>
      <trkpt lat="42.65777" lon="1.70682">
        <ele>1630</ele>
        <time>2018-06-08T07:09:29Z</time>
      </trkpt>
      <trkpt lat="42.65768" lon="1.70684">
        <ele>1630</ele>
        <time>2018-06-08T07:09:37Z</time>
      </trkpt>
      <trkpt lat="42.65758" lon="1.70682">
        <ele>1628</ele>
        <time>2018-06-08T07:09:46Z</time>
      </trkpt>
      <trkpt lat="42.65748" lon="1.70677">
        <ele>1631</ele>
        <time>2018-06-08T07:09:54Z</time>
      </trkpt>
      <trkpt lat="42.65739" lon="1.70677">
        <ele>1634</ele>
        <time>2018-06-08T07:10:04Z</time>
      </trkpt>
      <trkpt lat="42.6573" lon="1.7068">
        <ele>1638</ele>
        <time>2018-06-08T07:10:16Z</time>
      </trkpt>
      <trkpt lat="42.65718" lon="1.70675">
        <ele>1640</ele>
        <time>2018-06-08T07:10:26Z</time>
      </trkpt>
      <trkpt lat="42.65709" lon="1.70668">
        <ele>1641</ele>
        <time>2018-06-08T07:10:34Z</time>
      </trkpt>
      <trkpt lat="42.65701" lon="1.70665">
        <ele>1624</ele>
        <time>2018-06-08T07:10:43Z</time>
      </trkpt>
      <trkpt lat="42.65692" lon="1.70665">
        <ele>1625</ele>
        <time>2018-06-08T07:10:51Z</time>
      </trkpt>
      <trkpt lat="42.65684" lon="1.70667">
        <ele>1640</ele>
        <time>2018-06-08T07:10:59Z</time>
      </trkpt>
      <trkpt lat="42.65675" lon="1.70668">
        <ele>1638</ele>
        <time>2018-06-08T07:11:07Z</time>
      </trkpt>
      <trkpt lat="42.65666" lon="1.70664">
        <ele>1634</ele>
        <time>2018-06-08T07:11:17Z</time>
      </trkpt>
      <trkpt lat="42.65656" lon="1.70663">
        <ele>1633</ele>
        <time>2018-06-08T07:11:27Z</time>
      </trkpt>
      <trkpt lat="42.65648" lon="1.70669">
        <ele>1648</ele>
        <time>2018-06-08T07:11:36Z</time>
      </trkpt>
      <trkpt lat="42.65639" lon="1.70674">
        <ele>1652</ele>
        <time>2018-06-08T07:11:43Z</time>
      </trkpt>
      <trkpt lat="42.65629" lon="1.70676">
        <ele>1654</ele>
        <time>2018-06-08T07:11:53Z</time>
      </trkpt>
      <trkpt lat="42.65619" lon="1.70672">
        <ele>1655</ele>
        <time>2018-06-08T07:12:03Z</time>
      </trkpt>
      <trkpt lat="42.65611" lon="1.70666">
        <ele>1638</ele>
        <time>2018-06-08T07:12:11Z</time>
      </trkpt>
      <trkpt lat="42.65603" lon="1.70658">
        <ele>1639</ele>
        <time>2018-06-08T07:12:20Z</time>
      </trkpt>
      <trkpt lat="42.65594" lon="1.70653">
        <ele>1641</ele>
        <time>2018-06-08T07:12:31Z</time>
      </trkpt>
      <trkpt lat="42.65585" lon="1.7065">
        <ele>1641</ele>
        <time>2018-06-08T07:12:40Z</time>
      </trkpt>
      <trkpt lat="42.65577" lon="1.70648">
        <ele>1647</ele>
        <time>2018-06-08T07:12:52Z</time>
      </trkpt>
      <trkpt lat="42.65567" lon="1.70648">
        <ele>1647</ele>
        <time>2018-06-08T07:13:02Z</time>
      </trkpt>
      <trkpt lat="42.65559" lon="1.70645">
        <ele>1646</ele>
        <time>2018-06-08T07:13:12Z</time>
      </trkpt>
      <trkpt lat="42.65549" lon="1.70641">
        <ele>1646</ele>
        <time>2018-06-08T07:13:23Z</time>
      </trkpt>
      <trkpt lat="42.65539" lon="1.70638">
        <ele>1647</ele>
        <time>2018-06-08T07:13:34Z</time>
      </trkpt>
      <trkpt lat="42.65529" lon="1.70639">
        <ele>1648</ele>
        <time>2018-06-08T07:13:43Z</time>
      </trkpt>
      <trkpt lat="42.6552" lon="1.7064">
        <ele>1649</ele>
        <time>2018-06-08T07:13:51Z</time>
      </trkpt>
      <trkpt lat="42.65511" lon="1.7064">
        <ele>1650</ele>
        <time>2018-06-08T07:14:00Z</time>
      </trkpt>
      <trkpt lat="42.65505" lon="1.70637">
        <ele>1650</ele>
        <time>2018-06-08T07:15:14Z</time>
      </trkpt>
      <trkpt lat="42.65495" lon="1.70638">
        <ele>1659</ele>
        <time>2018-06-08T07:15:23Z</time>
      </trkpt>
      <trkpt lat="42.65486" lon="1.70644">
        <ele>1660</ele>
        <time>2018-06-08T07:15:30Z</time>
      </trkpt>
      <trkpt lat="42.65476" lon="1.70647">
        <ele>1661</ele>
        <time>2018-06-08T07:15:38Z</time>
      </trkpt>
      <trkpt lat="42.65465" lon="1.70645">
        <ele>1662</ele>
        <time>2018-06-08T07:15:49Z</time>
      </trkpt>
      <trkpt lat="42.65455" lon="1.70638">
        <ele>1662</ele>
        <time>2018-06-08T07:15:58Z</time>
      </trkpt>
      <trkpt lat="42.65446" lon="1.70628">
        <ele>1661</ele>
        <time>2018-06-08T07:16:07Z</time>
      </trkpt>
      <trkpt lat="42.65438" lon="1.70619">
        <ele>1660</ele>
        <time>2018-06-08T07:16:16Z</time>
      </trkpt>
      <trkpt lat="42.6543" lon="1.7061">
        <ele>1659</ele>
        <time>2018-06-08T07:16:26Z</time>
      </trkpt>
      <trkpt lat="42.65422" lon="1.70599">
        <ele>1656</ele>
        <time>2018-06-08T07:16:35Z</time>
      </trkpt>
      <trkpt lat="42.65414" lon="1.70587">
        <ele>1659</ele>
        <time>2018-06-08T07:16:46Z</time>
      </trkpt>
      <trkpt lat="42.65408" lon="1.70577">
        <ele>1656</ele>
        <time>2018-06-08T07:16:56Z</time>
      </trkpt>
      <trkpt lat="42.65399" lon="1.70568">
        <ele>1659</ele>
        <time>2018-06-08T07:17:07Z</time>
      </trkpt>
      <trkpt lat="42.65392" lon="1.70558">
        <ele>1660</ele>
        <time>2018-06-08T07:17:17Z</time>
      </trkpt>
      <trkpt lat="42.65383" lon="1.70549">
        <ele>1661</ele>
        <time>2018-06-08T07:17:29Z</time>
      </trkpt>
      <trkpt lat="42.65373" lon="1.70544">
        <ele>1663</ele>
        <time>2018-06-08T07:17:40Z</time>
      </trkpt>
      <trkpt lat="42.65363" lon="1.70541">
        <ele>1664</ele>
        <time>2018-06-08T07:17:51Z</time>
      </trkpt>
      <trkpt lat="42.65352" lon="1.70537">
        <ele>1665</ele>
        <time>2018-06-08T07:18:03Z</time>
      </trkpt>
      <trkpt lat="42.65343" lon="1.70533">
        <ele>1665</ele>
        <time>2018-06-08T07:18:13Z</time>
      </trkpt>
      <trkpt lat="42.65331" lon="1.70528">
        <ele>1683</ele>
        <time>2018-06-08T07:18:26Z</time>
      </trkpt>
      <trkpt lat="42.65321" lon="1.70522">
        <ele>1682</ele>
        <time>2018-06-08T07:18:38Z</time>
      </trkpt>
      <trkpt lat="42.65313" lon="1.70512">
        <ele>1682</ele>
        <time>2018-06-08T07:18:48Z</time>
      </trkpt>
      <trkpt lat="42.65304" lon="1.70503">
        <ele>1684</ele>
        <time>2018-06-08T07:18:58Z</time>
      </trkpt>
      <trkpt lat="42.65296" lon="1.70493">
        <ele>1677</ele>
        <time>2018-06-08T07:19:10Z</time>
      </trkpt>
      <trkpt lat="42.65287" lon="1.70485">
        <ele>1679</ele>
        <time>2018-06-08T07:19:21Z</time>
      </trkpt>
      <trkpt lat="42.65279" lon="1.70475">
        <ele>1680</ele>
        <time>2018-06-08T07:19:32Z</time>
      </trkpt>
      <trkpt lat="42.65271" lon="1.70466">
        <ele>1681</ele>
        <time>2018-06-08T07:19:43Z</time>
      </trkpt>
      <trkpt lat="42.65264" lon="1.70455">
        <ele>1680</ele>
        <time>2018-06-08T07:19:54Z</time>
      </trkpt>
      <trkpt lat="42.65258" lon="1.70443">
        <ele>1680</ele>
        <time>2018-06-08T07:20:05Z</time>
      </trkpt>
      <trkpt lat="42.65251" lon="1.70433">
        <ele>1681</ele>
        <time>2018-06-08T07:20:17Z</time>
      </trkpt>
      <trkpt lat="42.65244" lon="1.70424">
        <ele>1691</ele>
        <time>2018-06-08T07:20:28Z</time>
      </trkpt>
      <trkpt lat="42.65236" lon="1.70416">
        <ele>1689</ele>
        <time>2018-06-08T07:20:38Z</time>
      </trkpt>
      <trkpt lat="42.65227" lon="1.70408">
        <ele>1692</ele>
        <time>2018-06-08T07:20:48Z</time>
      </trkpt>
      <trkpt lat="42.65217" lon="1.70403">
        <ele>1695</ele>
        <time>2018-06-08T07:20:58Z</time>
      </trkpt>
      <trkpt lat="42.65204" lon="1.704">
        <ele>1697</ele>
        <time>2018-06-08T07:21:08Z</time>
      </trkpt>
      <trkpt lat="42.65195" lon="1.70394">
        <ele>1699</ele>
        <time>2018-06-08T07:21:17Z</time>
      </trkpt>
      <trkpt lat="42.65185" lon="1.70389">
        <ele>1699</ele>
        <time>2018-06-08T07:21:27Z</time>
      </trkpt>
      <trkpt lat="42.65176" lon="1.7038">
        <ele>1699</ele>
        <time>2018-06-08T07:21:36Z</time>
      </trkpt>
      <trkpt lat="42.65165" lon="1.70375">
        <ele>1705</ele>
        <time>2018-06-08T07:21:46Z</time>
      </trkpt>
      <trkpt lat="42.65156" lon="1.70369">
        <ele>1704</ele>
        <time>2018-06-08T07:21:55Z</time>
      </trkpt>
      <trkpt lat="42.65147" lon="1.70361">
        <ele>1703</ele>
        <time>2018-06-08T07:22:04Z</time>
      </trkpt>
      <trkpt lat="42.65138" lon="1.70355">
        <ele>1703</ele>
        <time>2018-06-08T07:22:14Z</time>
      </trkpt>
      <trkpt lat="42.65128" lon="1.7035">
        <ele>1703</ele>
        <time>2018-06-08T07:22:23Z</time>
      </trkpt>
      <trkpt lat="42.65117" lon="1.70349">
        <ele>1704</ele>
        <time>2018-06-08T07:22:32Z</time>
      </trkpt>
      <trkpt lat="42.65107" lon="1.70351">
        <ele>1704</ele>
        <time>2018-06-08T07:22:41Z</time>
      </trkpt>
      <trkpt lat="42.65099" lon="1.70353">
        <ele>1704</ele>
        <time>2018-06-08T07:22:50Z</time>
      </trkpt>
      <trkpt lat="42.65087" lon="1.70353">
        <ele>1704</ele>
        <time>2018-06-08T07:23:00Z</time>
      </trkpt>
      <trkpt lat="42.65077" lon="1.70352">
        <ele>1706</ele>
        <time>2018-06-08T07:23:09Z</time>
      </trkpt>
      <trkpt lat="42.65066" lon="1.70352">
        <ele>1707</ele>
        <time>2018-06-08T07:23:17Z</time>
      </trkpt>
      <trkpt lat="42.65056" lon="1.70352">
        <ele>1707</ele>
        <time>2018-06-08T07:23:25Z</time>
      </trkpt>
      <trkpt lat="42.65047" lon="1.70355">
        <ele>1708</ele>
        <time>2018-06-08T07:23:34Z</time>
      </trkpt>
      <trkpt lat="42.65037" lon="1.70355">
        <ele>1708</ele>
        <time>2018-06-08T07:23:41Z</time>
      </trkpt>
      <trkpt lat="42.65027" lon="1.70355">
        <ele>1708</ele>
        <time>2018-06-08T07:23:49Z</time>
      </trkpt>
      <trkpt lat="42.65018" lon="1.70353">
        <ele>1707</ele>
        <time>2018-06-08T07:23:57Z</time>
      </trkpt>
      <trkpt lat="42.65007" lon="1.70354">
        <ele>1706</ele>
        <time>2018-06-08T07:24:07Z</time>
      </trkpt>
      <trkpt lat="42.64996" lon="1.70355">
        <ele>1706</ele>
        <time>2018-06-08T07:24:16Z</time>
      </trkpt>
      <trkpt lat="42.64986" lon="1.70356">
        <ele>1707</ele>
        <time>2018-06-08T07:24:24Z</time>
      </trkpt>
      <trkpt lat="42.64984" lon="1.7036">
        <ele>1708</ele>
        <time>2018-06-08T07:24:31Z</time>
      </trkpt>
      <trkpt lat="42.64974" lon="1.7036">
        <ele>1708</ele>
        <time>2018-06-08T07:24:42Z</time>
      </trkpt>
      <trkpt lat="42.64963" lon="1.70356">
        <ele>1708</ele>
        <time>2018-06-08T07:24:51Z</time>
      </trkpt>
      <trkpt lat="42.64949" lon="1.70353">
        <ele>1707</ele>
        <time>2018-06-08T07:25:01Z</time>
      </trkpt>
      <trkpt lat="42.64937" lon="1.70351">
        <ele>1706</ele>
        <time>2018-06-08T07:25:11Z</time>
      </trkpt>
      <trkpt lat="42.64926" lon="1.70348">
        <ele>1704</ele>
        <time>2018-06-08T07:25:22Z</time>
      </trkpt>
      <trkpt lat="42.64911" lon="1.70345">
        <ele>1703</ele>
        <time>2018-06-08T07:26:03Z</time>
      </trkpt>
      <trkpt lat="42.64904" lon="1.70351">
        <ele>1706</ele>
        <time>2018-06-08T07:26:13Z</time>
      </trkpt>
      <trkpt lat="42.64894" lon="1.70356">
        <ele>1708</ele>
        <time>2018-06-08T07:26:26Z</time>
      </trkpt>
      <trkpt lat="42.64883" lon="1.70358">
        <ele>1709</ele>
        <time>2018-06-08T07:26:39Z</time>
      </trkpt>
      <trkpt lat="42.64873" lon="1.70354">
        <ele>1709</ele>
        <time>2018-06-08T07:26:53Z</time>
      </trkpt>
      <trkpt lat="42.64863" lon="1.70355">
        <ele>1709</ele>
        <time>2018-06-08T07:27:02Z</time>
      </trkpt>
      <trkpt lat="42.64854" lon="1.70359">
        <ele>1709</ele>
        <time>2018-06-08T07:27:11Z</time>
      </trkpt>
      <trkpt lat="42.64844" lon="1.70357">
        <ele>1708</ele>
        <time>2018-06-08T07:27:22Z</time>
      </trkpt>
      <trkpt lat="42.64835" lon="1.70362">
        <ele>1709</ele>
        <time>2018-06-08T07:27:33Z</time>
      </trkpt>
      <trkpt lat="42.64824" lon="1.70363">
        <ele>1712</ele>
        <time>2018-06-08T07:27:46Z</time>
      </trkpt>
      <trkpt lat="42.64813" lon="1.70364">
        <ele>1712</ele>
        <time>2018-06-08T07:28:00Z</time>
      </trkpt>
      <trkpt lat="42.64805" lon="1.70366">
        <ele>1713</ele>
        <time>2018-06-08T07:28:20Z</time>
      </trkpt>
      <trkpt lat="42.64795" lon="1.70359">
        <ele>1713</ele>
        <time>2018-06-08T07:28:39Z</time>
      </trkpt>
      <trkpt lat="42.64787" lon="1.70349">
        <ele>1712</ele>
        <time>2018-06-08T07:28:50Z</time>
      </trkpt>
      <trkpt lat="42.64777" lon="1.70348">
        <ele>1712</ele>
        <time>2018-06-08T07:29:01Z</time>
      </trkpt>
      <trkpt lat="42.64768" lon="1.70344">
        <ele>1710</ele>
        <time>2018-06-08T07:29:19Z</time>
      </trkpt>
      <trkpt lat="42.64757" lon="1.70339">
        <ele>1708</ele>
        <time>2018-06-08T07:29:45Z</time>
      </trkpt>
      <trkpt lat="42.64746" lon="1.70334">
        <ele>1708</ele>
        <time>2018-06-08T07:29:59Z</time>
      </trkpt>
      <trkpt lat="42.64738" lon="1.70337">
        <ele>1714</ele>
        <time>2018-06-08T07:30:11Z</time>
      </trkpt>
      <trkpt lat="42.64727" lon="1.70336">
        <ele>1718</ele>
        <time>2018-06-08T07:30:24Z</time>
      </trkpt>
      <trkpt lat="42.64717" lon="1.70334">
        <ele>1721</ele>
        <time>2018-06-08T07:30:36Z</time>
      </trkpt>
      <trkpt lat="42.64707" lon="1.70331">
        <ele>1712</ele>
        <time>2018-06-08T07:30:49Z</time>
      </trkpt>
      <trkpt lat="42.647" lon="1.70322">
        <ele>1713</ele>
        <time>2018-06-08T07:31:04Z</time>
      </trkpt>
      <trkpt lat="42.6469" lon="1.70321">
        <ele>1715</ele>
        <time>2018-06-08T07:31:19Z</time>
      </trkpt>
      <trkpt lat="42.64681" lon="1.70315">
        <ele>1715</ele>
        <time>2018-06-08T07:31:30Z</time>
      </trkpt>
      <trkpt lat="42.64676" lon="1.70303">
        <ele>1714</ele>
        <time>2018-06-08T07:31:43Z</time>
      </trkpt>
      <trkpt lat="42.64668" lon="1.70296">
        <ele>1714</ele>
        <time>2018-06-08T07:31:58Z</time>
      </trkpt>
      <trkpt lat="42.6466" lon="1.70293">
        <ele>1722</ele>
        <time>2018-06-08T07:32:12Z</time>
      </trkpt>
      <trkpt lat="42.64651" lon="1.70288">
        <ele>1721</ele>
        <time>2018-06-08T07:32:24Z</time>
      </trkpt>
      <trkpt lat="42.64644" lon="1.70284">
        <ele>1721</ele>
        <time>2018-06-08T07:32:37Z</time>
      </trkpt>
      <trkpt lat="42.64638" lon="1.70274">
        <ele>1721</ele>
        <time>2018-06-08T07:32:48Z</time>
      </trkpt>
      <trkpt lat="42.64629" lon="1.70268">
        <ele>1721</ele>
        <time>2018-06-08T07:33:02Z</time>
      </trkpt>
      <trkpt lat="42.6462" lon="1.70268">
        <ele>1722</ele>
        <time>2018-06-08T07:43:48Z</time>
      </trkpt>
      <trkpt lat="42.6461" lon="1.70272">
        <ele>1723</ele>
        <time>2018-06-08T07:44:11Z</time>
      </trkpt>
      <trkpt lat="42.64602" lon="1.70276">
        <ele>1723</ele>
        <time>2018-06-08T07:44:23Z</time>
      </trkpt>
      <trkpt lat="42.64594" lon="1.70286">
        <ele>1725</ele>
        <time>2018-06-08T07:44:46Z</time>
      </trkpt>
      <trkpt lat="42.64585" lon="1.70284">
        <ele>1725</ele>
        <time>2018-06-08T07:44:57Z</time>
      </trkpt>
      <trkpt lat="42.64576" lon="1.70278">
        <ele>1728</ele>
        <time>2018-06-08T07:45:09Z</time>
      </trkpt>
      <trkpt lat="42.64567" lon="1.7027">
        <ele>1728</ele>
        <time>2018-06-08T07:45:22Z</time>
      </trkpt>
      <trkpt lat="42.64557" lon="1.70268">
        <ele>1728</ele>
        <time>2018-06-08T07:45:36Z</time>
      </trkpt>
      <trkpt lat="42.64548" lon="1.70269">
        <ele>1729</ele>
        <time>2018-06-08T07:45:49Z</time>
      </trkpt>
      <trkpt lat="42.64539" lon="1.70269">
        <ele>1729</ele>
        <time>2018-06-08T07:46:09Z</time>
      </trkpt>
      <trkpt lat="42.64531" lon="1.70266">
        <ele>1728</ele>
        <time>2018-06-08T07:46:24Z</time>
      </trkpt>
      <trkpt lat="42.64521" lon="1.70268">
        <ele>1727</ele>
        <time>2018-06-08T07:46:40Z</time>
      </trkpt>
      <trkpt lat="42.64511" lon="1.70267">
        <ele>1726</ele>
        <time>2018-06-08T07:46:53Z</time>
      </trkpt>
      <trkpt lat="42.64501" lon="1.7027">
        <ele>1726</ele>
        <time>2018-06-08T07:47:08Z</time>
      </trkpt>
      <trkpt lat="42.64492" lon="1.70272">
        <ele>1729</ele>
        <time>2018-06-08T07:48:39Z</time>
      </trkpt>
      <trkpt lat="42.64483" lon="1.70271">
        <ele>1730</ele>
        <time>2018-06-08T07:48:50Z</time>
      </trkpt>
      <trkpt lat="42.64474" lon="1.70271">
        <ele>1731</ele>
        <time>2018-06-08T07:49:06Z</time>
      </trkpt>
      <trkpt lat="42.64467" lon="1.70264">
        <ele>1731</ele>
        <time>2018-06-08T07:49:23Z</time>
      </trkpt>
      <trkpt lat="42.64457" lon="1.7026">
        <ele>1731</ele>
        <time>2018-06-08T07:49:35Z</time>
      </trkpt>
      <trkpt lat="42.64445" lon="1.70263">
        <ele>1731</ele>
        <time>2018-06-08T07:49:45Z</time>
      </trkpt>
      <trkpt lat="42.64435" lon="1.70267">
        <ele>1731</ele>
        <time>2018-06-08T07:49:54Z</time>
      </trkpt>
      <trkpt lat="42.64425" lon="1.70272">
        <ele>1732</ele>
        <time>2018-06-08T07:50:06Z</time>
      </trkpt>
      <trkpt lat="42.64416" lon="1.70277">
        <ele>1733</ele>
        <time>2018-06-08T07:50:18Z</time>
      </trkpt>
      <trkpt lat="42.64406" lon="1.70277">
        <ele>1734</ele>
        <time>2018-06-08T07:50:30Z</time>
      </trkpt>
      <trkpt lat="42.64396" lon="1.70274">
        <ele>1734</ele>
        <time>2018-06-08T07:50:42Z</time>
      </trkpt>
      <trkpt lat="42.64385" lon="1.70273">
        <ele>1734</ele>
        <time>2018-06-08T07:50:54Z</time>
      </trkpt>
      <trkpt lat="42.64376" lon="1.70273">
        <ele>1734</ele>
        <time>2018-06-08T07:51:03Z</time>
      </trkpt>
      <trkpt lat="42.64368" lon="1.70278">
        <ele>1735</ele>
        <time>2018-06-08T07:51:13Z</time>
      </trkpt>
      <trkpt lat="42.6436" lon="1.70285">
        <ele>1736</ele>
        <time>2018-06-08T07:51:25Z</time>
      </trkpt>
      <trkpt lat="42.6435" lon="1.70288">
        <ele>1736</ele>
        <time>2018-06-08T07:51:37Z</time>
      </trkpt>
      <trkpt lat="42.64343" lon="1.70291">
        <ele>1736</ele>
        <time>2018-06-08T07:51:52Z</time>
      </trkpt>
      <trkpt lat="42.64334" lon="1.70295">
        <ele>1737</ele>
        <time>2018-06-08T07:52:05Z</time>
      </trkpt>
      <trkpt lat="42.64328" lon="1.70303">
        <ele>1738</ele>
        <time>2018-06-08T07:52:18Z</time>
      </trkpt>
      <trkpt lat="42.64319" lon="1.70304">
        <ele>1738</ele>
        <time>2018-06-08T07:52:32Z</time>
      </trkpt>
      <trkpt lat="42.64312" lon="1.70316">
        <ele>1739</ele>
        <time>2018-06-08T07:52:46Z</time>
      </trkpt>
      <trkpt lat="42.64303" lon="1.70321">
        <ele>1739</ele>
        <time>2018-06-08T07:53:00Z</time>
      </trkpt>
      <trkpt lat="42.64294" lon="1.70317">
        <ele>1738</ele>
        <time>2018-06-08T07:53:12Z</time>
      </trkpt>
      <trkpt lat="42.64284" lon="1.70318">
        <ele>1738</ele>
        <time>2018-06-08T07:53:26Z</time>
      </trkpt>
      <trkpt lat="42.64277" lon="1.70319">
        <ele>1738</ele>
        <time>2018-06-08T07:53:40Z</time>
      </trkpt>
      <trkpt lat="42.64269" lon="1.70322">
        <ele>1739</ele>
        <time>2018-06-08T07:53:57Z</time>
      </trkpt>
      <trkpt lat="42.64259" lon="1.70321">
        <ele>1740</ele>
        <time>2018-06-08T07:54:08Z</time>
      </trkpt>
      <trkpt lat="42.64251" lon="1.70324">
        <ele>1741</ele>
        <time>2018-06-08T07:54:20Z</time>
      </trkpt>
      <trkpt lat="42.64246" lon="1.70336">
        <ele>1746</ele>
        <time>2018-06-08T07:54:36Z</time>
      </trkpt>
      <trkpt lat="42.64237" lon="1.70339">
        <ele>1750</ele>
        <time>2018-06-08T07:54:49Z</time>
      </trkpt>
      <trkpt lat="42.64228" lon="1.70344">
        <ele>1753</ele>
        <time>2018-06-08T07:55:02Z</time>
      </trkpt>
      <trkpt lat="42.6422" lon="1.70351">
        <ele>1755</ele>
        <time>2018-06-08T07:55:15Z</time>
      </trkpt>
      <trkpt lat="42.64213" lon="1.70361">
        <ele>1757</ele>
        <time>2018-06-08T07:55:27Z</time>
      </trkpt>
      <trkpt lat="42.64206" lon="1.70369">
        <ele>1758</ele>
        <time>2018-06-08T07:55:40Z</time>
      </trkpt>
      <trkpt lat="42.642" lon="1.70375">
        <ele>1759</ele>
        <time>2018-06-08T07:55:53Z</time>
      </trkpt>
      <trkpt lat="42.64195" lon="1.7039">
        <ele>1761</ele>
        <time>2018-06-08T07:56:10Z</time>
      </trkpt>
      <trkpt lat="42.64191" lon="1.70401">
        <ele>1763</ele>
        <time>2018-06-08T07:56:26Z</time>
      </trkpt>
      <trkpt lat="42.6419" lon="1.70412">
        <ele>1763</ele>
        <time>2018-06-08T07:56:45Z</time>
      </trkpt>
      <trkpt lat="42.64186" lon="1.70421">
        <ele>1778</ele>
        <time>2018-06-08T07:57:05Z</time>
      </trkpt>
      <trkpt lat="42.64179" lon="1.70431">
        <ele>1778</ele>
        <time>2018-06-08T07:57:27Z</time>
      </trkpt>
      <trkpt lat="42.6418" lon="1.70442">
        <ele>1781</ele>
        <time>2018-06-08T07:57:48Z</time>
      </trkpt>
      <trkpt lat="42.64179" lon="1.70449">
        <ele>1783</ele>
        <time>2018-06-08T07:58:09Z</time>
      </trkpt>
      <trkpt lat="42.64174" lon="1.70459">
        <ele>1785</ele>
        <time>2018-06-08T07:58:40Z</time>
      </trkpt>
      <trkpt lat="42.64173" lon="1.70473">
        <ele>1788</ele>
        <time>2018-06-08T07:59:06Z</time>
      </trkpt>
      <trkpt lat="42.64167" lon="1.70478">
        <ele>1783</ele>
        <time>2018-06-08T07:59:34Z</time>
      </trkpt>
      <trkpt lat="42.64162" lon="1.70491">
        <ele>1787</ele>
        <time>2018-06-08T08:00:23Z</time>
      </trkpt>
      <trkpt lat="42.64156" lon="1.70503">
        <ele>1795</ele>
        <time>2018-06-08T08:00:39Z</time>
      </trkpt>
      <trkpt lat="42.64148" lon="1.70508">
        <ele>1798</ele>
        <time>2018-06-08T08:00:57Z</time>
      </trkpt>
      <trkpt lat="42.64144" lon="1.70515">
        <ele>1799</ele>
        <time>2018-06-08T08:01:16Z</time>
      </trkpt>
      <trkpt lat="42.64135" lon="1.70523">
        <ele>1801</ele>
        <time>2018-06-08T08:01:37Z</time>
      </trkpt>
      <trkpt lat="42.64129" lon="1.70535">
        <ele>1802</ele>
        <time>2018-06-08T08:02:16Z</time>
      </trkpt>
      <trkpt lat="42.64124" lon="1.70548">
        <ele>1804</ele>
        <time>2018-06-08T08:02:36Z</time>
      </trkpt>
      <trkpt lat="42.64119" lon="1.7056">
        <ele>1805</ele>
        <time>2018-06-08T08:02:53Z</time>
      </trkpt>
      <trkpt lat="42.64116" lon="1.70573">
        <ele>1807</ele>
        <time>2018-06-08T08:03:12Z</time>
      </trkpt>
      <trkpt lat="42.64116" lon="1.70585">
        <ele>1822</ele>
        <time>2018-06-08T08:03:32Z</time>
      </trkpt>
      <trkpt lat="42.64113" lon="1.70598">
        <ele>1822</ele>
        <time>2018-06-08T08:03:51Z</time>
      </trkpt>
      <trkpt lat="42.6411" lon="1.7061">
        <ele>1824</ele>
        <time>2018-06-08T08:04:25Z</time>
      </trkpt>
      <trkpt lat="42.64104" lon="1.70621">
        <ele>1825</ele>
        <time>2018-06-08T08:04:47Z</time>
      </trkpt>
      <trkpt lat="42.64097" lon="1.70637">
        <ele>1826</ele>
        <time>2018-06-08T08:05:14Z</time>
      </trkpt>
      <trkpt lat="42.64096" lon="1.70647">
        <ele>1828</ele>
        <time>2018-06-08T08:05:34Z</time>
      </trkpt>
      <trkpt lat="42.64091" lon="1.70658">
        <ele>1828</ele>
        <time>2018-06-08T08:05:54Z</time>
      </trkpt>
      <trkpt lat="42.64086" lon="1.70671">
        <ele>1832</ele>
        <time>2018-06-08T08:06:10Z</time>
      </trkpt>
      <trkpt lat="42.64087" lon="1.70684">
        <ele>1838</ele>
        <time>2018-06-08T08:06:26Z</time>
      </trkpt>
      <trkpt lat="42.64082" lon="1.70697">
        <ele>1837</ele>
        <time>2018-06-08T08:06:43Z</time>
      </trkpt>
      <trkpt lat="42.64078" lon="1.70712">
        <ele>1840</ele>
        <time>2018-06-08T08:07:24Z</time>
      </trkpt>
      <trkpt lat="42.64072" lon="1.7072">
        <ele>1841</ele>
        <time>2018-06-08T08:07:42Z</time>
      </trkpt>
      <trkpt lat="42.64066" lon="1.70733">
        <ele>1842</ele>
        <time>2018-06-08T08:07:58Z</time>
      </trkpt>
      <trkpt lat="42.64059" lon="1.70743">
        <ele>1843</ele>
        <time>2018-06-08T08:09:27Z</time>
      </trkpt>
      <trkpt lat="42.64053" lon="1.70757">
        <ele>1851</ele>
        <time>2018-06-08T08:09:38Z</time>
      </trkpt>
      <trkpt lat="42.64046" lon="1.70768">
        <ele>1851</ele>
        <time>2018-06-08T08:09:49Z</time>
      </trkpt>
      <trkpt lat="42.64038" lon="1.70776">
        <ele>1851</ele>
        <time>2018-06-08T08:10:00Z</time>
      </trkpt>
      <trkpt lat="42.64031" lon="1.70784">
        <ele>1852</ele>
        <time>2018-06-08T08:10:12Z</time>
      </trkpt>
      <trkpt lat="42.64027" lon="1.70795">
        <ele>1852</ele>
        <time>2018-06-08T08:10:27Z</time>
      </trkpt>
      <trkpt lat="42.6402" lon="1.70803">
        <ele>1853</ele>
        <time>2018-06-08T08:10:43Z</time>
      </trkpt>
      <trkpt lat="42.64013" lon="1.70811">
        <ele>1853</ele>
        <time>2018-06-08T08:10:56Z</time>
      </trkpt>
      <trkpt lat="42.64006" lon="1.70819">
        <ele>1854</ele>
        <time>2018-06-08T08:11:11Z</time>
      </trkpt>
      <trkpt lat="42.64003" lon="1.70834">
        <ele>1856</ele>
        <time>2018-06-08T08:11:29Z</time>
      </trkpt>
      <trkpt lat="42.63999" lon="1.70844">
        <ele>1858</ele>
        <time>2018-06-08T08:11:44Z</time>
      </trkpt>
      <trkpt lat="42.63995" lon="1.70854">
        <ele>1860</ele>
        <time>2018-06-08T08:12:00Z</time>
      </trkpt>
      <trkpt lat="42.63994" lon="1.70871">
        <ele>1862</ele>
        <time>2018-06-08T08:12:19Z</time>
      </trkpt>
      <trkpt lat="42.63988" lon="1.70882">
        <ele>1863</ele>
        <time>2018-06-08T08:12:31Z</time>
      </trkpt>
      <trkpt lat="42.63989" lon="1.70897">
        <ele>1864</ele>
        <time>2018-06-08T08:12:52Z</time>
      </trkpt>
      <trkpt lat="42.63984" lon="1.70907">
        <ele>1865</ele>
        <time>2018-06-08T08:13:07Z</time>
      </trkpt>
      <trkpt lat="42.63985" lon="1.70919">
        <ele>1869</ele>
        <time>2018-06-08T08:13:24Z</time>
      </trkpt>
      <trkpt lat="42.63985" lon="1.70931">
        <ele>1870</ele>
        <time>2018-06-08T08:13:40Z</time>
      </trkpt>
      <trkpt lat="42.63988" lon="1.70945">
        <ele>1872</ele>
        <time>2018-06-08T08:13:56Z</time>
      </trkpt>
      <trkpt lat="42.63989" lon="1.7096">
        <ele>1874</ele>
        <time>2018-06-08T08:14:11Z</time>
      </trkpt>
      <trkpt lat="42.6399" lon="1.70972">
        <ele>1875</ele>
        <time>2018-06-08T08:14:25Z</time>
      </trkpt>
      <trkpt lat="42.6399" lon="1.70983">
        <ele>1876</ele>
        <time>2018-06-08T08:14:38Z</time>
      </trkpt>
      <trkpt lat="42.63991" lon="1.70999">
        <ele>1878</ele>
        <time>2018-06-08T08:14:54Z</time>
      </trkpt>
      <trkpt lat="42.6399" lon="1.71012">
        <ele>1881</ele>
        <time>2018-06-08T08:15:09Z</time>
      </trkpt>
      <trkpt lat="42.63987" lon="1.71026">
        <ele>1881</ele>
        <time>2018-06-08T08:15:25Z</time>
      </trkpt>
      <trkpt lat="42.63985" lon="1.7104">
        <ele>1882</ele>
        <time>2018-06-08T08:15:42Z</time>
      </trkpt>
      <trkpt lat="42.63986" lon="1.71056">
        <ele>1883</ele>
        <time>2018-06-08T08:16:01Z</time>
      </trkpt>
      <trkpt lat="42.6398" lon="1.71071">
        <ele>1883</ele>
        <time>2018-06-08T08:16:16Z</time>
      </trkpt>
      <trkpt lat="42.6398" lon="1.71087">
        <ele>1887</ele>
        <time>2018-06-08T08:16:35Z</time>
      </trkpt>
      <trkpt lat="42.63983" lon="1.711">
        <ele>1888</ele>
        <time>2018-06-08T08:16:47Z</time>
      </trkpt>
      <trkpt lat="42.63983" lon="1.71114">
        <ele>1889</ele>
        <time>2018-06-08T08:17:00Z</time>
      </trkpt>
      <trkpt lat="42.63987" lon="1.71126">
        <ele>1890</ele>
        <time>2018-06-08T08:17:13Z</time>
      </trkpt>
      <trkpt lat="42.63988" lon="1.71141">
        <ele>1891</ele>
        <time>2018-06-08T08:17:25Z</time>
      </trkpt>
      <trkpt lat="42.63987" lon="1.71157">
        <ele>1892</ele>
        <time>2018-06-08T08:17:37Z</time>
      </trkpt>
      <trkpt lat="42.63985" lon="1.71173">
        <ele>1896</ele>
        <time>2018-06-08T08:17:49Z</time>
      </trkpt>
      <trkpt lat="42.63978" lon="1.71181">
        <ele>1897</ele>
        <time>2018-06-08T08:18:05Z</time>
      </trkpt>
      <trkpt lat="42.63969" lon="1.71179">
        <ele>1897</ele>
        <time>2018-06-08T08:20:01Z</time>
      </trkpt>
      <trkpt lat="42.63968" lon="1.71167">
        <ele>1897</ele>
        <time>2018-06-08T08:21:23Z</time>
      </trkpt>
      <trkpt lat="42.63965" lon="1.71155">
        <ele>1891</ele>
        <time>2018-06-08T08:21:33Z</time>
      </trkpt>
      <trkpt lat="42.63961" lon="1.71146">
        <ele>1891</ele>
        <time>2018-06-08T08:21:44Z</time>
      </trkpt>
      <trkpt lat="42.63951" lon="1.7114">
        <ele>1891</ele>
        <time>2018-06-08T08:21:59Z</time>
      </trkpt>
      <trkpt lat="42.6394" lon="1.71134">
        <ele>1891</ele>
        <time>2018-06-08T08:22:12Z</time>
      </trkpt>
      <trkpt lat="42.6393" lon="1.71133">
        <ele>1891</ele>
        <time>2018-06-08T08:22:24Z</time>
      </trkpt>
      <trkpt lat="42.63921" lon="1.71126">
        <ele>1890</ele>
        <time>2018-06-08T08:22:38Z</time>
      </trkpt>
      <trkpt lat="42.6392" lon="1.71116">
        <ele>1889</ele>
        <time>2018-06-08T08:22:50Z</time>
      </trkpt>
      <trkpt lat="42.63913" lon="1.71107">
        <ele>1895</ele>
        <time>2018-06-08T08:23:02Z</time>
      </trkpt>
      <trkpt lat="42.63904" lon="1.71101">
        <ele>1895</ele>
        <time>2018-06-08T08:23:15Z</time>
      </trkpt>
      <trkpt lat="42.63893" lon="1.71096">
        <ele>1896</ele>
        <time>2018-06-08T08:23:30Z</time>
      </trkpt>
      <trkpt lat="42.6389" lon="1.71085">
        <ele>1896</ele>
        <time>2018-06-08T08:23:43Z</time>
      </trkpt>
      <trkpt lat="42.6388" lon="1.71088">
        <ele>1899</ele>
        <time>2018-06-08T08:24:02Z</time>
      </trkpt>
      <trkpt lat="42.63874" lon="1.71081">
        <ele>1894</ele>
        <time>2018-06-08T08:24:22Z</time>
      </trkpt>
      <trkpt lat="42.63864" lon="1.71076">
        <ele>1896</ele>
        <time>2018-06-08T08:24:44Z</time>
      </trkpt>
      <trkpt lat="42.63854" lon="1.71078">
        <ele>1898</ele>
        <time>2018-06-08T08:25:02Z</time>
      </trkpt>
      <trkpt lat="42.63846" lon="1.71083">
        <ele>1901</ele>
        <time>2018-06-08T08:25:14Z</time>
      </trkpt>
      <trkpt lat="42.63841" lon="1.71071">
        <ele>1901</ele>
        <time>2018-06-08T08:25:29Z</time>
      </trkpt>
      <trkpt lat="42.63834" lon="1.71061">
        <ele>1899</ele>
        <time>2018-06-08T08:26:39Z</time>
      </trkpt>
      <trkpt lat="42.63827" lon="1.7105">
        <ele>1907</ele>
        <time>2018-06-08T08:27:08Z</time>
      </trkpt>
      <trkpt lat="42.63822" lon="1.71038">
        <ele>1906</ele>
        <time>2018-06-08T08:27:32Z</time>
      </trkpt>
      <trkpt lat="42.63814" lon="1.71031">
        <ele>1906</ele>
        <time>2018-06-08T08:27:59Z</time>
      </trkpt>
      <trkpt lat="42.63805" lon="1.71032">
        <ele>1906</ele>
        <time>2018-06-08T08:28:28Z</time>
      </trkpt>
      <trkpt lat="42.63803" lon="1.71041">
        <ele>1907</ele>
        <time>2018-06-08T08:28:45Z</time>
      </trkpt>
      <trkpt lat="42.63805" lon="1.71055">
        <ele>1908</ele>
        <time>2018-06-08T08:29:42Z</time>
      </trkpt>
      <trkpt lat="42.63798" lon="1.71067">
        <ele>1910</ele>
        <time>2018-06-08T08:29:58Z</time>
      </trkpt>
      <trkpt lat="42.63793" lon="1.71082">
        <ele>1911</ele>
        <time>2018-06-08T08:30:19Z</time>
      </trkpt>
      <trkpt lat="42.63788" lon="1.71091">
        <ele>1922</ele>
        <time>2018-06-08T08:30:43Z</time>
      </trkpt>
      <trkpt lat="42.63786" lon="1.71101">
        <ele>1923</ele>
        <time>2018-06-08T08:30:59Z</time>
      </trkpt>
      <trkpt lat="42.63781" lon="1.71113">
        <ele>1925</ele>
        <time>2018-06-08T08:31:14Z</time>
      </trkpt>
      <trkpt lat="42.63774" lon="1.71113">
        <ele>1926</ele>
        <time>2018-06-08T08:31:50Z</time>
      </trkpt>
      <trkpt lat="42.63768" lon="1.71126">
        <ele>1928</ele>
        <time>2018-06-08T08:32:11Z</time>
      </trkpt>
      <trkpt lat="42.63758" lon="1.71133">
        <ele>1930</ele>
        <time>2018-06-08T08:32:43Z</time>
      </trkpt>
      <trkpt lat="42.63753" lon="1.71143">
        <ele>1933</ele>
        <time>2018-06-08T08:33:04Z</time>
      </trkpt>
      <trkpt lat="42.6375" lon="1.71155">
        <ele>1938</ele>
        <time>2018-06-08T08:33:28Z</time>
      </trkpt>
      <trkpt lat="42.63746" lon="1.71169">
        <ele>1949</ele>
        <time>2018-06-08T08:33:50Z</time>
      </trkpt>
      <trkpt lat="42.63741" lon="1.71177">
        <ele>1954</ele>
        <time>2018-06-08T08:34:19Z</time>
      </trkpt>
      <trkpt lat="42.63726" lon="1.71184">
        <ele>1959</ele>
        <time>2018-06-08T08:34:48Z</time>
      </trkpt>
      <trkpt lat="42.63722" lon="1.71192">
        <ele>1961</ele>
        <time>2018-06-08T08:35:09Z</time>
      </trkpt>
      <trkpt lat="42.63716" lon="1.71199">
        <ele>1963</ele>
        <time>2018-06-08T08:35:26Z</time>
      </trkpt>
      <trkpt lat="42.63709" lon="1.71202">
        <ele>1964</ele>
        <time>2018-06-08T08:35:44Z</time>
      </trkpt>
      <trkpt lat="42.63702" lon="1.71211">
        <ele>1967</ele>
        <time>2018-06-08T08:36:24Z</time>
      </trkpt>
      <trkpt lat="42.63693" lon="1.71211">
        <ele>1968</ele>
        <time>2018-06-08T08:36:45Z</time>
      </trkpt>
      <trkpt lat="42.63683" lon="1.71215">
        <ele>1970</ele>
        <time>2018-06-08T08:37:07Z</time>
      </trkpt>
      <trkpt lat="42.63671" lon="1.71219">
        <ele>1973</ele>
        <time>2018-06-08T08:37:40Z</time>
      </trkpt>
      <trkpt lat="42.63663" lon="1.71232">
        <ele>1986</ele>
        <time>2018-06-08T08:38:16Z</time>
      </trkpt>
      <trkpt lat="42.63653" lon="1.71237">
        <ele>1986</ele>
        <time>2018-06-08T08:38:45Z</time>
      </trkpt>
      <trkpt lat="42.63644" lon="1.71243">
        <ele>1986</ele>
        <time>2018-06-08T08:39:06Z</time>
      </trkpt>
      <trkpt lat="42.63643" lon="1.71257">
        <ele>2001</ele>
        <time>2018-06-08T08:39:33Z</time>
      </trkpt>
      <trkpt lat="42.63635" lon="1.71268">
        <ele>2003</ele>
        <time>2018-06-08T08:41:20Z</time>
      </trkpt>
      <trkpt lat="42.63629" lon="1.71275">
        <ele>2005</ele>
        <time>2018-06-08T08:41:42Z</time>
      </trkpt>
      <trkpt lat="42.63622" lon="1.71282">
        <ele>2006</ele>
        <time>2018-06-08T08:42:02Z</time>
      </trkpt>
      <trkpt lat="42.63619" lon="1.71296">
        <ele>2008</ele>
        <time>2018-06-08T08:42:28Z</time>
      </trkpt>
      <trkpt lat="42.63618" lon="1.71312">
        <ele>2010</ele>
        <time>2018-06-08T08:42:56Z</time>
      </trkpt>
      <trkpt lat="42.63615" lon="1.71322">
        <ele>2012</ele>
        <time>2018-06-08T08:43:22Z</time>
      </trkpt>
      <trkpt lat="42.63613" lon="1.71335">
        <ele>2023</ele>
        <time>2018-06-08T08:43:43Z</time>
      </trkpt>
      <trkpt lat="42.63606" lon="1.71343">
        <ele>2024</ele>
        <time>2018-06-08T08:44:14Z</time>
      </trkpt>
      <trkpt lat="42.63597" lon="1.71353">
        <ele>2025</ele>
        <time>2018-06-08T08:44:45Z</time>
      </trkpt>
      <trkpt lat="42.63588" lon="1.7136">
        <ele>2026</ele>
        <time>2018-06-08T08:45:11Z</time>
      </trkpt>
      <trkpt lat="42.63582" lon="1.71373">
        <ele>2035</ele>
        <time>2018-06-08T08:45:37Z</time>
      </trkpt>
      <trkpt lat="42.63577" lon="1.71385">
        <ele>2038</ele>
        <time>2018-06-08T08:46:02Z</time>
      </trkpt>
      <trkpt lat="42.63572" lon="1.71397">
        <ele>2040</ele>
        <time>2018-06-08T08:46:29Z</time>
      </trkpt>
      <trkpt lat="42.63567" lon="1.71408">
        <ele>2041</ele>
        <time>2018-06-08T08:46:45Z</time>
      </trkpt>
      <trkpt lat="42.63559" lon="1.71417">
        <ele>2050</ele>
        <time>2018-06-08T08:47:04Z</time>
      </trkpt>
      <trkpt lat="42.6355" lon="1.71424">
        <ele>2051</ele>
        <time>2018-06-08T08:47:28Z</time>
      </trkpt>
      <trkpt lat="42.63541" lon="1.71424">
        <ele>2052</ele>
        <time>2018-06-08T08:48:21Z</time>
      </trkpt>
      <trkpt lat="42.63527" lon="1.71434">
        <ele>2053</ele>
        <time>2018-06-08T08:49:00Z</time>
      </trkpt>
      <trkpt lat="42.63517" lon="1.71442">
        <ele>2054</ele>
        <time>2018-06-08T08:49:26Z</time>
      </trkpt>
      <trkpt lat="42.63509" lon="1.71449">
        <ele>2055</ele>
        <time>2018-06-08T08:50:03Z</time>
      </trkpt>
      <trkpt lat="42.63498" lon="1.71451">
        <ele>2064</ele>
        <time>2018-06-08T08:50:39Z</time>
      </trkpt>
      <trkpt lat="42.6349" lon="1.71461">
        <ele>2066</ele>
        <time>2018-06-08T08:51:08Z</time>
      </trkpt>
      <trkpt lat="42.63482" lon="1.7146">
        <ele>2066</ele>
        <time>2018-06-08T08:51:38Z</time>
      </trkpt>
      <trkpt lat="42.63469" lon="1.71463">
        <ele>2067</ele>
        <time>2018-06-08T08:51:58Z</time>
      </trkpt>
      <trkpt lat="42.63459" lon="1.71466">
        <ele>2068</ele>
        <time>2018-06-08T08:52:14Z</time>
      </trkpt>
      <trkpt lat="42.63448" lon="1.71468">
        <ele>2069</ele>
        <time>2018-06-08T08:52:28Z</time>
      </trkpt>
      <trkpt lat="42.63441" lon="1.71472">
        <ele>2070</ele>
        <time>2018-06-08T08:52:42Z</time>
      </trkpt>
      <trkpt lat="42.63435" lon="1.71479">
        <ele>2071</ele>
        <time>2018-06-08T08:52:58Z</time>
      </trkpt>
      <trkpt lat="42.63423" lon="1.71486">
        <ele>2073</ele>
        <time>2018-06-08T08:53:15Z</time>
      </trkpt>
      <trkpt lat="42.63412" lon="1.71493">
        <ele>2079</ele>
        <time>2018-06-08T08:53:51Z</time>
      </trkpt>
      <trkpt lat="42.63406" lon="1.71495">
        <ele>2079</ele>
        <time>2018-06-08T08:54:22Z</time>
      </trkpt>
      <trkpt lat="42.63395" lon="1.71485">
        <ele>2081</ele>
        <time>2018-06-08T08:54:36Z</time>
      </trkpt>
      <trkpt lat="42.63386" lon="1.71477">
        <ele>2082</ele>
        <time>2018-06-08T08:54:50Z</time>
      </trkpt>
      <trkpt lat="42.63376" lon="1.71474">
        <ele>2083</ele>
        <time>2018-06-08T08:55:02Z</time>
      </trkpt>
      <trkpt lat="42.63363" lon="1.71475">
        <ele>2085</ele>
        <time>2018-06-08T08:55:20Z</time>
      </trkpt>
      <trkpt lat="42.6335" lon="1.71486">
        <ele>2086</ele>
        <time>2018-06-08T08:55:46Z</time>
      </trkpt>
      <trkpt lat="42.63341" lon="1.71492">
        <ele>2088</ele>
        <time>2018-06-08T08:56:08Z</time>
      </trkpt>
      <trkpt lat="42.63334" lon="1.71498">
        <ele>2090</ele>
        <time>2018-06-08T08:56:29Z</time>
      </trkpt>
      <trkpt lat="42.63329" lon="1.7149">
        <ele>2098</ele>
        <time>2018-06-08T08:56:51Z</time>
      </trkpt>
      <trkpt lat="42.63327" lon="1.71483">
        <ele>2102</ele>
        <time>2018-06-08T08:57:14Z</time>
      </trkpt>
      <trkpt lat="42.63318" lon="1.71489">
        <ele>2102</ele>
        <time>2018-06-08T08:57:46Z</time>
      </trkpt>
      <trkpt lat="42.6331" lon="1.71494">
        <ele>2105</ele>
        <time>2018-06-08T08:58:13Z</time>
      </trkpt>
      <trkpt lat="42.63301" lon="1.71496">
        <ele>2108</ele>
        <time>2018-06-08T08:58:29Z</time>
      </trkpt>
      <trkpt lat="42.63293" lon="1.71501">
        <ele>2096</ele>
        <time>2018-06-08T08:59:06Z</time>
      </trkpt>
      <trkpt lat="42.63282" lon="1.71499">
        <ele>2114</ele>
        <time>2018-06-08T08:59:24Z</time>
      </trkpt>
      <trkpt lat="42.63271" lon="1.71497">
        <ele>2116</ele>
        <time>2018-06-08T08:59:47Z</time>
      </trkpt>
      <trkpt lat="42.63256" lon="1.71497">
        <ele>2119</ele>
        <time>2018-06-08T09:00:06Z</time>
      </trkpt>
      <trkpt lat="42.63248" lon="1.71494">
        <ele>2124</ele>
        <time>2018-06-08T09:00:21Z</time>
      </trkpt>
      <trkpt lat="42.63238" lon="1.71491">
        <ele>2126</ele>
        <time>2018-06-08T09:00:41Z</time>
      </trkpt>
      <trkpt lat="42.63228" lon="1.71484">
        <ele>2129</ele>
        <time>2018-06-08T09:00:55Z</time>
      </trkpt>
      <trkpt lat="42.63218" lon="1.71478">
        <ele>2130</ele>
        <time>2018-06-08T09:01:09Z</time>
      </trkpt>
      <trkpt lat="42.63209" lon="1.71473">
        <ele>2131</ele>
        <time>2018-06-08T09:01:21Z</time>
      </trkpt>
      <trkpt lat="42.632" lon="1.71465">
        <ele>2132</ele>
        <time>2018-06-08T09:01:35Z</time>
      </trkpt>
      <trkpt lat="42.63192" lon="1.71457">
        <ele>2133</ele>
        <time>2018-06-08T09:01:50Z</time>
      </trkpt>
      <trkpt lat="42.63185" lon="1.7145">
        <ele>2134</ele>
        <time>2018-06-08T09:02:05Z</time>
      </trkpt>
      <trkpt lat="42.63179" lon="1.71441">
        <ele>2136</ele>
        <time>2018-06-08T09:02:19Z</time>
      </trkpt>
      <trkpt lat="42.63171" lon="1.71434">
        <ele>2138</ele>
        <time>2018-06-08T09:02:32Z</time>
      </trkpt>
      <trkpt lat="42.63163" lon="1.71425">
        <ele>2139</ele>
        <time>2018-06-08T09:02:45Z</time>
      </trkpt>
      <trkpt lat="42.63155" lon="1.71416">
        <ele>2144</ele>
        <time>2018-06-08T09:02:58Z</time>
      </trkpt>
      <trkpt lat="42.63148" lon="1.71407">
        <ele>2145</ele>
        <time>2018-06-08T09:03:11Z</time>
      </trkpt>
      <trkpt lat="42.63142" lon="1.71396">
        <ele>2146</ele>
        <time>2018-06-08T09:03:24Z</time>
      </trkpt>
      <trkpt lat="42.63134" lon="1.7139">
        <ele>2146</ele>
        <time>2018-06-08T09:03:36Z</time>
      </trkpt>
      <trkpt lat="42.63126" lon="1.71384">
        <ele>2146</ele>
        <time>2018-06-08T09:03:46Z</time>
      </trkpt>
      <trkpt lat="42.63119" lon="1.71374">
        <ele>2147</ele>
        <time>2018-06-08T09:03:58Z</time>
      </trkpt>
      <trkpt lat="42.6311" lon="1.71366">
        <ele>2147</ele>
        <time>2018-06-08T09:04:10Z</time>
      </trkpt>
      <trkpt lat="42.63103" lon="1.71361">
        <ele>2147</ele>
        <time>2018-06-08T09:04:20Z</time>
      </trkpt>
      <trkpt lat="42.63097" lon="1.71354">
        <ele>2147</ele>
        <time>2018-06-08T09:04:31Z</time>
      </trkpt>
      <trkpt lat="42.63087" lon="1.71347">
        <ele>2147</ele>
        <time>2018-06-08T09:04:42Z</time>
      </trkpt>
      <trkpt lat="42.63079" lon="1.71339">
        <ele>2146</ele>
        <time>2018-06-08T09:04:53Z</time>
      </trkpt>
      <trkpt lat="42.63071" lon="1.71333">
        <ele>2147</ele>
        <time>2018-06-08T09:05:17Z</time>
      </trkpt>
      <trkpt lat="42.63066" lon="1.71321">
        <ele>2147</ele>
        <time>2018-06-08T09:05:42Z</time>
      </trkpt>
      <trkpt lat="42.63063" lon="1.71307">
        <ele>2147</ele>
        <time>2018-06-08T09:05:53Z</time>
      </trkpt>
      <trkpt lat="42.6306" lon="1.71294">
        <ele>2147</ele>
        <time>2018-06-08T09:06:03Z</time>
      </trkpt>
      <trkpt lat="42.63056" lon="1.71282">
        <ele>2148</ele>
        <time>2018-06-08T09:06:13Z</time>
      </trkpt>
      <trkpt lat="42.63056" lon="1.7127">
        <ele>2148</ele>
        <time>2018-06-08T09:06:24Z</time>
      </trkpt>
      <trkpt lat="42.63055" lon="1.71259">
        <ele>2149</ele>
        <time>2018-06-08T09:06:35Z</time>
      </trkpt>
      <trkpt lat="42.63049" lon="1.71252">
        <ele>2148</ele>
        <time>2018-06-08T09:06:45Z</time>
      </trkpt>
      <trkpt lat="42.63044" lon="1.71242">
        <ele>2150</ele>
        <time>2018-06-08T09:06:56Z</time>
      </trkpt>
      <trkpt lat="42.6304" lon="1.71232">
        <ele>2149</ele>
        <time>2018-06-08T09:07:09Z</time>
      </trkpt>
      <trkpt lat="42.63037" lon="1.71221">
        <ele>2149</ele>
        <time>2018-06-08T09:07:28Z</time>
      </trkpt>
      <trkpt lat="42.63031" lon="1.71212">
        <ele>2149</ele>
        <time>2018-06-08T09:07:43Z</time>
      </trkpt>
      <trkpt lat="42.6303" lon="1.712">
        <ele>2149</ele>
        <time>2018-06-08T09:07:53Z</time>
      </trkpt>
      <trkpt lat="42.63027" lon="1.71187">
        <ele>2149</ele>
        <time>2018-06-08T09:08:05Z</time>
      </trkpt>
      <trkpt lat="42.63025" lon="1.71176">
        <ele>2149</ele>
        <time>2018-06-08T09:08:18Z</time>
      </trkpt>
      <trkpt lat="42.63036" lon="1.71134">
        <ele>2151</ele>
        <time>2018-06-08T09:38:05Z</time>
      </trkpt>
      <trkpt lat="42.63034" lon="1.71119">
        <ele>2151</ele>
        <time>2018-06-08T09:38:18Z</time>
      </trkpt>
      <trkpt lat="42.63036" lon="1.71106">
        <ele>2151</ele>
        <time>2018-06-08T09:38:29Z</time>
      </trkpt>
      <trkpt lat="42.63036" lon="1.71094">
        <ele>2151</ele>
        <time>2018-06-08T09:38:41Z</time>
      </trkpt>
      <trkpt lat="42.6304" lon="1.71083">
        <ele>2152</ele>
        <time>2018-06-08T09:38:51Z</time>
      </trkpt>
      <trkpt lat="42.63043" lon="1.7106">
        <ele>2153</ele>
        <time>2018-06-08T09:41:15Z</time>
      </trkpt>
      <trkpt lat="42.63046" lon="1.7105">
        <ele>2153</ele>
        <time>2018-06-08T09:41:26Z</time>
      </trkpt>
      <trkpt lat="42.63045" lon="1.71037">
        <ele>2153</ele>
        <time>2018-06-08T09:41:36Z</time>
      </trkpt>
      <trkpt lat="42.63052" lon="1.71027">
        <ele>2154</ele>
        <time>2018-06-08T09:41:48Z</time>
      </trkpt>
      <trkpt lat="42.63052" lon="1.71012">
        <ele>2154</ele>
        <time>2018-06-08T09:42:00Z</time>
      </trkpt>
      <trkpt lat="42.63046" lon="1.71001">
        <ele>2154</ele>
        <time>2018-06-08T09:42:10Z</time>
      </trkpt>
      <trkpt lat="42.63041" lon="1.70989">
        <ele>2155</ele>
        <time>2018-06-08T09:42:20Z</time>
      </trkpt>
      <trkpt lat="42.63035" lon="1.70978">
        <ele>2154</ele>
        <time>2018-06-08T09:42:31Z</time>
      </trkpt>
      <trkpt lat="42.63029" lon="1.70966">
        <ele>2154</ele>
        <time>2018-06-08T09:42:41Z</time>
      </trkpt>
      <trkpt lat="42.63023" lon="1.70956">
        <ele>2154</ele>
        <time>2018-06-08T09:42:50Z</time>
      </trkpt>
      <trkpt lat="42.63015" lon="1.70945">
        <ele>2154</ele>
        <time>2018-06-08T09:43:00Z</time>
      </trkpt>
      <trkpt lat="42.63007" lon="1.70939">
        <ele>2154</ele>
        <time>2018-06-08T09:43:09Z</time>
      </trkpt>
      <trkpt lat="42.62999" lon="1.70935">
        <ele>2150</ele>
        <time>2018-06-08T09:43:19Z</time>
      </trkpt>
      <trkpt lat="42.62989" lon="1.70934">
        <ele>2150</ele>
        <time>2018-06-08T09:43:28Z</time>
      </trkpt>
      <trkpt lat="42.6298" lon="1.7093">
        <ele>2149</ele>
        <time>2018-06-08T09:43:37Z</time>
      </trkpt>
      <trkpt lat="42.62971" lon="1.70924">
        <ele>2149</ele>
        <time>2018-06-08T09:43:46Z</time>
      </trkpt>
      <trkpt lat="42.62961" lon="1.70921">
        <ele>2149</ele>
        <time>2018-06-08T09:43:56Z</time>
      </trkpt>
      <trkpt lat="42.62952" lon="1.7092">
        <ele>2149</ele>
        <time>2018-06-08T09:44:06Z</time>
      </trkpt>
      <trkpt lat="42.62943" lon="1.70915">
        <ele>2152</ele>
        <time>2018-06-08T09:44:17Z</time>
      </trkpt>
      <trkpt lat="42.62938" lon="1.70905">
        <ele>2152</ele>
        <time>2018-06-08T09:44:27Z</time>
      </trkpt>
      <trkpt lat="42.62932" lon="1.70895">
        <ele>2153</ele>
        <time>2018-06-08T09:44:51Z</time>
      </trkpt>
      <trkpt lat="42.6293" lon="1.70884">
        <ele>2153</ele>
        <time>2018-06-08T09:45:00Z</time>
      </trkpt>
      <trkpt lat="42.62925" lon="1.70873">
        <ele>2154</ele>
        <time>2018-06-08T09:45:09Z</time>
      </trkpt>
      <trkpt lat="42.62919" lon="1.70862">
        <ele>2155</ele>
        <time>2018-06-08T09:45:19Z</time>
      </trkpt>
      <trkpt lat="42.62915" lon="1.70851">
        <ele>2153</ele>
        <time>2018-06-08T09:45:31Z</time>
      </trkpt>
      <trkpt lat="42.62911" lon="1.70841">
        <ele>2154</ele>
        <time>2018-06-08T09:45:40Z</time>
      </trkpt>
      <trkpt lat="42.62908" lon="1.70829">
        <ele>2155</ele>
        <time>2018-06-08T09:45:51Z</time>
      </trkpt>
      <trkpt lat="42.62901" lon="1.70819">
        <ele>2155</ele>
        <time>2018-06-08T09:46:04Z</time>
      </trkpt>
      <trkpt lat="42.62894" lon="1.70811">
        <ele>2155</ele>
        <time>2018-06-08T09:46:16Z</time>
      </trkpt>
      <trkpt lat="42.62892" lon="1.70803">
        <ele>2156</ele>
        <time>2018-06-08T09:46:34Z</time>
      </trkpt>
      <trkpt lat="42.62887" lon="1.70802">
        <ele>2156</ele>
        <time>2018-06-08T09:47:11Z</time>
      </trkpt>
      <trkpt lat="42.62878" lon="1.70795">
        <ele>2155</ele>
        <time>2018-06-08T09:47:29Z</time>
      </trkpt>
      <trkpt lat="42.62872" lon="1.70788">
        <ele>2156</ele>
        <time>2018-06-08T09:47:40Z</time>
      </trkpt>
      <trkpt lat="42.62867" lon="1.708">
        <ele>2155</ele>
        <time>2018-06-08T09:47:59Z</time>
      </trkpt>
      <trkpt lat="42.62861" lon="1.70807">
        <ele>2155</ele>
        <time>2018-06-08T09:48:11Z</time>
      </trkpt>
      <trkpt lat="42.62854" lon="1.70815">
        <ele>2155</ele>
        <time>2018-06-08T09:48:24Z</time>
      </trkpt>
      <trkpt lat="42.62845" lon="1.70818">
        <ele>2154</ele>
        <time>2018-06-08T09:48:38Z</time>
      </trkpt>
      <trkpt lat="42.62836" lon="1.70824">
        <ele>2154</ele>
        <time>2018-06-08T09:48:52Z</time>
      </trkpt>
      <trkpt lat="42.62827" lon="1.70828">
        <ele>2153</ele>
        <time>2018-06-08T09:49:05Z</time>
      </trkpt>
      <trkpt lat="42.6282" lon="1.70836">
        <ele>2152</ele>
        <time>2018-06-08T09:49:17Z</time>
      </trkpt>
      <trkpt lat="42.62811" lon="1.7084">
        <ele>2152</ele>
        <time>2018-06-08T09:49:32Z</time>
      </trkpt>
      <trkpt lat="42.62803" lon="1.70841">
        <ele>2151</ele>
        <time>2018-06-08T09:50:00Z</time>
      </trkpt>
      <trkpt lat="42.62794" lon="1.70847">
        <ele>2151</ele>
        <time>2018-06-08T09:50:10Z</time>
      </trkpt>
      <trkpt lat="42.62785" lon="1.70849">
        <ele>2151</ele>
        <time>2018-06-08T09:50:19Z</time>
      </trkpt>
      <trkpt lat="42.62776" lon="1.7085">
        <ele>2151</ele>
        <time>2018-06-08T09:50:29Z</time>
      </trkpt>
      <trkpt lat="42.62766" lon="1.7085">
        <ele>2151</ele>
        <time>2018-06-08T09:50:40Z</time>
      </trkpt>
      <trkpt lat="42.62756" lon="1.70852">
        <ele>2151</ele>
        <time>2018-06-08T09:50:52Z</time>
      </trkpt>
      <trkpt lat="42.62746" lon="1.7085">
        <ele>2151</ele>
        <time>2018-06-08T09:51:03Z</time>
      </trkpt>
      <trkpt lat="42.62737" lon="1.70845">
        <ele>2151</ele>
        <time>2018-06-08T09:51:13Z</time>
      </trkpt>
      <trkpt lat="42.62728" lon="1.70841">
        <ele>2151</ele>
        <time>2018-06-08T09:51:25Z</time>
      </trkpt>
      <trkpt lat="42.62718" lon="1.7084">
        <ele>2150</ele>
        <time>2018-06-08T09:51:38Z</time>
      </trkpt>
      <trkpt lat="42.62709" lon="1.70836">
        <ele>2150</ele>
        <time>2018-06-08T09:51:53Z</time>
      </trkpt>
      <trkpt lat="42.62705" lon="1.70825">
        <ele>2153</ele>
        <time>2018-06-08T09:52:05Z</time>
      </trkpt>
      <trkpt lat="42.62697" lon="1.7082">
        <ele>2153</ele>
        <time>2018-06-08T09:52:26Z</time>
      </trkpt>
      <trkpt lat="42.62687" lon="1.70821">
        <ele>2153</ele>
        <time>2018-06-08T09:52:39Z</time>
      </trkpt>
      <trkpt lat="42.62677" lon="1.70817">
        <ele>2153</ele>
        <time>2018-06-08T09:52:52Z</time>
      </trkpt>
      <trkpt lat="42.62668" lon="1.70814">
        <ele>2153</ele>
        <time>2018-06-08T09:53:02Z</time>
      </trkpt>
      <trkpt lat="42.62661" lon="1.70804">
        <ele>2151</ele>
        <time>2018-06-08T09:53:13Z</time>
      </trkpt>
      <trkpt lat="42.6265" lon="1.70799">
        <ele>2151</ele>
        <time>2018-06-08T09:53:24Z</time>
      </trkpt>
      <trkpt lat="42.62642" lon="1.70788">
        <ele>2152</ele>
        <time>2018-06-08T09:53:35Z</time>
      </trkpt>
      <trkpt lat="42.62637" lon="1.70778">
        <ele>2152</ele>
        <time>2018-06-08T09:53:45Z</time>
      </trkpt>
      <trkpt lat="42.62628" lon="1.70771">
        <ele>2152</ele>
        <time>2018-06-08T09:53:55Z</time>
      </trkpt>
      <trkpt lat="42.6262" lon="1.70767">
        <ele>2151</ele>
        <time>2018-06-08T09:54:06Z</time>
      </trkpt>
      <trkpt lat="42.6261" lon="1.70765">
        <ele>2151</ele>
        <time>2018-06-08T09:54:18Z</time>
      </trkpt>
      <trkpt lat="42.62602" lon="1.70763">
        <ele>2151</ele>
        <time>2018-06-08T09:54:29Z</time>
      </trkpt>
      <trkpt lat="42.62592" lon="1.70765">
        <ele>2151</ele>
        <time>2018-06-08T09:54:42Z</time>
      </trkpt>
      <trkpt lat="42.62582" lon="1.70768">
        <ele>2151</ele>
        <time>2018-06-08T09:54:58Z</time>
      </trkpt>
      <trkpt lat="42.62572" lon="1.70769">
        <ele>2151</ele>
        <time>2018-06-08T09:55:09Z</time>
      </trkpt>
      <trkpt lat="42.62562" lon="1.70771">
        <ele>2151</ele>
        <time>2018-06-08T09:55:21Z</time>
      </trkpt>
      <trkpt lat="42.62553" lon="1.70775">
        <ele>2151</ele>
        <time>2018-06-08T09:55:39Z</time>
      </trkpt>
      <trkpt lat="42.62543" lon="1.70772">
        <ele>2152</ele>
        <time>2018-06-08T09:55:53Z</time>
      </trkpt>
      <trkpt lat="42.62534" lon="1.70776">
        <ele>2152</ele>
        <time>2018-06-08T09:56:06Z</time>
      </trkpt>
      <trkpt lat="42.62523" lon="1.70773">
        <ele>2152</ele>
        <time>2018-06-08T09:56:19Z</time>
      </trkpt>
      <trkpt lat="42.62514" lon="1.70774">
        <ele>2153</ele>
        <time>2018-06-08T09:56:33Z</time>
      </trkpt>
      <trkpt lat="42.62503" lon="1.70778">
        <ele>2153</ele>
        <time>2018-06-08T09:56:46Z</time>
      </trkpt>
      <trkpt lat="42.62496" lon="1.70774">
        <ele>2159</ele>
        <time>2018-06-08T09:57:00Z</time>
      </trkpt>
      <trkpt lat="42.62486" lon="1.70778">
        <ele>2160</ele>
        <time>2018-06-08T09:57:15Z</time>
      </trkpt>
      <trkpt lat="42.62476" lon="1.70775">
        <ele>2161</ele>
        <time>2018-06-08T09:57:32Z</time>
      </trkpt>
      <trkpt lat="42.62463" lon="1.70773">
        <ele>2163</ele>
        <time>2018-06-08T09:57:49Z</time>
      </trkpt>
      <trkpt lat="42.62459" lon="1.70765">
        <ele>2163</ele>
        <time>2018-06-08T09:58:06Z</time>
      </trkpt>
      <trkpt lat="42.62447" lon="1.70764">
        <ele>2165</ele>
        <time>2018-06-08T09:58:26Z</time>
      </trkpt>
      <trkpt lat="42.62437" lon="1.70767">
        <ele>2167</ele>
        <time>2018-06-08T09:58:43Z</time>
      </trkpt>
      <trkpt lat="42.62431" lon="1.70776">
        <ele>2167</ele>
        <time>2018-06-08T09:59:06Z</time>
      </trkpt>
      <trkpt lat="42.62426" lon="1.70784">
        <ele>2167</ele>
        <time>2018-06-08T09:59:29Z</time>
      </trkpt>
      <trkpt lat="42.62416" lon="1.70785">
        <ele>2176</ele>
        <time>2018-06-08T09:59:50Z</time>
      </trkpt>
      <trkpt lat="42.62406" lon="1.70787">
        <ele>2177</ele>
        <time>2018-06-08T10:00:10Z</time>
      </trkpt>
      <trkpt lat="42.62396" lon="1.7079">
        <ele>2177</ele>
        <time>2018-06-08T10:00:30Z</time>
      </trkpt>
      <trkpt lat="42.62386" lon="1.7079">
        <ele>2178</ele>
        <time>2018-06-08T10:00:48Z</time>
      </trkpt>
      <trkpt lat="42.62376" lon="1.7079">
        <ele>2178</ele>
        <time>2018-06-08T10:01:23Z</time>
      </trkpt>
      <trkpt lat="42.62367" lon="1.70783">
        <ele>2179</ele>
        <time>2018-06-08T10:01:44Z</time>
      </trkpt>
      <trkpt lat="42.62357" lon="1.70785">
        <ele>2180</ele>
        <time>2018-06-08T10:02:08Z</time>
      </trkpt>
      <trkpt lat="42.62348" lon="1.70785">
        <ele>2180</ele>
        <time>2018-06-08T10:02:44Z</time>
      </trkpt>
      <trkpt lat="42.62347" lon="1.70773">
        <ele>2181</ele>
        <time>2018-06-08T10:03:24Z</time>
      </trkpt>
      <trkpt lat="42.62338" lon="1.70765">
        <ele>2182</ele>
        <time>2018-06-08T10:04:04Z</time>
      </trkpt>
      <trkpt lat="42.62329" lon="1.70756">
        <ele>2185</ele>
        <time>2018-06-08T10:04:26Z</time>
      </trkpt>
      <trkpt lat="42.62321" lon="1.7075">
        <ele>2186</ele>
        <time>2018-06-08T10:04:53Z</time>
      </trkpt>
      <trkpt lat="42.62314" lon="1.70743">
        <ele>2189</ele>
        <time>2018-06-08T10:05:43Z</time>
      </trkpt>
      <trkpt lat="42.62304" lon="1.70737">
        <ele>2190</ele>
        <time>2018-06-08T10:06:02Z</time>
      </trkpt>
      <trkpt lat="42.62294" lon="1.70737">
        <ele>2190</ele>
        <time>2018-06-08T10:06:21Z</time>
      </trkpt>
      <trkpt lat="42.62283" lon="1.70733">
        <ele>2191</ele>
        <time>2018-06-08T10:06:38Z</time>
      </trkpt>
      <trkpt lat="42.62274" lon="1.70727">
        <ele>2191</ele>
        <time>2018-06-08T10:06:53Z</time>
      </trkpt>
      <trkpt lat="42.62263" lon="1.70725">
        <ele>2191</ele>
        <time>2018-06-08T10:07:08Z</time>
      </trkpt>
      <trkpt lat="42.62254" lon="1.70716">
        <ele>2192</ele>
        <time>2018-06-08T10:07:28Z</time>
      </trkpt>
      <trkpt lat="42.62245" lon="1.7071">
        <ele>2196</ele>
        <time>2018-06-08T10:07:46Z</time>
      </trkpt>
      <trkpt lat="42.62241" lon="1.707">
        <ele>2197</ele>
        <time>2018-06-08T10:08:05Z</time>
      </trkpt>
      <trkpt lat="42.62231" lon="1.70698">
        <ele>2197</ele>
        <time>2018-06-08T10:08:25Z</time>
      </trkpt>
      <trkpt lat="42.62224" lon="1.70687">
        <ele>2197</ele>
        <time>2018-06-08T10:08:41Z</time>
      </trkpt>
      <trkpt lat="42.6222" lon="1.70682">
        <ele>2197</ele>
        <time>2018-06-08T10:09:10Z</time>
      </trkpt>
      <trkpt lat="42.62212" lon="1.70675">
        <ele>2198</ele>
        <time>2018-06-08T10:09:25Z</time>
      </trkpt>
      <trkpt lat="42.62205" lon="1.70667">
        <ele>2202</ele>
        <time>2018-06-08T10:09:42Z</time>
      </trkpt>
      <trkpt lat="42.62198" lon="1.70658">
        <ele>2202</ele>
        <time>2018-06-08T10:10:04Z</time>
      </trkpt>
      <trkpt lat="42.62191" lon="1.70647">
        <ele>2203</ele>
        <time>2018-06-08T10:10:23Z</time>
      </trkpt>
      <trkpt lat="42.62189" lon="1.70638">
        <ele>2203</ele>
        <time>2018-06-08T10:10:42Z</time>
      </trkpt>
      <trkpt lat="42.62179" lon="1.70631">
        <ele>2204</ele>
        <time>2018-06-08T10:11:12Z</time>
      </trkpt>
      <trkpt lat="42.62173" lon="1.70621">
        <ele>2205</ele>
        <time>2018-06-08T10:11:28Z</time>
      </trkpt>
      <trkpt lat="42.62166" lon="1.7061">
        <ele>2210</ele>
        <time>2018-06-08T10:11:47Z</time>
      </trkpt>
      <trkpt lat="42.62157" lon="1.70602">
        <ele>2210</ele>
        <time>2018-06-08T10:12:04Z</time>
      </trkpt>
      <trkpt lat="42.62152" lon="1.7059">
        <ele>2211</ele>
        <time>2018-06-08T10:12:24Z</time>
      </trkpt>
      <trkpt lat="42.62147" lon="1.70578">
        <ele>2219</ele>
        <time>2018-06-08T10:12:42Z</time>
      </trkpt>
      <trkpt lat="42.62141" lon="1.70567">
        <ele>2221</ele>
        <time>2018-06-08T10:12:58Z</time>
      </trkpt>
      <trkpt lat="42.6213" lon="1.70567">
        <ele>2222</ele>
        <time>2018-06-08T10:13:14Z</time>
      </trkpt>
      <trkpt lat="42.62122" lon="1.70577">
        <ele>2222</ele>
        <time>2018-06-08T10:13:32Z</time>
      </trkpt>
      <trkpt lat="42.62112" lon="1.70581">
        <ele>2222</ele>
        <time>2018-06-08T10:13:47Z</time>
      </trkpt>
      <trkpt lat="42.62105" lon="1.70588">
        <ele>2214</ele>
        <time>2018-06-08T10:14:00Z</time>
      </trkpt>
      <trkpt lat="42.62095" lon="1.70589">
        <ele>2215</ele>
        <time>2018-06-08T10:14:17Z</time>
      </trkpt>
      <trkpt lat="42.62084" lon="1.70589">
        <ele>2217</ele>
        <time>2018-06-08T10:14:35Z</time>
      </trkpt>
      <trkpt lat="42.62074" lon="1.70588">
        <ele>2222</ele>
        <time>2018-06-08T10:14:55Z</time>
      </trkpt>
      <trkpt lat="42.62062" lon="1.70589">
        <ele>2224</ele>
        <time>2018-06-08T10:15:13Z</time>
      </trkpt>
      <trkpt lat="42.62054" lon="1.70593">
        <ele>2226</ele>
        <time>2018-06-08T10:15:30Z</time>
      </trkpt>
      <trkpt lat="42.62045" lon="1.70586">
        <ele>2228</ele>
        <time>2018-06-08T10:15:52Z</time>
      </trkpt>
      <trkpt lat="42.62038" lon="1.70577">
        <ele>2239</ele>
        <time>2018-06-08T10:16:21Z</time>
      </trkpt>
      <trkpt lat="42.6203" lon="1.70569">
        <ele>2241</ele>
        <time>2018-06-08T10:16:50Z</time>
      </trkpt>
      <trkpt lat="42.62029" lon="1.7056">
        <ele>2242</ele>
        <time>2018-06-08T10:17:18Z</time>
      </trkpt>
      <trkpt lat="42.62025" lon="1.70551">
        <ele>2243</ele>
        <time>2018-06-08T10:17:45Z</time>
      </trkpt>
      <trkpt lat="42.6202" lon="1.70539">
        <ele>2245</ele>
        <time>2018-06-08T10:18:19Z</time>
      </trkpt>
      <trkpt lat="42.62014" lon="1.70531">
        <ele>2247</ele>
        <time>2018-06-08T10:18:37Z</time>
      </trkpt>
      <trkpt lat="42.62009" lon="1.70522">
        <ele>2250</ele>
        <time>2018-06-08T10:19:01Z</time>
      </trkpt>
      <trkpt lat="42.61999" lon="1.70516">
        <ele>2262</ele>
        <time>2018-06-08T10:19:24Z</time>
      </trkpt>
      <trkpt lat="42.6199" lon="1.70512">
        <ele>2262</ele>
        <time>2018-06-08T10:19:48Z</time>
      </trkpt>
      <trkpt lat="42.61983" lon="1.70508">
        <ele>2262</ele>
        <time>2018-06-08T10:20:08Z</time>
      </trkpt>
      <trkpt lat="42.61972" lon="1.70506">
        <ele>2263</ele>
        <time>2018-06-08T10:20:42Z</time>
      </trkpt>
      <trkpt lat="42.61963" lon="1.70505">
        <ele>2264</ele>
        <time>2018-06-08T10:20:53Z</time>
      </trkpt>
      <trkpt lat="42.61955" lon="1.70499">
        <ele>2267</ele>
        <time>2018-06-08T10:21:05Z</time>
      </trkpt>
      <trkpt lat="42.61946" lon="1.70497">
        <ele>2267</ele>
        <time>2018-06-08T10:21:17Z</time>
      </trkpt>
      <trkpt lat="42.61957" lon="1.70496">
        <ele>2267</ele>
        <time>2018-06-08T10:21:37Z</time>
      </trkpt>
      <trkpt lat="42.61959" lon="1.70496">
        <ele>2267</ele>
        <time>2018-06-08T10:22:34Z</time>
      </trkpt>
      <trkpt lat="42.61948" lon="1.70497">
        <ele>2267</ele>
        <time>2018-06-08T10:23:16Z</time>
      </trkpt>
      <trkpt lat="42.61948" lon="1.70494">
        <ele>2267</ele>
        <time>2018-06-08T10:23:47Z</time>
      </trkpt>
      <trkpt lat="42.61942" lon="1.70493">
        <ele>2267</ele>
        <time>2018-06-08T10:24:07Z</time>
      </trkpt>
      <trkpt lat="42.61933" lon="1.70492">
        <ele>2268</ele>
        <time>2018-06-08T10:24:25Z</time>
      </trkpt>
      <trkpt lat="42.61924" lon="1.70491">
        <ele>2268</ele>
        <time>2018-06-08T10:24:37Z</time>
      </trkpt>
      <trkpt lat="42.61915" lon="1.70492">
        <ele>2266</ele>
        <time>2018-06-08T10:24:51Z</time>
      </trkpt>
      <trkpt lat="42.61923" lon="1.70487">
        <ele>2268</ele>
        <time>2018-06-08T10:25:28Z</time>
      </trkpt>
      <trkpt lat="42.61929" lon="1.70491">
        <ele>2268</ele>
        <time>2018-06-08T10:25:50Z</time>
      </trkpt>
      <trkpt lat="42.61938" lon="1.70492">
        <ele>2268</ele>
        <time>2018-06-08T10:26:03Z</time>
      </trkpt>
      <trkpt lat="42.61945" lon="1.70503">
        <ele>2266</ele>
        <time>2018-06-08T10:26:18Z</time>
      </trkpt>
      <trkpt lat="42.61954" lon="1.70507">
        <ele>2265</ele>
        <time>2018-06-08T10:26:29Z</time>
      </trkpt>
      <trkpt lat="42.61965" lon="1.70509">
        <ele>2264</ele>
        <time>2018-06-08T10:26:42Z</time>
      </trkpt>
      <trkpt lat="42.61972" lon="1.7051">
        <ele>2263</ele>
        <time>2018-06-08T10:26:54Z</time>
      </trkpt>
      <trkpt lat="42.61978" lon="1.7051">
        <ele>2263</ele>
        <time>2018-06-08T10:27:07Z</time>
      </trkpt>
      <trkpt lat="42.61993" lon="1.70518">
        <ele>2262</ele>
        <time>2018-06-08T10:27:24Z</time>
      </trkpt>
      <trkpt lat="42.61992" lon="1.7052">
        <ele>2262</ele>
        <time>2018-06-08T10:30:16Z</time>
      </trkpt>
      <trkpt lat="42.61989" lon="1.70523">
        <ele>2262</ele>
        <time>2018-06-08T10:32:24Z</time>
      </trkpt>
      <trkpt lat="42.61997" lon="1.7053">
        <ele>2261</ele>
        <time>2018-06-08T10:33:15Z</time>
      </trkpt>
      <trkpt lat="42.62004" lon="1.70527">
        <ele>2249</ele>
        <time>2018-06-08T10:33:40Z</time>
      </trkpt>
      <trkpt lat="42.62012" lon="1.70532">
        <ele>2247</ele>
        <time>2018-06-08T10:33:54Z</time>
      </trkpt>
      <trkpt lat="42.62017" lon="1.70541">
        <ele>2245</ele>
        <time>2018-06-08T10:34:14Z</time>
      </trkpt>
      <trkpt lat="42.62013" lon="1.70542">
        <ele>2245</ele>
        <time>2018-06-08T10:38:05Z</time>
      </trkpt>
      <trkpt lat="42.62011" lon="1.70548">
        <ele>2245</ele>
        <time>2018-06-08T11:00:49Z</time>
      </trkpt>
      <trkpt lat="42.6201" lon="1.70549">
        <ele>2245</ele>
        <time>2018-06-08T11:04:26Z</time>
      </trkpt>
      <trkpt lat="42.62012" lon="1.70555">
        <ele>2244</ele>
        <time>2018-06-08T11:06:13Z</time>
      </trkpt>
      <trkpt lat="42.62017" lon="1.70547">
        <ele>2244</ele>
        <time>2018-06-08T11:08:10Z</time>
      </trkpt>
      <trkpt lat="42.62015" lon="1.70542">
        <ele>2245</ele>
        <time>2018-06-08T11:20:12Z</time>
      </trkpt>
      <trkpt lat="42.62012" lon="1.70546">
        <ele>2245</ele>
        <time>2018-06-08T11:23:27Z</time>
      </trkpt>
      <trkpt lat="42.62014" lon="1.70558">
        <ele>2244</ele>
        <time>2018-06-08T11:23:56Z</time>
      </trkpt>
      <trkpt lat="42.6201" lon="1.70571">
        <ele>2243</ele>
        <time>2018-06-08T11:24:08Z</time>
      </trkpt>
      <trkpt lat="42.62012" lon="1.70581">
        <ele>2243</ele>
        <time>2018-06-08T11:24:23Z</time>
      </trkpt>
      <trkpt lat="42.6201" lon="1.70591">
        <ele>2238</ele>
        <time>2018-06-08T11:25:06Z</time>
      </trkpt>
      <trkpt lat="42.62018" lon="1.70595">
        <ele>2235</ele>
        <time>2018-06-08T11:25:20Z</time>
      </trkpt>
      <trkpt lat="42.62027" lon="1.706">
        <ele>2232</ele>
        <time>2018-06-08T11:25:37Z</time>
      </trkpt>
      <trkpt lat="42.62021" lon="1.70608">
        <ele>2232</ele>
        <time>2018-06-08T11:25:51Z</time>
      </trkpt>
      <trkpt lat="42.62025" lon="1.70617">
        <ele>2231</ele>
        <time>2018-06-08T11:26:06Z</time>
      </trkpt>
      <trkpt lat="42.62035" lon="1.70621">
        <ele>2229</ele>
        <time>2018-06-08T11:26:20Z</time>
      </trkpt>
      <trkpt lat="42.62046" lon="1.70618">
        <ele>2227</ele>
        <time>2018-06-08T11:26:32Z</time>
      </trkpt>
      <trkpt lat="42.62046" lon="1.70632">
        <ele>2227</ele>
        <time>2018-06-08T11:26:46Z</time>
      </trkpt>
      <trkpt lat="42.62048" lon="1.70644">
        <ele>2226</ele>
        <time>2018-06-08T11:27:21Z</time>
      </trkpt>
      <trkpt lat="42.62057" lon="1.70652">
        <ele>2223</ele>
        <time>2018-06-08T11:27:33Z</time>
      </trkpt>
      <trkpt lat="42.62068" lon="1.70654">
        <ele>2221</ele>
        <time>2018-06-08T11:27:42Z</time>
      </trkpt>
      <trkpt lat="42.62078" lon="1.70658">
        <ele>2217</ele>
        <time>2018-06-08T11:27:51Z</time>
      </trkpt>
      <trkpt lat="42.62086" lon="1.70661">
        <ele>2212</ele>
        <time>2018-06-08T11:28:00Z</time>
      </trkpt>
      <trkpt lat="42.62095" lon="1.70665">
        <ele>2211</ele>
        <time>2018-06-08T11:28:09Z</time>
      </trkpt>
      <trkpt lat="42.62102" lon="1.70667">
        <ele>2211</ele>
        <time>2018-06-08T11:28:19Z</time>
      </trkpt>
      <trkpt lat="42.62111" lon="1.70668">
        <ele>2207</ele>
        <time>2018-06-08T11:28:28Z</time>
      </trkpt>
      <trkpt lat="42.62119" lon="1.7067">
        <ele>2206</ele>
        <time>2018-06-08T11:28:37Z</time>
      </trkpt>
      <trkpt lat="42.62127" lon="1.70674">
        <ele>2206</ele>
        <time>2018-06-08T11:28:47Z</time>
      </trkpt>
      <trkpt lat="42.62135" lon="1.70678">
        <ele>2205</ele>
        <time>2018-06-08T11:28:56Z</time>
      </trkpt>
      <trkpt lat="42.62143" lon="1.70684">
        <ele>2204</ele>
        <time>2018-06-08T11:29:08Z</time>
      </trkpt>
      <trkpt lat="42.62152" lon="1.70689">
        <ele>2204</ele>
        <time>2018-06-08T11:29:20Z</time>
      </trkpt>
      <trkpt lat="42.62161" lon="1.70695">
        <ele>2203</ele>
        <time>2018-06-08T11:29:29Z</time>
      </trkpt>
      <trkpt lat="42.62169" lon="1.70701">
        <ele>2198</ele>
        <time>2018-06-08T11:29:39Z</time>
      </trkpt>
      <trkpt lat="42.62178" lon="1.7071">
        <ele>2198</ele>
        <time>2018-06-08T11:29:52Z</time>
      </trkpt>
      <trkpt lat="42.62185" lon="1.70718">
        <ele>2198</ele>
        <time>2018-06-08T11:30:03Z</time>
      </trkpt>
      <trkpt lat="42.62192" lon="1.70726">
        <ele>2198</ele>
        <time>2018-06-08T11:30:13Z</time>
      </trkpt>
      <trkpt lat="42.622" lon="1.70734">
        <ele>2197</ele>
        <time>2018-06-08T11:30:24Z</time>
      </trkpt>
      <trkpt lat="42.6221" lon="1.70739">
        <ele>2197</ele>
        <time>2018-06-08T11:30:35Z</time>
      </trkpt>
      <trkpt lat="42.62219" lon="1.70743">
        <ele>2196</ele>
        <time>2018-06-08T11:30:49Z</time>
      </trkpt>
      <trkpt lat="42.62227" lon="1.70751">
        <ele>2194</ele>
        <time>2018-06-08T11:31:03Z</time>
      </trkpt>
      <trkpt lat="42.62237" lon="1.70756">
        <ele>2193</ele>
        <time>2018-06-08T11:31:17Z</time>
      </trkpt>
      <trkpt lat="42.62242" lon="1.70765">
        <ele>2193</ele>
        <time>2018-06-08T11:31:30Z</time>
      </trkpt>
      <trkpt lat="42.62245" lon="1.70781">
        <ele>2194</ele>
        <time>2018-06-08T11:31:42Z</time>
      </trkpt>
      <trkpt lat="42.6225" lon="1.70791">
        <ele>2194</ele>
        <time>2018-06-08T11:31:55Z</time>
      </trkpt>
      <trkpt lat="42.62257" lon="1.70796">
        <ele>2188</ele>
        <time>2018-06-08T11:32:07Z</time>
      </trkpt>
      <trkpt lat="42.62266" lon="1.70803">
        <ele>2188</ele>
        <time>2018-06-08T11:32:28Z</time>
      </trkpt>
      <trkpt lat="42.62264" lon="1.70815">
        <ele>2188</ele>
        <time>2018-06-08T11:33:11Z</time>
      </trkpt>
      <trkpt lat="42.62275" lon="1.70823">
        <ele>2188</ele>
        <time>2018-06-08T11:33:27Z</time>
      </trkpt>
      <trkpt lat="42.62284" lon="1.70811">
        <ele>2187</ele>
        <time>2018-06-08T11:33:47Z</time>
      </trkpt>
      <trkpt lat="42.62295" lon="1.70816">
        <ele>2186</ele>
        <time>2018-06-08T11:34:07Z</time>
      </trkpt>
      <trkpt lat="42.62303" lon="1.70819">
        <ele>2186</ele>
        <time>2018-06-08T11:34:24Z</time>
      </trkpt>
      <trkpt lat="42.62312" lon="1.70821">
        <ele>2185</ele>
        <time>2018-06-08T11:34:35Z</time>
      </trkpt>
      <trkpt lat="42.62322" lon="1.7082">
        <ele>2184</ele>
        <time>2018-06-08T11:34:47Z</time>
      </trkpt>
      <trkpt lat="42.62332" lon="1.70816">
        <ele>2184</ele>
        <time>2018-06-08T11:35:02Z</time>
      </trkpt>
      <trkpt lat="42.62337" lon="1.70822">
        <ele>2181</ele>
        <time>2018-06-08T11:35:30Z</time>
      </trkpt>
      <trkpt lat="42.62344" lon="1.70828">
        <ele>2180</ele>
        <time>2018-06-08T11:35:50Z</time>
      </trkpt>
      <trkpt lat="42.62354" lon="1.70832">
        <ele>2180</ele>
        <time>2018-06-08T11:36:02Z</time>
      </trkpt>
      <trkpt lat="42.62363" lon="1.70834">
        <ele>2180</ele>
        <time>2018-06-08T11:36:15Z</time>
      </trkpt>
      <trkpt lat="42.62372" lon="1.70833">
        <ele>2178</ele>
        <time>2018-06-08T11:36:25Z</time>
      </trkpt>
      <trkpt lat="42.62384" lon="1.70831">
        <ele>2177</ele>
        <time>2018-06-08T11:36:37Z</time>
      </trkpt>
      <trkpt lat="42.62392" lon="1.70825">
        <ele>2176</ele>
        <time>2018-06-08T11:36:51Z</time>
      </trkpt>
      <trkpt lat="42.62397" lon="1.70815">
        <ele>2176</ele>
        <time>2018-06-08T11:37:05Z</time>
      </trkpt>
      <trkpt lat="42.62406" lon="1.70807">
        <ele>2176</ele>
        <time>2018-06-08T11:37:17Z</time>
      </trkpt>
      <trkpt lat="42.62409" lon="1.70799">
        <ele>2176</ele>
        <time>2018-06-08T11:37:35Z</time>
      </trkpt>
      <trkpt lat="42.62418" lon="1.70791">
        <ele>2166</ele>
        <time>2018-06-08T11:37:48Z</time>
      </trkpt>
      <trkpt lat="42.62429" lon="1.70783">
        <ele>2166</ele>
        <time>2018-06-08T11:38:03Z</time>
      </trkpt>
      <trkpt lat="42.62433" lon="1.70773">
        <ele>2167</ele>
        <time>2018-06-08T11:38:28Z</time>
      </trkpt>
      <trkpt lat="42.62441" lon="1.70766">
        <ele>2166</ele>
        <time>2018-06-08T11:39:06Z</time>
      </trkpt>
      <trkpt lat="42.62451" lon="1.70764">
        <ele>2165</ele>
        <time>2018-06-08T11:39:21Z</time>
      </trkpt>
      <trkpt lat="42.6246" lon="1.70768">
        <ele>2163</ele>
        <time>2018-06-08T11:39:42Z</time>
      </trkpt>
      <trkpt lat="42.62467" lon="1.70774">
        <ele>2162</ele>
        <time>2018-06-08T11:39:55Z</time>
      </trkpt>
      <trkpt lat="42.62476" lon="1.70777">
        <ele>2161</ele>
        <time>2018-06-08T11:40:08Z</time>
      </trkpt>
      <trkpt lat="42.62486" lon="1.70777">
        <ele>2160</ele>
        <time>2018-06-08T11:40:21Z</time>
      </trkpt>
      <trkpt lat="42.62495" lon="1.70773">
        <ele>2159</ele>
        <time>2018-06-08T11:40:35Z</time>
      </trkpt>
      <trkpt lat="42.62503" lon="1.70777">
        <ele>2153</ele>
        <time>2018-06-08T11:40:47Z</time>
      </trkpt>
      <trkpt lat="42.62513" lon="1.70773">
        <ele>2153</ele>
        <time>2018-06-08T11:41:08Z</time>
      </trkpt>
      <trkpt lat="42.62523" lon="1.70772">
        <ele>2152</ele>
        <time>2018-06-08T11:41:22Z</time>
      </trkpt>
      <trkpt lat="42.6253" lon="1.70778">
        <ele>2152</ele>
        <time>2018-06-08T11:42:12Z</time>
      </trkpt>
      <trkpt lat="42.62541" lon="1.70771">
        <ele>2152</ele>
        <time>2018-06-08T11:42:23Z</time>
      </trkpt>
      <trkpt lat="42.6255" lon="1.70774">
        <ele>2151</ele>
        <time>2018-06-08T11:42:38Z</time>
      </trkpt>
      <trkpt lat="42.62561" lon="1.70773">
        <ele>2151</ele>
        <time>2018-06-08T11:42:51Z</time>
      </trkpt>
      <trkpt lat="42.6257" lon="1.70769">
        <ele>2151</ele>
        <time>2018-06-08T11:43:03Z</time>
      </trkpt>
      <trkpt lat="42.62579" lon="1.70766">
        <ele>2151</ele>
        <time>2018-06-08T11:43:14Z</time>
      </trkpt>
      <trkpt lat="42.62589" lon="1.70764">
        <ele>2151</ele>
        <time>2018-06-08T11:43:25Z</time>
      </trkpt>
      <trkpt lat="42.62597" lon="1.70763">
        <ele>2151</ele>
        <time>2018-06-08T11:43:38Z</time>
      </trkpt>
      <trkpt lat="42.62605" lon="1.70768">
        <ele>2151</ele>
        <time>2018-06-08T11:43:53Z</time>
      </trkpt>
      <trkpt lat="42.62613" lon="1.70771">
        <ele>2151</ele>
        <time>2018-06-08T11:44:06Z</time>
      </trkpt>
      <trkpt lat="42.62622" lon="1.70773">
        <ele>2151</ele>
        <time>2018-06-08T11:44:19Z</time>
      </trkpt>
      <trkpt lat="42.62631" lon="1.70773">
        <ele>2152</ele>
        <time>2018-06-08T11:44:32Z</time>
      </trkpt>
      <trkpt lat="42.62639" lon="1.70779">
        <ele>2152</ele>
        <time>2018-06-08T11:44:43Z</time>
      </trkpt>
      <trkpt lat="42.62644" lon="1.70791">
        <ele>2152</ele>
        <time>2018-06-08T11:44:53Z</time>
      </trkpt>
      <trkpt lat="42.62652" lon="1.70799">
        <ele>2151</ele>
        <time>2018-06-08T11:45:03Z</time>
      </trkpt>
      <trkpt lat="42.6266" lon="1.70804">
        <ele>2151</ele>
        <time>2018-06-08T11:45:13Z</time>
      </trkpt>
      <trkpt lat="42.62667" lon="1.70812">
        <ele>2153</ele>
        <time>2018-06-08T11:45:22Z</time>
      </trkpt>
      <trkpt lat="42.62674" lon="1.70818">
        <ele>2152</ele>
        <time>2018-06-08T11:45:31Z</time>
      </trkpt>
      <trkpt lat="42.62684" lon="1.70825">
        <ele>2153</ele>
        <time>2018-06-08T11:45:41Z</time>
      </trkpt>
      <trkpt lat="42.62689" lon="1.70836">
        <ele>2150</ele>
        <time>2018-06-08T11:45:51Z</time>
      </trkpt>
      <trkpt lat="42.62697" lon="1.70842">
        <ele>2150</ele>
        <time>2018-06-08T11:46:02Z</time>
      </trkpt>
      <trkpt lat="42.62703" lon="1.70852">
        <ele>2150</ele>
        <time>2018-06-08T11:46:12Z</time>
      </trkpt>
      <trkpt lat="42.62713" lon="1.7086">
        <ele>2150</ele>
        <time>2018-06-08T11:46:22Z</time>
      </trkpt>
      <trkpt lat="42.62718" lon="1.70865">
        <ele>2149</ele>
        <time>2018-06-08T11:46:32Z</time>
      </trkpt>
      <trkpt lat="42.6273" lon="1.70866">
        <ele>2150</ele>
        <time>2018-06-08T11:46:43Z</time>
      </trkpt>
      <trkpt lat="42.62741" lon="1.70869">
        <ele>2150</ele>
        <time>2018-06-08T11:46:53Z</time>
      </trkpt>
      <trkpt lat="42.62749" lon="1.70869">
        <ele>2150</ele>
        <time>2018-06-08T11:47:02Z</time>
      </trkpt>
      <trkpt lat="42.62758" lon="1.70868">
        <ele>2150</ele>
        <time>2018-06-08T11:47:12Z</time>
      </trkpt>
      <trkpt lat="42.62767" lon="1.70865">
        <ele>2151</ele>
        <time>2018-06-08T11:47:22Z</time>
      </trkpt>
      <trkpt lat="42.62776" lon="1.70864">
        <ele>2151</ele>
        <time>2018-06-08T11:47:32Z</time>
      </trkpt>
      <trkpt lat="42.62783" lon="1.7086">
        <ele>2151</ele>
        <time>2018-06-08T11:47:42Z</time>
      </trkpt>
      <trkpt lat="42.62794" lon="1.70862">
        <ele>2151</ele>
        <time>2018-06-08T11:47:52Z</time>
      </trkpt>
      <trkpt lat="42.62802" lon="1.70864">
        <ele>2151</ele>
        <time>2018-06-08T11:48:03Z</time>
      </trkpt>
      <trkpt lat="42.62811" lon="1.70862">
        <ele>2151</ele>
        <time>2018-06-08T11:48:29Z</time>
      </trkpt>
      <trkpt lat="42.62821" lon="1.70867">
        <ele>2151</ele>
        <time>2018-06-08T11:48:39Z</time>
      </trkpt>
      <trkpt lat="42.62831" lon="1.70871">
        <ele>2151</ele>
        <time>2018-06-08T11:48:49Z</time>
      </trkpt>
      <trkpt lat="42.6284" lon="1.70873">
        <ele>2151</ele>
        <time>2018-06-08T11:48:58Z</time>
      </trkpt>
      <trkpt lat="42.62849" lon="1.70869">
        <ele>2151</ele>
        <time>2018-06-08T11:49:09Z</time>
      </trkpt>
      <trkpt lat="42.62856" lon="1.70867">
        <ele>2151</ele>
        <time>2018-06-08T11:49:46Z</time>
      </trkpt>
      <trkpt lat="42.62865" lon="1.70861">
        <ele>2152</ele>
        <time>2018-06-08T11:49:57Z</time>
      </trkpt>
      <trkpt lat="42.62874" lon="1.70856">
        <ele>2152</ele>
        <time>2018-06-08T11:50:08Z</time>
      </trkpt>
      <trkpt lat="42.62884" lon="1.70859">
        <ele>2152</ele>
        <time>2018-06-08T11:50:22Z</time>
      </trkpt>
      <trkpt lat="42.62892" lon="1.70864">
        <ele>2152</ele>
        <time>2018-06-08T11:50:33Z</time>
      </trkpt>
      <trkpt lat="42.629" lon="1.70864">
        <ele>2152</ele>
        <time>2018-06-08T11:50:44Z</time>
      </trkpt>
      <trkpt lat="42.62908" lon="1.70871">
        <ele>2152</ele>
        <time>2018-06-08T11:50:56Z</time>
      </trkpt>
      <trkpt lat="42.62912" lon="1.70882">
        <ele>2151</ele>
        <time>2018-06-08T11:51:08Z</time>
      </trkpt>
      <trkpt lat="42.62917" lon="1.70892">
        <ele>2152</ele>
        <time>2018-06-08T11:51:21Z</time>
      </trkpt>
      <trkpt lat="42.62922" lon="1.70902">
        <ele>2151</ele>
        <time>2018-06-08T11:51:34Z</time>
      </trkpt>
      <trkpt lat="42.62933" lon="1.70904">
        <ele>2152</ele>
        <time>2018-06-08T11:51:47Z</time>
      </trkpt>
      <trkpt lat="42.62942" lon="1.70912">
        <ele>2152</ele>
        <time>2018-06-08T11:51:58Z</time>
      </trkpt>
      <trkpt lat="42.62948" lon="1.70921">
        <ele>2148</ele>
        <time>2018-06-08T11:52:08Z</time>
      </trkpt>
      <trkpt lat="42.62958" lon="1.70923">
        <ele>2149</ele>
        <time>2018-06-08T11:52:19Z</time>
      </trkpt>
      <trkpt lat="42.62967" lon="1.70924">
        <ele>2149</ele>
        <time>2018-06-08T11:52:32Z</time>
      </trkpt>
      <trkpt lat="42.62977" lon="1.70929">
        <ele>2149</ele>
        <time>2018-06-08T11:52:45Z</time>
      </trkpt>
      <trkpt lat="42.62988" lon="1.70934">
        <ele>2150</ele>
        <time>2018-06-08T11:53:16Z</time>
      </trkpt>
      <trkpt lat="42.62996" lon="1.70941">
        <ele>2149</ele>
        <time>2018-06-08T11:53:25Z</time>
      </trkpt>
      <trkpt lat="42.63005" lon="1.70943">
        <ele>2154</ele>
        <time>2018-06-08T11:53:34Z</time>
      </trkpt>
      <trkpt lat="42.63013" lon="1.70947">
        <ele>2154</ele>
        <time>2018-06-08T11:53:43Z</time>
      </trkpt>
      <trkpt lat="42.63021" lon="1.70953">
        <ele>2154</ele>
        <time>2018-06-08T11:53:53Z</time>
      </trkpt>
      <trkpt lat="42.63026" lon="1.70963">
        <ele>2154</ele>
        <time>2018-06-08T11:54:04Z</time>
      </trkpt>
      <trkpt lat="42.63033" lon="1.70974">
        <ele>2154</ele>
        <time>2018-06-08T11:54:14Z</time>
      </trkpt>
      <trkpt lat="42.63038" lon="1.70986">
        <ele>2155</ele>
        <time>2018-06-08T11:54:25Z</time>
      </trkpt>
      <trkpt lat="42.63044" lon="1.70998">
        <ele>2155</ele>
        <time>2018-06-08T11:54:35Z</time>
      </trkpt>
      <trkpt lat="42.63049" lon="1.71009">
        <ele>2154</ele>
        <time>2018-06-08T11:54:46Z</time>
      </trkpt>
      <trkpt lat="42.63052" lon="1.71022">
        <ele>2154</ele>
        <time>2018-06-08T11:54:58Z</time>
      </trkpt>
      <trkpt lat="42.63051" lon="1.71035">
        <ele>2154</ele>
        <time>2018-06-08T11:55:11Z</time>
      </trkpt>
      <trkpt lat="42.63047" lon="1.71046">
        <ele>2153</ele>
        <time>2018-06-08T11:55:21Z</time>
      </trkpt>
      <trkpt lat="42.63045" lon="1.71057">
        <ele>2153</ele>
        <time>2018-06-08T11:55:31Z</time>
      </trkpt>
      <trkpt lat="42.63042" lon="1.71069">
        <ele>2153</ele>
        <time>2018-06-08T11:55:41Z</time>
      </trkpt>
      <trkpt lat="42.63039" lon="1.71082">
        <ele>2152</ele>
        <time>2018-06-08T11:55:53Z</time>
      </trkpt>
      <trkpt lat="42.63039" lon="1.71097">
        <ele>2151</ele>
        <time>2018-06-08T11:56:07Z</time>
      </trkpt>
      <trkpt lat="42.63036" lon="1.71111">
        <ele>2151</ele>
        <time>2018-06-08T11:56:19Z</time>
      </trkpt>
      <trkpt lat="42.63034" lon="1.71124">
        <ele>2151</ele>
        <time>2018-06-08T11:56:29Z</time>
      </trkpt>
      <trkpt lat="42.63033" lon="1.71136">
        <ele>2151</ele>
        <time>2018-06-08T11:56:39Z</time>
      </trkpt>
      <trkpt lat="42.63029" lon="1.71149">
        <ele>2151</ele>
        <time>2018-06-08T11:56:49Z</time>
      </trkpt>
      <trkpt lat="42.63028" lon="1.71162">
        <ele>2150</ele>
        <time>2018-06-08T11:56:59Z</time>
      </trkpt>
      <trkpt lat="42.63026" lon="1.71174">
        <ele>2149</ele>
        <time>2018-06-08T11:57:08Z</time>
      </trkpt>
      <trkpt lat="42.63025" lon="1.71186">
        <ele>2149</ele>
        <time>2018-06-08T11:57:20Z</time>
      </trkpt>
      <trkpt lat="42.63018" lon="1.71195">
        <ele>2149</ele>
        <time>2018-06-08T11:57:31Z</time>
      </trkpt>
      <trkpt lat="42.63016" lon="1.71206">
        <ele>2149</ele>
        <time>2018-06-08T11:57:41Z</time>
      </trkpt>
      <trkpt lat="42.63015" lon="1.71218">
        <ele>2148</ele>
        <time>2018-06-08T11:57:52Z</time>
      </trkpt>
      <trkpt lat="42.63006" lon="1.7122">
        <ele>2148</ele>
        <time>2018-06-08T11:58:05Z</time>
      </trkpt>
      <trkpt lat="42.62995" lon="1.71221">
        <ele>2146</ele>
        <time>2018-06-08T11:58:16Z</time>
      </trkpt>
      <trkpt lat="42.6299" lon="1.7121">
        <ele>2146</ele>
        <time>2018-06-08T11:58:27Z</time>
      </trkpt>
      <trkpt lat="42.62984" lon="1.71199">
        <ele>2147</ele>
        <time>2018-06-08T11:58:37Z</time>
      </trkpt>
      <trkpt lat="42.62976" lon="1.71193">
        <ele>2147</ele>
        <time>2018-06-08T11:58:47Z</time>
      </trkpt>
      <trkpt lat="42.62967" lon="1.71186">
        <ele>2147</ele>
        <time>2018-06-08T11:58:56Z</time>
      </trkpt>
      <trkpt lat="42.6296" lon="1.7118">
        <ele>2147</ele>
        <time>2018-06-08T11:59:04Z</time>
      </trkpt>
      <trkpt lat="42.6295" lon="1.71177">
        <ele>2147</ele>
        <time>2018-06-08T11:59:14Z</time>
      </trkpt>
      <trkpt lat="42.6294" lon="1.71173">
        <ele>2147</ele>
        <time>2018-06-08T11:59:23Z</time>
      </trkpt>
      <trkpt lat="42.62932" lon="1.71181">
        <ele>2147</ele>
        <time>2018-06-08T11:59:33Z</time>
      </trkpt>
      <trkpt lat="42.62926" lon="1.7119">
        <ele>2147</ele>
        <time>2018-06-08T11:59:44Z</time>
      </trkpt>
      <trkpt lat="42.62925" lon="1.71199">
        <ele>2147</ele>
        <time>2018-06-08T11:59:56Z</time>
      </trkpt>
      <trkpt lat="42.62926" lon="1.71216">
        <ele>2147</ele>
        <time>2018-06-08T12:00:12Z</time>
      </trkpt>
      <trkpt lat="42.62927" lon="1.71232">
        <ele>2147</ele>
        <time>2018-06-08T12:00:26Z</time>
      </trkpt>
      <trkpt lat="42.62926" lon="1.71241">
        <ele>2147</ele>
        <time>2018-06-08T12:00:52Z</time>
      </trkpt>
      <trkpt lat="42.62932" lon="1.71251">
        <ele>2148</ele>
        <time>2018-06-08T12:01:07Z</time>
      </trkpt>
      <trkpt lat="42.62934" lon="1.71263">
        <ele>2148</ele>
        <time>2018-06-08T12:01:20Z</time>
      </trkpt>
      <trkpt lat="42.62943" lon="1.7127">
        <ele>2148</ele>
        <time>2018-06-08T12:01:38Z</time>
      </trkpt>
      <trkpt lat="42.6295" lon="1.71277">
        <ele>2148</ele>
        <time>2018-06-08T12:01:48Z</time>
      </trkpt>
      <trkpt lat="42.62958" lon="1.71284">
        <ele>2148</ele>
        <time>2018-06-08T12:01:57Z</time>
      </trkpt>
      <trkpt lat="42.62966" lon="1.71291">
        <ele>2147</ele>
        <time>2018-06-08T12:02:07Z</time>
      </trkpt>
      <trkpt lat="42.62972" lon="1.71303">
        <ele>2147</ele>
        <time>2018-06-08T12:02:20Z</time>
      </trkpt>
      <trkpt lat="42.6298" lon="1.71312">
        <ele>2147</ele>
        <time>2018-06-08T12:02:32Z</time>
      </trkpt>
      <trkpt lat="42.62988" lon="1.71321">
        <ele>2146</ele>
        <time>2018-06-08T12:02:42Z</time>
      </trkpt>
      <trkpt lat="42.62995" lon="1.71329">
        <ele>2144</ele>
        <time>2018-06-08T12:02:51Z</time>
      </trkpt>
      <trkpt lat="42.63003" lon="1.71337">
        <ele>2143</ele>
        <time>2018-06-08T12:03:00Z</time>
      </trkpt>
      <trkpt lat="42.63011" lon="1.71347">
        <ele>2144</ele>
        <time>2018-06-08T12:03:09Z</time>
      </trkpt>
      <trkpt lat="42.63019" lon="1.71354">
        <ele>2144</ele>
        <time>2018-06-08T12:03:19Z</time>
      </trkpt>
      <trkpt lat="42.63026" lon="1.71364">
        <ele>2144</ele>
        <time>2018-06-08T12:03:30Z</time>
      </trkpt>
      <trkpt lat="42.63027" lon="1.71376">
        <ele>2144</ele>
        <time>2018-06-08T12:03:53Z</time>
      </trkpt>
      <trkpt lat="42.63029" lon="1.7139">
        <ele>2144</ele>
        <time>2018-06-08T12:04:03Z</time>
      </trkpt>
      <trkpt lat="42.63032" lon="1.71404">
        <ele>2144</ele>
        <time>2018-06-08T12:04:26Z</time>
      </trkpt>
      <trkpt lat="42.63038" lon="1.71413">
        <ele>2143</ele>
        <time>2018-06-08T12:04:38Z</time>
      </trkpt>
      <trkpt lat="42.63046" lon="1.71419">
        <ele>2141</ele>
        <time>2018-06-08T12:04:53Z</time>
      </trkpt>
      <trkpt lat="42.63055" lon="1.71424">
        <ele>2139</ele>
        <time>2018-06-08T12:05:09Z</time>
      </trkpt>
      <trkpt lat="42.63062" lon="1.71434">
        <ele>2138</ele>
        <time>2018-06-08T12:05:25Z</time>
      </trkpt>
      <trkpt lat="42.6307" lon="1.71441">
        <ele>2138</ele>
        <time>2018-06-08T12:05:39Z</time>
      </trkpt>
      <trkpt lat="42.63079" lon="1.71445">
        <ele>2137</ele>
        <time>2018-06-08T12:05:53Z</time>
      </trkpt>
      <trkpt lat="42.63087" lon="1.71453">
        <ele>2130</ele>
        <time>2018-06-08T12:06:03Z</time>
      </trkpt>
      <trkpt lat="42.63091" lon="1.71465">
        <ele>2130</ele>
        <time>2018-06-08T12:06:20Z</time>
      </trkpt>
      <trkpt lat="42.63092" lon="1.7148">
        <ele>2129</ele>
        <time>2018-06-08T12:06:49Z</time>
      </trkpt>
      <trkpt lat="42.631" lon="1.71487">
        <ele>2129</ele>
        <time>2018-06-08T12:07:02Z</time>
      </trkpt>
      <trkpt lat="42.631" lon="1.71501">
        <ele>2127</ele>
        <time>2018-06-08T12:07:17Z</time>
      </trkpt>
      <trkpt lat="42.63103" lon="1.71512">
        <ele>2126</ele>
        <time>2018-06-08T12:07:30Z</time>
      </trkpt>
      <trkpt lat="42.63111" lon="1.71521">
        <ele>2126</ele>
        <time>2018-06-08T12:07:50Z</time>
      </trkpt>
      <trkpt lat="42.63118" lon="1.71529">
        <ele>2125</ele>
        <time>2018-06-08T12:08:03Z</time>
      </trkpt>
      <trkpt lat="42.63125" lon="1.71541">
        <ele>2125</ele>
        <time>2018-06-08T12:08:22Z</time>
      </trkpt>
      <trkpt lat="42.63124" lon="1.71555">
        <ele>2125</ele>
        <time>2018-06-08T12:08:38Z</time>
      </trkpt>
      <trkpt lat="42.63131" lon="1.71566">
        <ele>2124</ele>
        <time>2018-06-08T12:08:52Z</time>
      </trkpt>
      <trkpt lat="42.63139" lon="1.71578">
        <ele>2122</ele>
        <time>2018-06-08T12:09:04Z</time>
      </trkpt>
      <trkpt lat="42.63142" lon="1.71592">
        <ele>2118</ele>
        <time>2018-06-08T12:09:18Z</time>
      </trkpt>
      <trkpt lat="42.63139" lon="1.71605">
        <ele>2119</ele>
        <time>2018-06-08T12:09:30Z</time>
      </trkpt>
      <trkpt lat="42.63137" lon="1.71619">
        <ele>2119</ele>
        <time>2018-06-08T12:09:47Z</time>
      </trkpt>
      <trkpt lat="42.63135" lon="1.71633">
        <ele>2118</ele>
        <time>2018-06-08T12:10:35Z</time>
      </trkpt>
      <trkpt lat="42.63129" lon="1.71642">
        <ele>2119</ele>
        <time>2018-06-08T12:10:54Z</time>
      </trkpt>
      <trkpt lat="42.63123" lon="1.71652">
        <ele>2120</ele>
        <time>2018-06-08T12:11:12Z</time>
      </trkpt>
      <trkpt lat="42.63116" lon="1.71661">
        <ele>2122</ele>
        <time>2018-06-08T12:12:12Z</time>
      </trkpt>
      <trkpt lat="42.63112" lon="1.71674">
        <ele>2112</ele>
        <time>2018-06-08T12:12:43Z</time>
      </trkpt>
      <trkpt lat="42.63103" lon="1.71682">
        <ele>2114</ele>
        <time>2018-06-08T12:12:55Z</time>
      </trkpt>
      <trkpt lat="42.63089" lon="1.71693">
        <ele>2113</ele>
        <time>2018-06-08T12:13:14Z</time>
      </trkpt>
      <trkpt lat="42.63077" lon="1.71701">
        <ele>2141</ele>
        <time>2018-06-08T12:13:39Z</time>
      </trkpt>
      <trkpt lat="42.63066" lon="1.71706">
        <ele>2143</ele>
        <time>2018-06-08T12:14:35Z</time>
      </trkpt>
      <trkpt lat="42.63065" lon="1.71713">
        <ele>2142</ele>
        <time>2018-06-08T12:17:26Z</time>
      </trkpt>
      <trkpt lat="42.63062" lon="1.7171">
        <ele>2143</ele>
        <time>2018-06-08T12:18:23Z</time>
      </trkpt>
      <trkpt lat="42.63058" lon="1.71706">
        <ele>2145</ele>
        <time>2018-06-08T12:18:59Z</time>
      </trkpt>
      <trkpt lat="42.63053" lon="1.71716">
        <ele>2145</ele>
        <time>2018-06-08T12:19:16Z</time>
      </trkpt>
      <trkpt lat="42.63048" lon="1.71731">
        <ele>2144</ele>
        <time>2018-06-08T12:19:42Z</time>
      </trkpt>
      <trkpt lat="42.63039" lon="1.71738">
        <ele>2148</ele>
        <time>2018-06-08T12:20:00Z</time>
      </trkpt>
      <trkpt lat="42.63032" lon="1.71751">
        <ele>2133</ele>
        <time>2018-06-08T12:20:43Z</time>
      </trkpt>
      <trkpt lat="42.63032" lon="1.71765">
        <ele>2130</ele>
        <time>2018-06-08T12:21:00Z</time>
      </trkpt>
      <trkpt lat="42.63027" lon="1.71775">
        <ele>2130</ele>
        <time>2018-06-08T12:21:14Z</time>
      </trkpt>
      <trkpt lat="42.63022" lon="1.71785">
        <ele>2129</ele>
        <time>2018-06-08T12:21:31Z</time>
      </trkpt>
      <trkpt lat="42.63012" lon="1.71795">
        <ele>2129</ele>
        <time>2018-06-08T12:23:45Z</time>
      </trkpt>
      <trkpt lat="42.63006" lon="1.71805">
        <ele>2128</ele>
        <time>2018-06-08T12:25:27Z</time>
      </trkpt>
      <trkpt lat="42.63003" lon="1.71821">
        <ele>2128</ele>
        <time>2018-06-08T12:26:51Z</time>
      </trkpt>
      <trkpt lat="42.63002" lon="1.71832">
        <ele>2131</ele>
        <time>2018-06-08T12:28:18Z</time>
      </trkpt>
      <trkpt lat="42.62997" lon="1.71843">
        <ele>2141</ele>
        <time>2018-06-08T12:28:29Z</time>
      </trkpt>
      <trkpt lat="42.62989" lon="1.71853">
        <ele>2148</ele>
        <time>2018-06-08T12:29:12Z</time>
      </trkpt>
      <trkpt lat="42.62983" lon="1.71863">
        <ele>2151</ele>
        <time>2018-06-08T12:29:38Z</time>
      </trkpt>
      <trkpt lat="42.6298" lon="1.71875">
        <ele>2150</ele>
        <time>2018-06-08T12:29:59Z</time>
      </trkpt>
      <trkpt lat="42.62977" lon="1.71888">
        <ele>2147</ele>
        <time>2018-06-08T12:30:14Z</time>
      </trkpt>
      <trkpt lat="42.62973" lon="1.71905">
        <ele>2143</ele>
        <time>2018-06-08T12:30:32Z</time>
      </trkpt>
      <trkpt lat="42.62971" lon="1.71923">
        <ele>2123</ele>
        <time>2018-06-08T12:31:07Z</time>
      </trkpt>
      <trkpt lat="42.62969" lon="1.71935">
        <ele>2124</ele>
        <time>2018-06-08T12:31:34Z</time>
      </trkpt>
      <trkpt lat="42.62973" lon="1.71944">
        <ele>2122</ele>
        <time>2018-06-08T12:32:36Z</time>
      </trkpt>
      <trkpt lat="42.62975" lon="1.7196">
        <ele>2120</ele>
        <time>2018-06-08T12:32:53Z</time>
      </trkpt>
      <trkpt lat="42.62979" lon="1.71965">
        <ele>2117</ele>
        <time>2018-06-08T12:33:08Z</time>
      </trkpt>
      <trkpt lat="42.62985" lon="1.7196">
        <ele>2116</ele>
        <time>2018-06-08T12:33:26Z</time>
      </trkpt>
      <trkpt lat="42.62981" lon="1.71975">
        <ele>2113</ele>
        <time>2018-06-08T12:33:41Z</time>
      </trkpt>
      <trkpt lat="42.62976" lon="1.7199">
        <ele>2111</ele>
        <time>2018-06-08T12:34:01Z</time>
      </trkpt>
      <trkpt lat="42.62969" lon="1.72006">
        <ele>2104</ele>
        <time>2018-06-08T12:34:53Z</time>
      </trkpt>
      <trkpt lat="42.62965" lon="1.72018">
        <ele>2106</ele>
        <time>2018-06-08T12:35:19Z</time>
      </trkpt>
      <trkpt lat="42.62969" lon="1.72025">
        <ele>2104</ele>
        <time>2018-06-08T12:36:25Z</time>
      </trkpt>
      <trkpt lat="42.62969" lon="1.7204">
        <ele>2104</ele>
        <time>2018-06-08T12:37:02Z</time>
      </trkpt>
      <trkpt lat="42.62974" lon="1.72054">
        <ele>2102</ele>
        <time>2018-06-08T12:37:25Z</time>
      </trkpt>
      <trkpt lat="42.62982" lon="1.72062">
        <ele>2097</ele>
        <time>2018-06-08T12:37:53Z</time>
      </trkpt>
      <trkpt lat="42.62985" lon="1.72075">
        <ele>2092</ele>
        <time>2018-06-08T12:38:11Z</time>
      </trkpt>
      <trkpt lat="42.62992" lon="1.72076">
        <ele>2087</ele>
        <time>2018-06-08T12:38:32Z</time>
      </trkpt>
      <trkpt lat="42.62999" lon="1.72089">
        <ele>2082</ele>
        <time>2018-06-08T12:38:48Z</time>
      </trkpt>
      <trkpt lat="42.63003" lon="1.72102">
        <ele>2071</ele>
        <time>2018-06-08T12:39:09Z</time>
      </trkpt>
      <trkpt lat="42.63003" lon="1.72112">
        <ele>2070</ele>
        <time>2018-06-08T12:39:42Z</time>
      </trkpt>
      <trkpt lat="42.63004" lon="1.72129">
        <ele>2070</ele>
        <time>2018-06-08T12:40:06Z</time>
      </trkpt>
      <trkpt lat="42.63004" lon="1.72141">
        <ele>2072</ele>
        <time>2018-06-08T12:40:21Z</time>
      </trkpt>
      <trkpt lat="42.63002" lon="1.72157">
        <ele>2078</ele>
        <time>2018-06-08T12:40:39Z</time>
      </trkpt>
      <trkpt lat="42.63" lon="1.72174">
        <ele>2082</ele>
        <time>2018-06-08T12:41:35Z</time>
      </trkpt>
      <trkpt lat="42.63002" lon="1.72183">
        <ele>2080</ele>
        <time>2018-06-08T12:42:02Z</time>
      </trkpt>
      <trkpt lat="42.63005" lon="1.72197">
        <ele>2079</ele>
        <time>2018-06-08T12:42:33Z</time>
      </trkpt>
      <trkpt lat="42.63009" lon="1.72214">
        <ele>2080</ele>
        <time>2018-06-08T12:43:04Z</time>
      </trkpt>
      <trkpt lat="42.63009" lon="1.72228">
        <ele>2082</ele>
        <time>2018-06-08T12:43:49Z</time>
      </trkpt>
      <trkpt lat="42.63009" lon="1.7224">
        <ele>2086</ele>
        <time>2018-06-08T12:44:11Z</time>
      </trkpt>
      <trkpt lat="42.63003" lon="1.72254">
        <ele>2094</ele>
        <time>2018-06-08T12:44:31Z</time>
      </trkpt>
      <trkpt lat="42.63003" lon="1.7227">
        <ele>2091</ele>
        <time>2018-06-08T12:44:56Z</time>
      </trkpt>
      <trkpt lat="42.63004" lon="1.72282">
        <ele>2091</ele>
        <time>2018-06-08T12:45:13Z</time>
      </trkpt>
      <trkpt lat="42.63002" lon="1.72296">
        <ele>2092</ele>
        <time>2018-06-08T12:45:44Z</time>
      </trkpt>
      <trkpt lat="42.62994" lon="1.72304">
        <ele>2107</ele>
        <time>2018-06-08T12:45:59Z</time>
      </trkpt>
      <trkpt lat="42.62984" lon="1.72315">
        <ele>2107</ele>
        <time>2018-06-08T12:46:28Z</time>
      </trkpt>
      <trkpt lat="42.62978" lon="1.72327">
        <ele>2108</ele>
        <time>2018-06-08T12:46:46Z</time>
      </trkpt>
      <trkpt lat="42.6297" lon="1.72335">
        <ele>2110</ele>
        <time>2018-06-08T12:47:00Z</time>
      </trkpt>
      <trkpt lat="42.62963" lon="1.72339">
        <ele>2111</ele>
        <time>2018-06-08T12:48:05Z</time>
      </trkpt>
      <trkpt lat="42.6296" lon="1.72355">
        <ele>2112</ele>
        <time>2018-06-08T12:48:21Z</time>
      </trkpt>
      <trkpt lat="42.62961" lon="1.7237">
        <ele>2112</ele>
        <time>2018-06-08T12:48:47Z</time>
      </trkpt>
      <trkpt lat="42.62964" lon="1.72381">
        <ele>2112</ele>
        <time>2018-06-08T12:49:14Z</time>
      </trkpt>
      <trkpt lat="42.62971" lon="1.72387">
        <ele>2111</ele>
        <time>2018-06-08T12:49:35Z</time>
      </trkpt>
      <trkpt lat="42.6297" lon="1.72399">
        <ele>2111</ele>
        <time>2018-06-08T12:49:53Z</time>
      </trkpt>
      <trkpt lat="42.62968" lon="1.72415">
        <ele>2111</ele>
        <time>2018-06-08T12:50:11Z</time>
      </trkpt>
      <trkpt lat="42.62959" lon="1.72425">
        <ele>2111</ele>
        <time>2018-06-08T12:50:26Z</time>
      </trkpt>
      <trkpt lat="42.62955" lon="1.72437">
        <ele>2111</ele>
        <time>2018-06-08T12:50:39Z</time>
      </trkpt>
      <trkpt lat="42.62949" lon="1.72448">
        <ele>2111</ele>
        <time>2018-06-08T12:50:52Z</time>
      </trkpt>
      <trkpt lat="42.62948" lon="1.72461">
        <ele>2111</ele>
        <time>2018-06-08T12:51:06Z</time>
      </trkpt>
      <trkpt lat="42.62954" lon="1.72472">
        <ele>2110</ele>
        <time>2018-06-08T12:51:19Z</time>
      </trkpt>
      <trkpt lat="42.62962" lon="1.72479">
        <ele>2110</ele>
        <time>2018-06-08T12:51:53Z</time>
      </trkpt>
      <trkpt lat="42.62967" lon="1.72492">
        <ele>2109</ele>
        <time>2018-06-08T12:52:06Z</time>
      </trkpt>
      <trkpt lat="42.62973" lon="1.72505">
        <ele>2106</ele>
        <time>2018-06-08T12:52:28Z</time>
      </trkpt>
      <trkpt lat="42.62977" lon="1.72513">
        <ele>2106</ele>
        <time>2018-06-08T12:54:02Z</time>
      </trkpt>
      <trkpt lat="42.62985" lon="1.72521">
        <ele>2106</ele>
        <time>2018-06-08T12:54:22Z</time>
      </trkpt>
      <trkpt lat="42.62991" lon="1.72532">
        <ele>2106</ele>
        <time>2018-06-08T12:54:35Z</time>
      </trkpt>
      <trkpt lat="42.62992" lon="1.72546">
        <ele>2105</ele>
        <time>2018-06-08T12:54:46Z</time>
      </trkpt>
      <trkpt lat="42.6299" lon="1.7256">
        <ele>2105</ele>
        <time>2018-06-08T12:55:00Z</time>
      </trkpt>
      <trkpt lat="42.62984" lon="1.72569">
        <ele>2105</ele>
        <time>2018-06-08T12:55:16Z</time>
      </trkpt>
      <trkpt lat="42.62986" lon="1.72583">
        <ele>2104</ele>
        <time>2018-06-08T12:55:33Z</time>
      </trkpt>
      <trkpt lat="42.62993" lon="1.72594">
        <ele>2106</ele>
        <time>2018-06-08T12:55:52Z</time>
      </trkpt>
      <trkpt lat="42.63003" lon="1.72604">
        <ele>2108</ele>
        <time>2018-06-08T12:56:23Z</time>
      </trkpt>
      <trkpt lat="42.63016" lon="1.72599">
        <ele>2108</ele>
        <time>2018-06-08T12:57:26Z</time>
      </trkpt>
      <trkpt lat="42.63025" lon="1.72589">
        <ele>2107</ele>
        <time>2018-06-08T12:57:42Z</time>
      </trkpt>
      <trkpt lat="42.63035" lon="1.72589">
        <ele>2108</ele>
        <time>2018-06-08T12:58:00Z</time>
      </trkpt>
      <trkpt lat="42.63049" lon="1.72585">
        <ele>2107</ele>
        <time>2018-06-08T12:58:19Z</time>
      </trkpt>
      <trkpt lat="42.63061" lon="1.72583">
        <ele>2099</ele>
        <time>2018-06-08T12:58:41Z</time>
      </trkpt>
      <trkpt lat="42.63076" lon="1.72586">
        <ele>2103</ele>
        <time>2018-06-08T12:59:05Z</time>
      </trkpt>
      <trkpt lat="42.63088" lon="1.72598">
        <ele>2105</ele>
        <time>2018-06-08T12:59:27Z</time>
      </trkpt>
      <trkpt lat="42.63098" lon="1.72608">
        <ele>2107</ele>
        <time>2018-06-08T12:59:45Z</time>
      </trkpt>
      <trkpt lat="42.63107" lon="1.72616">
        <ele>2109</ele>
        <time>2018-06-08T13:00:05Z</time>
      </trkpt>
      <trkpt lat="42.63115" lon="1.7261">
        <ele>2108</ele>
        <time>2018-06-08T13:00:39Z</time>
      </trkpt>
      <trkpt lat="42.63124" lon="1.72602">
        <ele>2107</ele>
        <time>2018-06-08T13:00:56Z</time>
      </trkpt>
      <trkpt lat="42.63127" lon="1.72617">
        <ele>2109</ele>
        <time>2018-06-08T13:01:33Z</time>
      </trkpt>
      <trkpt lat="42.6312" lon="1.72635">
        <ele>2112</ele>
        <time>2018-06-08T13:02:00Z</time>
      </trkpt>
      <trkpt lat="42.63117" lon="1.72648">
        <ele>2114</ele>
        <time>2018-06-08T13:02:33Z</time>
      </trkpt>
      <trkpt lat="42.63125" lon="1.72657">
        <ele>2114</ele>
        <time>2018-06-08T13:03:00Z</time>
      </trkpt>
      <trkpt lat="42.63125" lon="1.72669">
        <ele>2131</ele>
        <time>2018-06-08T13:04:52Z</time>
      </trkpt>
      <trkpt lat="42.63138" lon="1.72671">
        <ele>2130</ele>
        <time>2018-06-08T13:05:10Z</time>
      </trkpt>
      <trkpt lat="42.6315" lon="1.72674">
        <ele>2128</ele>
        <time>2018-06-08T13:05:25Z</time>
      </trkpt>
      <trkpt lat="42.6316" lon="1.72678">
        <ele>2127</ele>
        <time>2018-06-08T13:05:42Z</time>
      </trkpt>
      <trkpt lat="42.63171" lon="1.72676">
        <ele>2129</ele>
        <time>2018-06-08T13:06:35Z</time>
      </trkpt>
      <trkpt lat="42.63185" lon="1.72676">
        <ele>2133</ele>
        <time>2018-06-08T13:07:02Z</time>
      </trkpt>
      <trkpt lat="42.63195" lon="1.72672">
        <ele>2136</ele>
        <time>2018-06-08T13:07:17Z</time>
      </trkpt>
      <trkpt lat="42.63206" lon="1.7267">
        <ele>2137</ele>
        <time>2018-06-08T13:07:33Z</time>
      </trkpt>
      <trkpt lat="42.6322" lon="1.72668">
        <ele>2138</ele>
        <time>2018-06-08T13:07:52Z</time>
      </trkpt>
      <trkpt lat="42.63231" lon="1.72663">
        <ele>2119</ele>
        <time>2018-06-08T13:08:10Z</time>
      </trkpt>
      <trkpt lat="42.63241" lon="1.72664">
        <ele>2124</ele>
        <time>2018-06-08T13:08:25Z</time>
      </trkpt>
      <trkpt lat="42.6325" lon="1.72663">
        <ele>2128</ele>
        <time>2018-06-08T13:08:38Z</time>
      </trkpt>
      <trkpt lat="42.6326" lon="1.7266">
        <ele>2124</ele>
        <time>2018-06-08T13:08:58Z</time>
      </trkpt>
      <trkpt lat="42.63267" lon="1.72652">
        <ele>2121</ele>
        <time>2018-06-08T13:09:20Z</time>
      </trkpt>
      <trkpt lat="42.63275" lon="1.72671">
        <ele>2150</ele>
        <time>2018-06-08T13:10:25Z</time>
      </trkpt>
      <trkpt lat="42.63281" lon="1.72659">
        <ele>2122</ele>
        <time>2018-06-08T13:11:58Z</time>
      </trkpt>
      <trkpt lat="42.63289" lon="1.72655">
        <ele>2122</ele>
        <time>2018-06-08T13:12:14Z</time>
      </trkpt>
      <trkpt lat="42.633" lon="1.72649">
        <ele>2122</ele>
        <time>2018-06-08T13:12:28Z</time>
      </trkpt>
      <trkpt lat="42.63311" lon="1.72644">
        <ele>2123</ele>
        <time>2018-06-08T13:12:43Z</time>
      </trkpt>
      <trkpt lat="42.63319" lon="1.72643">
        <ele>2124</ele>
        <time>2018-06-08T13:12:54Z</time>
      </trkpt>
      <trkpt lat="42.63328" lon="1.72637">
        <ele>2122</ele>
        <time>2018-06-08T13:13:10Z</time>
      </trkpt>
      <trkpt lat="42.63337" lon="1.72635">
        <ele>2127</ele>
        <time>2018-06-08T13:13:24Z</time>
      </trkpt>
      <trkpt lat="42.63346" lon="1.72629">
        <ele>2123</ele>
        <time>2018-06-08T13:13:42Z</time>
      </trkpt>
      <trkpt lat="42.63356" lon="1.72626">
        <ele>2123</ele>
        <time>2018-06-08T13:13:55Z</time>
      </trkpt>
      <trkpt lat="42.63367" lon="1.72625">
        <ele>2123</ele>
        <time>2018-06-08T13:14:06Z</time>
      </trkpt>
      <trkpt lat="42.63378" lon="1.72631">
        <ele>2125</ele>
        <time>2018-06-08T13:14:21Z</time>
      </trkpt>
      <trkpt lat="42.63389" lon="1.72627">
        <ele>2125</ele>
        <time>2018-06-08T13:14:35Z</time>
      </trkpt>
      <trkpt lat="42.63397" lon="1.7262">
        <ele>2122</ele>
        <time>2018-06-08T13:14:49Z</time>
      </trkpt>
      <trkpt lat="42.63406" lon="1.72608">
        <ele>2118</ele>
        <time>2018-06-08T13:15:09Z</time>
      </trkpt>
      <trkpt lat="42.63416" lon="1.72605">
        <ele>2116</ele>
        <time>2018-06-08T13:15:20Z</time>
      </trkpt>
      <trkpt lat="42.63425" lon="1.72608">
        <ele>2124</ele>
        <time>2018-06-08T13:15:33Z</time>
      </trkpt>
      <trkpt lat="42.63437" lon="1.72616">
        <ele>2130</ele>
        <time>2018-06-08T13:15:49Z</time>
      </trkpt>
      <trkpt lat="42.63436" lon="1.72631">
        <ele>2135</ele>
        <time>2018-06-08T13:16:24Z</time>
      </trkpt>
      <trkpt lat="42.63446" lon="1.7263">
        <ele>2135</ele>
        <time>2018-06-08T13:16:44Z</time>
      </trkpt>
      <trkpt lat="42.63454" lon="1.72631">
        <ele>2136</ele>
        <time>2018-06-08T13:17:07Z</time>
      </trkpt>
      <trkpt lat="42.63444" lon="1.72639">
        <ele>2138</ele>
        <time>2018-06-08T13:17:36Z</time>
      </trkpt>
      <trkpt lat="42.63444" lon="1.72645">
        <ele>2139</ele>
        <time>2018-06-08T13:18:15Z</time>
      </trkpt>
      <trkpt lat="42.6345" lon="1.72645">
        <ele>2139</ele>
        <time>2018-06-08T13:19:05Z</time>
      </trkpt>
      <trkpt lat="42.63461" lon="1.72651">
        <ele>2141</ele>
        <time>2018-06-08T13:19:23Z</time>
      </trkpt>
      <trkpt lat="42.63471" lon="1.72654">
        <ele>2143</ele>
        <time>2018-06-08T13:19:45Z</time>
      </trkpt>
      <trkpt lat="42.63482" lon="1.72654">
        <ele>2145</ele>
        <time>2018-06-08T13:20:10Z</time>
      </trkpt>
      <trkpt lat="42.6349" lon="1.72654">
        <ele>2148</ele>
        <time>2018-06-08T13:20:33Z</time>
      </trkpt>
      <trkpt lat="42.63502" lon="1.72654">
        <ele>2155</ele>
        <time>2018-06-08T13:20:57Z</time>
      </trkpt>
      <trkpt lat="42.63512" lon="1.72657">
        <ele>2155</ele>
        <time>2018-06-08T13:21:17Z</time>
      </trkpt>
      <trkpt lat="42.63522" lon="1.72659">
        <ele>2155</ele>
        <time>2018-06-08T13:21:39Z</time>
      </trkpt>
      <trkpt lat="42.63534" lon="1.72663">
        <ele>2155</ele>
        <time>2018-06-08T13:22:43Z</time>
      </trkpt>
      <trkpt lat="42.63542" lon="1.72662">
        <ele>2156</ele>
        <time>2018-06-08T13:23:17Z</time>
      </trkpt>
      <trkpt lat="42.63545" lon="1.72652">
        <ele>2155</ele>
        <time>2018-06-08T13:23:35Z</time>
      </trkpt>
      <trkpt lat="42.63553" lon="1.72649">
        <ele>2156</ele>
        <time>2018-06-08T13:23:53Z</time>
      </trkpt>
      <trkpt lat="42.63562" lon="1.72657">
        <ele>2159</ele>
        <time>2018-06-08T13:24:17Z</time>
      </trkpt>
      <trkpt lat="42.63569" lon="1.7266">
        <ele>2162</ele>
        <time>2018-06-08T13:24:42Z</time>
      </trkpt>
      <trkpt lat="42.63578" lon="1.72654">
        <ele>2163</ele>
        <time>2018-06-08T13:25:02Z</time>
      </trkpt>
      <trkpt lat="42.63587" lon="1.72647">
        <ele>2169</ele>
        <time>2018-06-08T13:25:19Z</time>
      </trkpt>
      <trkpt lat="42.63594" lon="1.72637">
        <ele>2169</ele>
        <time>2018-06-08T13:25:34Z</time>
      </trkpt>
      <trkpt lat="42.636" lon="1.72626">
        <ele>2168</ele>
        <time>2018-06-08T13:25:46Z</time>
      </trkpt>
      <trkpt lat="42.63605" lon="1.72615">
        <ele>2166</ele>
        <time>2018-06-08T13:25:59Z</time>
      </trkpt>
      <trkpt lat="42.63611" lon="1.72608">
        <ele>2166</ele>
        <time>2018-06-08T13:26:14Z</time>
      </trkpt>
      <trkpt lat="42.63622" lon="1.72605">
        <ele>2167</ele>
        <time>2018-06-08T13:26:27Z</time>
      </trkpt>
      <trkpt lat="42.6363" lon="1.72604">
        <ele>2169</ele>
        <time>2018-06-08T13:26:40Z</time>
      </trkpt>
      <trkpt lat="42.63639" lon="1.726">
        <ele>2169</ele>
        <time>2018-06-08T13:26:50Z</time>
      </trkpt>
      <trkpt lat="42.63649" lon="1.72596">
        <ele>2170</ele>
        <time>2018-06-08T13:27:04Z</time>
      </trkpt>
      <trkpt lat="42.63658" lon="1.72589">
        <ele>2171</ele>
        <time>2018-06-08T13:27:17Z</time>
      </trkpt>
      <trkpt lat="42.63666" lon="1.72585">
        <ele>2172</ele>
        <time>2018-06-08T13:28:22Z</time>
      </trkpt>
      <trkpt lat="42.63676" lon="1.72581">
        <ele>2169</ele>
        <time>2018-06-08T13:28:33Z</time>
      </trkpt>
      <trkpt lat="42.63686" lon="1.7258">
        <ele>2168</ele>
        <time>2018-06-08T13:28:43Z</time>
      </trkpt>
      <trkpt lat="42.63696" lon="1.72582">
        <ele>2168</ele>
        <time>2018-06-08T13:28:53Z</time>
      </trkpt>
      <trkpt lat="42.63706" lon="1.72582">
        <ele>2168</ele>
        <time>2018-06-08T13:29:07Z</time>
      </trkpt>
      <trkpt lat="42.63715" lon="1.72582">
        <ele>2169</ele>
        <time>2018-06-08T13:29:24Z</time>
      </trkpt>
      <trkpt lat="42.63725" lon="1.72578">
        <ele>2171</ele>
        <time>2018-06-08T13:30:32Z</time>
      </trkpt>
      <trkpt lat="42.63734" lon="1.72576">
        <ele>2174</ele>
        <time>2018-06-08T13:30:44Z</time>
      </trkpt>
      <trkpt lat="42.63743" lon="1.72581">
        <ele>2178</ele>
        <time>2018-06-08T13:30:59Z</time>
      </trkpt>
      <trkpt lat="42.63754" lon="1.72579">
        <ele>2181</ele>
        <time>2018-06-08T13:31:17Z</time>
      </trkpt>
      <trkpt lat="42.63764" lon="1.7258">
        <ele>2178</ele>
        <time>2018-06-08T13:31:39Z</time>
      </trkpt>
      <trkpt lat="42.63776" lon="1.72578">
        <ele>2176</ele>
        <time>2018-06-08T13:31:53Z</time>
      </trkpt>
      <trkpt lat="42.63785" lon="1.72585">
        <ele>2189</ele>
        <time>2018-06-08T13:32:06Z</time>
      </trkpt>
      <trkpt lat="42.63799" lon="1.72587">
        <ele>2190</ele>
        <time>2018-06-08T13:32:57Z</time>
      </trkpt>
      <trkpt lat="42.63799" lon="1.72575">
        <ele>2176</ele>
        <time>2018-06-08T13:33:59Z</time>
      </trkpt>
      <trkpt lat="42.63803" lon="1.72581">
        <ele>2177</ele>
        <time>2018-06-08T13:37:07Z</time>
      </trkpt>
      <trkpt lat="42.63797" lon="1.72576">
        <ele>2176</ele>
        <time>2018-06-09T06:29:02Z</time>
      </trkpt>
      <trkpt lat="42.63802" lon="1.72574">
        <ele>2176</ele>
        <time>2018-06-09T06:29:30Z</time>
      </trkpt>
      <trkpt lat="42.63799" lon="1.72577">
        <ele>2176</ele>
        <time>2018-06-09T06:29:40Z</time>
      </trkpt>
      <trkpt lat="42.63799" lon="1.72594">
        <ele>2190</ele>
        <time>2018-06-09T06:29:51Z</time>
      </trkpt>
      <trkpt lat="42.63807" lon="1.72601">
        <ele>2190</ele>
        <time>2018-06-09T06:30:04Z</time>
      </trkpt>
      <trkpt lat="42.63811" lon="1.72605">
        <ele>2190</ele>
        <time>2018-06-09T06:30:16Z</time>
      </trkpt>
      <trkpt lat="42.63818" lon="1.72608">
        <ele>2191</ele>
        <time>2018-06-09T06:30:29Z</time>
      </trkpt>
      <trkpt lat="42.63826" lon="1.72614">
        <ele>2191</ele>
        <time>2018-06-09T06:30:42Z</time>
      </trkpt>
      <trkpt lat="42.63834" lon="1.72623">
        <ele>2191</ele>
        <time>2018-06-09T06:30:56Z</time>
      </trkpt>
      <trkpt lat="42.63839" lon="1.72631">
        <ele>2192</ele>
        <time>2018-06-09T06:31:30Z</time>
      </trkpt>
      <trkpt lat="42.63847" lon="1.72641">
        <ele>2192</ele>
        <time>2018-06-09T06:31:48Z</time>
      </trkpt>
      <trkpt lat="42.63851" lon="1.72651">
        <ele>2193</ele>
        <time>2018-06-09T06:32:34Z</time>
      </trkpt>
      <trkpt lat="42.63859" lon="1.72659">
        <ele>2193</ele>
        <time>2018-06-09T06:32:50Z</time>
      </trkpt>
      <trkpt lat="42.63864" lon="1.72669">
        <ele>2198</ele>
        <time>2018-06-09T06:33:00Z</time>
      </trkpt>
      <trkpt lat="42.63873" lon="1.72682">
        <ele>2199</ele>
        <time>2018-06-09T06:33:11Z</time>
      </trkpt>
      <trkpt lat="42.63879" lon="1.72689">
        <ele>2199</ele>
        <time>2018-06-09T06:33:21Z</time>
      </trkpt>
      <trkpt lat="42.63886" lon="1.72697">
        <ele>2199</ele>
        <time>2018-06-09T06:33:31Z</time>
      </trkpt>
      <trkpt lat="42.63892" lon="1.72706">
        <ele>2200</ele>
        <time>2018-06-09T06:33:42Z</time>
      </trkpt>
      <trkpt lat="42.63896" lon="1.72719">
        <ele>2201</ele>
        <time>2018-06-09T06:33:51Z</time>
      </trkpt>
      <trkpt lat="42.63903" lon="1.72729">
        <ele>2202</ele>
        <time>2018-06-09T06:34:01Z</time>
      </trkpt>
      <trkpt lat="42.63908" lon="1.72736">
        <ele>2203</ele>
        <time>2018-06-09T06:34:15Z</time>
      </trkpt>
      <trkpt lat="42.63912" lon="1.72739">
        <ele>2204</ele>
        <time>2018-06-09T06:34:24Z</time>
      </trkpt>
      <trkpt lat="42.63915" lon="1.72748">
        <ele>2205</ele>
        <time>2018-06-09T06:34:33Z</time>
      </trkpt>
      <trkpt lat="42.63921" lon="1.72771">
        <ele>2211</ele>
        <time>2018-06-09T06:34:45Z</time>
      </trkpt>
      <trkpt lat="42.63922" lon="1.72791">
        <ele>2214</ele>
        <time>2018-06-09T06:34:57Z</time>
      </trkpt>
      <trkpt lat="42.63923" lon="1.72803">
        <ele>2215</ele>
        <time>2018-06-09T06:35:08Z</time>
      </trkpt>
      <trkpt lat="42.63926" lon="1.7281">
        <ele>2216</ele>
        <time>2018-06-09T06:35:18Z</time>
      </trkpt>
      <trkpt lat="42.63932" lon="1.72824">
        <ele>2217</ele>
        <time>2018-06-09T06:35:28Z</time>
      </trkpt>
      <trkpt lat="42.63935" lon="1.72835">
        <ele>2222</ele>
        <time>2018-06-09T06:35:44Z</time>
      </trkpt>
      <trkpt lat="42.63939" lon="1.72845">
        <ele>2223</ele>
        <time>2018-06-09T06:35:59Z</time>
      </trkpt>
      <trkpt lat="42.63941" lon="1.72857">
        <ele>2224</ele>
        <time>2018-06-09T06:36:09Z</time>
      </trkpt>
      <trkpt lat="42.63945" lon="1.72864">
        <ele>2224</ele>
        <time>2018-06-09T06:37:01Z</time>
      </trkpt>
      <trkpt lat="42.63955" lon="1.72863">
        <ele>2225</ele>
        <time>2018-06-09T06:37:16Z</time>
      </trkpt>
      <trkpt lat="42.63963" lon="1.72864">
        <ele>2225</ele>
        <time>2018-06-09T06:38:01Z</time>
      </trkpt>
      <trkpt lat="42.63969" lon="1.72864">
        <ele>2225</ele>
        <time>2018-06-09T06:43:04Z</time>
      </trkpt>
      <trkpt lat="42.63975" lon="1.72871">
        <ele>2226</ele>
        <time>2018-06-09T06:43:18Z</time>
      </trkpt>
      <trkpt lat="42.63984" lon="1.7287">
        <ele>2226</ele>
        <time>2018-06-09T06:43:32Z</time>
      </trkpt>
      <trkpt lat="42.63995" lon="1.72869">
        <ele>2226</ele>
        <time>2018-06-09T06:43:46Z</time>
      </trkpt>
      <trkpt lat="42.6401" lon="1.72871">
        <ele>2236</ele>
        <time>2018-06-09T06:44:05Z</time>
      </trkpt>
      <trkpt lat="42.64019" lon="1.72874">
        <ele>2237</ele>
        <time>2018-06-09T06:44:32Z</time>
      </trkpt>
      <trkpt lat="42.64027" lon="1.7287">
        <ele>2237</ele>
        <time>2018-06-09T06:44:54Z</time>
      </trkpt>
      <trkpt lat="42.64035" lon="1.72867">
        <ele>2238</ele>
        <time>2018-06-09T06:45:18Z</time>
      </trkpt>
      <trkpt lat="42.64042" lon="1.7286">
        <ele>2239</ele>
        <time>2018-06-09T06:45:40Z</time>
      </trkpt>
      <trkpt lat="42.64045" lon="1.72844">
        <ele>2238</ele>
        <time>2018-06-09T06:45:59Z</time>
      </trkpt>
      <trkpt lat="42.64056" lon="1.72828">
        <ele>2236</ele>
        <time>2018-06-09T06:48:04Z</time>
      </trkpt>
      <trkpt lat="42.64062" lon="1.72807">
        <ele>2235</ele>
        <time>2018-06-09T06:48:16Z</time>
      </trkpt>
      <trkpt lat="42.64071" lon="1.72785">
        <ele>2235</ele>
        <time>2018-06-09T06:48:32Z</time>
      </trkpt>
      <trkpt lat="42.64079" lon="1.72765">
        <ele>2237</ele>
        <time>2018-06-09T06:48:53Z</time>
      </trkpt>
      <trkpt lat="42.64083" lon="1.72748">
        <ele>2240</ele>
        <time>2018-06-09T06:49:17Z</time>
      </trkpt>
      <trkpt lat="42.64085" lon="1.72733">
        <ele>2239</ele>
        <time>2018-06-09T06:49:42Z</time>
      </trkpt>
      <trkpt lat="42.64087" lon="1.72713">
        <ele>2237</ele>
        <time>2018-06-09T06:50:07Z</time>
      </trkpt>
      <trkpt lat="42.64091" lon="1.72702">
        <ele>2236</ele>
        <time>2018-06-09T06:50:31Z</time>
      </trkpt>
      <trkpt lat="42.64095" lon="1.72692">
        <ele>2236</ele>
        <time>2018-06-09T06:50:49Z</time>
      </trkpt>
      <trkpt lat="42.641" lon="1.72688">
        <ele>2236</ele>
        <time>2018-06-09T06:51:16Z</time>
      </trkpt>
      <trkpt lat="42.64106" lon="1.72685">
        <ele>2235</ele>
        <time>2018-06-09T06:51:32Z</time>
      </trkpt>
      <trkpt lat="42.64113" lon="1.7268">
        <ele>2235</ele>
        <time>2018-06-09T06:52:06Z</time>
      </trkpt>
      <trkpt lat="42.64119" lon="1.72681">
        <ele>2235</ele>
        <time>2018-06-09T06:52:21Z</time>
      </trkpt>
      <trkpt lat="42.64128" lon="1.72684">
        <ele>2235</ele>
        <time>2018-06-09T06:52:37Z</time>
      </trkpt>
      <trkpt lat="42.64134" lon="1.72688">
        <ele>2235</ele>
        <time>2018-06-09T06:52:49Z</time>
      </trkpt>
      <trkpt lat="42.64142" lon="1.72693">
        <ele>2235</ele>
        <time>2018-06-09T06:53:02Z</time>
      </trkpt>
      <trkpt lat="42.64148" lon="1.72703">
        <ele>2235</ele>
        <time>2018-06-09T06:53:17Z</time>
      </trkpt>
      <trkpt lat="42.64154" lon="1.72709">
        <ele>2235</ele>
        <time>2018-06-09T06:53:30Z</time>
      </trkpt>
      <trkpt lat="42.64158" lon="1.72718">
        <ele>2236</ele>
        <time>2018-06-09T06:53:41Z</time>
      </trkpt>
      <trkpt lat="42.64163" lon="1.72725">
        <ele>2237</ele>
        <time>2018-06-09T06:53:57Z</time>
      </trkpt>
      <trkpt lat="42.64173" lon="1.72728">
        <ele>2234</ele>
        <time>2018-06-09T06:54:08Z</time>
      </trkpt>
      <trkpt lat="42.64179" lon="1.72729">
        <ele>2234</ele>
        <time>2018-06-09T06:54:18Z</time>
      </trkpt>
      <trkpt lat="42.64188" lon="1.72734">
        <ele>2233</ele>
        <time>2018-06-09T06:54:29Z</time>
      </trkpt>
      <trkpt lat="42.64194" lon="1.72742">
        <ele>2233</ele>
        <time>2018-06-09T06:54:40Z</time>
      </trkpt>
      <trkpt lat="42.642" lon="1.72755">
        <ele>2240</ele>
        <time>2018-06-09T06:54:51Z</time>
      </trkpt>
      <trkpt lat="42.64206" lon="1.72762">
        <ele>2241</ele>
        <time>2018-06-09T06:55:02Z</time>
      </trkpt>
      <trkpt lat="42.64214" lon="1.72769">
        <ele>2241</ele>
        <time>2018-06-09T06:55:13Z</time>
      </trkpt>
      <trkpt lat="42.6422" lon="1.72773">
        <ele>2240</ele>
        <time>2018-06-09T06:55:25Z</time>
      </trkpt>
      <trkpt lat="42.64228" lon="1.72773">
        <ele>2240</ele>
        <time>2018-06-09T06:55:36Z</time>
      </trkpt>
      <trkpt lat="42.64236" lon="1.72772">
        <ele>2239</ele>
        <time>2018-06-09T06:55:50Z</time>
      </trkpt>
      <trkpt lat="42.64242" lon="1.72773">
        <ele>2239</ele>
        <time>2018-06-09T06:56:04Z</time>
      </trkpt>
      <trkpt lat="42.6425" lon="1.72768">
        <ele>2238</ele>
        <time>2018-06-09T06:56:40Z</time>
      </trkpt>
      <trkpt lat="42.64259" lon="1.7277">
        <ele>2239</ele>
        <time>2018-06-09T06:57:35Z</time>
      </trkpt>
      <trkpt lat="42.64269" lon="1.72771">
        <ele>2240</ele>
        <time>2018-06-09T06:57:46Z</time>
      </trkpt>
      <trkpt lat="42.64275" lon="1.72771">
        <ele>2241</ele>
        <time>2018-06-09T06:57:58Z</time>
      </trkpt>
      <trkpt lat="42.64281" lon="1.72769">
        <ele>2241</ele>
        <time>2018-06-09T06:58:13Z</time>
      </trkpt>
      <trkpt lat="42.6429" lon="1.72772">
        <ele>2242</ele>
        <time>2018-06-09T06:58:27Z</time>
      </trkpt>
      <trkpt lat="42.64295" lon="1.7277">
        <ele>2242</ele>
        <time>2018-06-09T06:58:39Z</time>
      </trkpt>
      <trkpt lat="42.64302" lon="1.72758">
        <ele>2241</ele>
        <time>2018-06-09T06:58:54Z</time>
      </trkpt>
      <trkpt lat="42.64306" lon="1.72755">
        <ele>2241</ele>
        <time>2018-06-09T06:59:08Z</time>
      </trkpt>
      <trkpt lat="42.64311" lon="1.72752">
        <ele>2241</ele>
        <time>2018-06-09T06:59:21Z</time>
      </trkpt>
      <trkpt lat="42.64316" lon="1.72751">
        <ele>2241</ele>
        <time>2018-06-09T06:59:33Z</time>
      </trkpt>
      <trkpt lat="42.64322" lon="1.7275">
        <ele>2236</ele>
        <time>2018-06-09T06:59:51Z</time>
      </trkpt>
      <trkpt lat="42.64329" lon="1.7275">
        <ele>2240</ele>
        <time>2018-06-09T07:00:07Z</time>
      </trkpt>
      <trkpt lat="42.64335" lon="1.72752">
        <ele>2240</ele>
        <time>2018-06-09T07:00:20Z</time>
      </trkpt>
      <trkpt lat="42.6434" lon="1.72756">
        <ele>2242</ele>
        <time>2018-06-09T07:00:34Z</time>
      </trkpt>
      <trkpt lat="42.64344" lon="1.72759">
        <ele>2243</ele>
        <time>2018-06-09T07:00:46Z</time>
      </trkpt>
      <trkpt lat="42.64349" lon="1.7276">
        <ele>2243</ele>
        <time>2018-06-09T07:00:58Z</time>
      </trkpt>
      <trkpt lat="42.64354" lon="1.72762">
        <ele>2244</ele>
        <time>2018-06-09T07:01:10Z</time>
      </trkpt>
      <trkpt lat="42.64358" lon="1.72761">
        <ele>2244</ele>
        <time>2018-06-09T07:01:20Z</time>
      </trkpt>
      <trkpt lat="42.64362" lon="1.7276">
        <ele>2244</ele>
        <time>2018-06-09T07:01:31Z</time>
      </trkpt>
      <trkpt lat="42.64367" lon="1.72761">
        <ele>2245</ele>
        <time>2018-06-09T07:01:45Z</time>
      </trkpt>
      <trkpt lat="42.64372" lon="1.72761">
        <ele>2245</ele>
        <time>2018-06-09T07:01:58Z</time>
      </trkpt>
      <trkpt lat="42.64378" lon="1.72765">
        <ele>2245</ele>
        <time>2018-06-09T07:02:12Z</time>
      </trkpt>
      <trkpt lat="42.64381" lon="1.72766">
        <ele>2246</ele>
        <time>2018-06-09T07:02:26Z</time>
      </trkpt>
      <trkpt lat="42.64386" lon="1.72764">
        <ele>2246</ele>
        <time>2018-06-09T07:02:42Z</time>
      </trkpt>
      <trkpt lat="42.64391" lon="1.72766">
        <ele>2246</ele>
        <time>2018-06-09T07:02:55Z</time>
      </trkpt>
      <trkpt lat="42.64395" lon="1.72766">
        <ele>2246</ele>
        <time>2018-06-09T07:03:06Z</time>
      </trkpt>
      <trkpt lat="42.64402" lon="1.72767">
        <ele>2246</ele>
        <time>2018-06-09T07:03:17Z</time>
      </trkpt>
      <trkpt lat="42.64402" lon="1.72768">
        <ele>2246</ele>
        <time>2018-06-09T07:21:58Z</time>
      </trkpt>
      <trkpt lat="42.64404" lon="1.72776">
        <ele>2246</ele>
        <time>2018-06-09T07:22:12Z</time>
      </trkpt>
      <trkpt lat="42.64409" lon="1.72777">
        <ele>2246</ele>
        <time>2018-06-09T07:22:24Z</time>
      </trkpt>
      <trkpt lat="42.64415" lon="1.72782">
        <ele>2246</ele>
        <time>2018-06-09T07:22:40Z</time>
      </trkpt>
      <trkpt lat="42.64424" lon="1.72783">
        <ele>2240</ele>
        <time>2018-06-09T07:23:03Z</time>
      </trkpt>
      <trkpt lat="42.64432" lon="1.72786">
        <ele>2239</ele>
        <time>2018-06-09T07:23:33Z</time>
      </trkpt>
      <trkpt lat="42.64442" lon="1.72787">
        <ele>2238</ele>
        <time>2018-06-09T07:23:54Z</time>
      </trkpt>
      <trkpt lat="42.6445" lon="1.72783">
        <ele>2237</ele>
        <time>2018-06-09T07:24:14Z</time>
      </trkpt>
      <trkpt lat="42.64457" lon="1.72783">
        <ele>2236</ele>
        <time>2018-06-09T07:24:30Z</time>
      </trkpt>
      <trkpt lat="42.64465" lon="1.72779">
        <ele>2235</ele>
        <time>2018-06-09T07:24:50Z</time>
      </trkpt>
      <trkpt lat="42.64473" lon="1.7278">
        <ele>2234</ele>
        <time>2018-06-09T07:25:09Z</time>
      </trkpt>
      <trkpt lat="42.64482" lon="1.72778">
        <ele>2232</ele>
        <time>2018-06-09T07:25:34Z</time>
      </trkpt>
      <trkpt lat="42.64488" lon="1.72771">
        <ele>2230</ele>
        <time>2018-06-09T07:25:47Z</time>
      </trkpt>
      <trkpt lat="42.64495" lon="1.72765">
        <ele>2228</ele>
        <time>2018-06-09T07:26:01Z</time>
      </trkpt>
      <trkpt lat="42.64504" lon="1.72757">
        <ele>2217</ele>
        <time>2018-06-09T07:26:16Z</time>
      </trkpt>
      <trkpt lat="42.64513" lon="1.72756">
        <ele>2215</ele>
        <time>2018-06-09T07:26:33Z</time>
      </trkpt>
      <trkpt lat="42.64522" lon="1.7276">
        <ele>2211</ele>
        <time>2018-06-09T07:26:48Z</time>
      </trkpt>
      <trkpt lat="42.64527" lon="1.72751">
        <ele>2210</ele>
        <time>2018-06-09T07:27:04Z</time>
      </trkpt>
      <trkpt lat="42.64538" lon="1.72757">
        <ele>2207</ele>
        <time>2018-06-09T07:27:21Z</time>
      </trkpt>
      <trkpt lat="42.64547" lon="1.72761">
        <ele>2204</ele>
        <time>2018-06-09T07:27:36Z</time>
      </trkpt>
      <trkpt lat="42.64557" lon="1.72765">
        <ele>2201</ele>
        <time>2018-06-09T07:27:52Z</time>
      </trkpt>
      <trkpt lat="42.64565" lon="1.72772">
        <ele>2200</ele>
        <time>2018-06-09T07:28:05Z</time>
      </trkpt>
      <trkpt lat="42.64573" lon="1.72778">
        <ele>2199</ele>
        <time>2018-06-09T07:28:20Z</time>
      </trkpt>
      <trkpt lat="42.6458" lon="1.72772">
        <ele>2196</ele>
        <time>2018-06-09T07:28:36Z</time>
      </trkpt>
      <trkpt lat="42.6459" lon="1.7277">
        <ele>2174</ele>
        <time>2018-06-09T07:28:55Z</time>
      </trkpt>
      <trkpt lat="42.64596" lon="1.72765">
        <ele>2174</ele>
        <time>2018-06-09T07:29:11Z</time>
      </trkpt>
      <trkpt lat="42.64604" lon="1.72757">
        <ele>2172</ele>
        <time>2018-06-09T07:29:30Z</time>
      </trkpt>
      <trkpt lat="42.64608" lon="1.72746">
        <ele>2176</ele>
        <time>2018-06-09T07:29:45Z</time>
      </trkpt>
      <trkpt lat="42.64616" lon="1.72737">
        <ele>2174</ele>
        <time>2018-06-09T07:29:55Z</time>
      </trkpt>
      <trkpt lat="42.64625" lon="1.72729">
        <ele>2172</ele>
        <time>2018-06-09T07:30:05Z</time>
      </trkpt>
      <trkpt lat="42.64634" lon="1.72723">
        <ele>2170</ele>
        <time>2018-06-09T07:30:14Z</time>
      </trkpt>
      <trkpt lat="42.64643" lon="1.7272">
        <ele>2169</ele>
        <time>2018-06-09T07:30:24Z</time>
      </trkpt>
      <trkpt lat="42.64653" lon="1.7272">
        <ele>2167</ele>
        <time>2018-06-09T07:30:35Z</time>
      </trkpt>
      <trkpt lat="42.64664" lon="1.72722">
        <ele>2165</ele>
        <time>2018-06-09T07:30:47Z</time>
      </trkpt>
      <trkpt lat="42.64674" lon="1.72722">
        <ele>2148</ele>
        <time>2018-06-09T07:30:58Z</time>
      </trkpt>
      <trkpt lat="42.64685" lon="1.72723">
        <ele>2147</ele>
        <time>2018-06-09T07:31:08Z</time>
      </trkpt>
      <trkpt lat="42.64695" lon="1.72724">
        <ele>2145</ele>
        <time>2018-06-09T07:31:19Z</time>
      </trkpt>
      <trkpt lat="42.64703" lon="1.72723">
        <ele>2144</ele>
        <time>2018-06-09T07:31:30Z</time>
      </trkpt>
      <trkpt lat="42.64714" lon="1.72724">
        <ele>2142</ele>
        <time>2018-06-09T07:31:43Z</time>
      </trkpt>
      <trkpt lat="42.64723" lon="1.72726">
        <ele>2139</ele>
        <time>2018-06-09T07:31:56Z</time>
      </trkpt>
      <trkpt lat="42.64734" lon="1.72727">
        <ele>2137</ele>
        <time>2018-06-09T07:32:10Z</time>
      </trkpt>
      <trkpt lat="42.64743" lon="1.72734">
        <ele>2133</ele>
        <time>2018-06-09T07:32:22Z</time>
      </trkpt>
      <trkpt lat="42.64751" lon="1.72735">
        <ele>2121</ele>
        <time>2018-06-09T07:32:48Z</time>
      </trkpt>
      <trkpt lat="42.64758" lon="1.72731">
        <ele>2121</ele>
        <time>2018-06-09T07:33:02Z</time>
      </trkpt>
      <trkpt lat="42.64767" lon="1.72732">
        <ele>2120</ele>
        <time>2018-06-09T07:33:13Z</time>
      </trkpt>
      <trkpt lat="42.64774" lon="1.72724">
        <ele>2120</ele>
        <time>2018-06-09T07:33:25Z</time>
      </trkpt>
      <trkpt lat="42.64785" lon="1.7272">
        <ele>2119</ele>
        <time>2018-06-09T07:33:40Z</time>
      </trkpt>
      <trkpt lat="42.64791" lon="1.72715">
        <ele>2118</ele>
        <time>2018-06-09T07:33:55Z</time>
      </trkpt>
      <trkpt lat="42.64798" lon="1.72711">
        <ele>2118</ele>
        <time>2018-06-09T07:34:10Z</time>
      </trkpt>
      <trkpt lat="42.64809" lon="1.7271">
        <ele>2117</ele>
        <time>2018-06-09T07:34:21Z</time>
      </trkpt>
      <trkpt lat="42.64819" lon="1.7271">
        <ele>2116</ele>
        <time>2018-06-09T07:34:32Z</time>
      </trkpt>
      <trkpt lat="42.64828" lon="1.72703">
        <ele>2116</ele>
        <time>2018-06-09T07:34:48Z</time>
      </trkpt>
      <trkpt lat="42.64835" lon="1.727">
        <ele>2103</ele>
        <time>2018-06-09T07:35:01Z</time>
      </trkpt>
      <trkpt lat="42.64843" lon="1.727">
        <ele>2102</ele>
        <time>2018-06-09T07:35:14Z</time>
      </trkpt>
      <trkpt lat="42.64852" lon="1.72698">
        <ele>2101</ele>
        <time>2018-06-09T07:35:28Z</time>
      </trkpt>
      <trkpt lat="42.64862" lon="1.72694">
        <ele>2100</ele>
        <time>2018-06-09T07:35:43Z</time>
      </trkpt>
      <trkpt lat="42.64871" lon="1.7269">
        <ele>2099</ele>
        <time>2018-06-09T07:35:56Z</time>
      </trkpt>
      <trkpt lat="42.64881" lon="1.72699">
        <ele>2097</ele>
        <time>2018-06-09T07:36:09Z</time>
      </trkpt>
      <trkpt lat="42.64898" lon="1.72702">
        <ele>2095</ele>
        <time>2018-06-09T07:41:07Z</time>
      </trkpt>
      <trkpt lat="42.64909" lon="1.72699">
        <ele>2094</ele>
        <time>2018-06-09T07:41:18Z</time>
      </trkpt>
      <trkpt lat="42.64919" lon="1.72697">
        <ele>2083</ele>
        <time>2018-06-09T07:41:28Z</time>
      </trkpt>
      <trkpt lat="42.64928" lon="1.72694">
        <ele>2083</ele>
        <time>2018-06-09T07:41:40Z</time>
      </trkpt>
      <trkpt lat="42.64939" lon="1.72689">
        <ele>2083</ele>
        <time>2018-06-09T07:41:50Z</time>
      </trkpt>
      <trkpt lat="42.64947" lon="1.72683">
        <ele>2083</ele>
        <time>2018-06-09T07:42:00Z</time>
      </trkpt>
      <trkpt lat="42.64954" lon="1.7268">
        <ele>2082</ele>
        <time>2018-06-09T07:42:12Z</time>
      </trkpt>
      <trkpt lat="42.64966" lon="1.72679">
        <ele>2081</ele>
        <time>2018-06-09T07:42:23Z</time>
      </trkpt>
      <trkpt lat="42.64975" lon="1.72677">
        <ele>2080</ele>
        <time>2018-06-09T07:42:36Z</time>
      </trkpt>
      <trkpt lat="42.64986" lon="1.72672">
        <ele>2079</ele>
        <time>2018-06-09T07:42:47Z</time>
      </trkpt>
      <trkpt lat="42.64996" lon="1.72668">
        <ele>2078</ele>
        <time>2018-06-09T07:42:56Z</time>
      </trkpt>
      <trkpt lat="42.65005" lon="1.72662">
        <ele>2079</ele>
        <time>2018-06-09T07:43:07Z</time>
      </trkpt>
      <trkpt lat="42.65014" lon="1.72656">
        <ele>2079</ele>
        <time>2018-06-09T07:43:16Z</time>
      </trkpt>
      <trkpt lat="42.65023" lon="1.7265">
        <ele>2079</ele>
        <time>2018-06-09T07:43:27Z</time>
      </trkpt>
      <trkpt lat="42.65032" lon="1.72649">
        <ele>2079</ele>
        <time>2018-06-09T07:43:37Z</time>
      </trkpt>
      <trkpt lat="42.65042" lon="1.72646">
        <ele>2079</ele>
        <time>2018-06-09T07:45:06Z</time>
      </trkpt>
      <trkpt lat="42.65043" lon="1.72649">
        <ele>2079</ele>
        <time>2018-06-09T07:46:44Z</time>
      </trkpt>
      <trkpt lat="42.65057" lon="1.72646">
        <ele>2078</ele>
        <time>2018-06-09T07:47:04Z</time>
      </trkpt>
      <trkpt lat="42.65066" lon="1.72646">
        <ele>2077</ele>
        <time>2018-06-09T07:47:13Z</time>
      </trkpt>
      <trkpt lat="42.65073" lon="1.7265">
        <ele>2076</ele>
        <time>2018-06-09T07:47:22Z</time>
      </trkpt>
      <trkpt lat="42.65083" lon="1.72652">
        <ele>2075</ele>
        <time>2018-06-09T07:47:31Z</time>
      </trkpt>
      <trkpt lat="42.6509" lon="1.72655">
        <ele>2073</ele>
        <time>2018-06-09T07:47:40Z</time>
      </trkpt>
      <trkpt lat="42.651" lon="1.7266">
        <ele>2073</ele>
        <time>2018-06-09T07:47:49Z</time>
      </trkpt>
      <trkpt lat="42.6511" lon="1.72663">
        <ele>2074</ele>
        <time>2018-06-09T07:47:58Z</time>
      </trkpt>
      <trkpt lat="42.65118" lon="1.72664">
        <ele>2074</ele>
        <time>2018-06-09T07:48:08Z</time>
      </trkpt>
      <trkpt lat="42.65127" lon="1.72666">
        <ele>2074</ele>
        <time>2018-06-09T07:48:18Z</time>
      </trkpt>
      <trkpt lat="42.65136" lon="1.7267">
        <ele>2067</ele>
        <time>2018-06-09T07:48:27Z</time>
      </trkpt>
      <trkpt lat="42.65144" lon="1.72677">
        <ele>2067</ele>
        <time>2018-06-09T07:48:42Z</time>
      </trkpt>
      <trkpt lat="42.65152" lon="1.72682">
        <ele>2067</ele>
        <time>2018-06-09T07:48:52Z</time>
      </trkpt>
      <trkpt lat="42.65163" lon="1.72685">
        <ele>2067</ele>
        <time>2018-06-09T07:49:09Z</time>
      </trkpt>
      <trkpt lat="42.6517" lon="1.72694">
        <ele>2063</ele>
        <time>2018-06-09T07:49:20Z</time>
      </trkpt>
      <trkpt lat="42.6518" lon="1.72698">
        <ele>2063</ele>
        <time>2018-06-09T07:49:33Z</time>
      </trkpt>
      <trkpt lat="42.65188" lon="1.72702">
        <ele>2062</ele>
        <time>2018-06-09T07:49:42Z</time>
      </trkpt>
      <trkpt lat="42.65197" lon="1.72709">
        <ele>2061</ele>
        <time>2018-06-09T07:49:52Z</time>
      </trkpt>
      <trkpt lat="42.65205" lon="1.72714">
        <ele>2060</ele>
        <time>2018-06-09T07:50:01Z</time>
      </trkpt>
      <trkpt lat="42.65216" lon="1.72715">
        <ele>2060</ele>
        <time>2018-06-09T07:50:11Z</time>
      </trkpt>
      <trkpt lat="42.65227" lon="1.72718">
        <ele>2059</ele>
        <time>2018-06-09T07:50:20Z</time>
      </trkpt>
      <trkpt lat="42.65237" lon="1.72723">
        <ele>2058</ele>
        <time>2018-06-09T07:50:29Z</time>
      </trkpt>
      <trkpt lat="42.65245" lon="1.7273">
        <ele>2057</ele>
        <time>2018-06-09T07:50:38Z</time>
      </trkpt>
      <trkpt lat="42.65254" lon="1.72736">
        <ele>2055</ele>
        <time>2018-06-09T07:50:47Z</time>
      </trkpt>
      <trkpt lat="42.65264" lon="1.7274">
        <ele>2055</ele>
        <time>2018-06-09T07:50:56Z</time>
      </trkpt>
      <trkpt lat="42.65274" lon="1.72746">
        <ele>2055</ele>
        <time>2018-06-09T07:51:05Z</time>
      </trkpt>
      <trkpt lat="42.65283" lon="1.72752">
        <ele>2052</ele>
        <time>2018-06-09T07:51:14Z</time>
      </trkpt>
      <trkpt lat="42.65292" lon="1.7276">
        <ele>2052</ele>
        <time>2018-06-09T07:51:23Z</time>
      </trkpt>
      <trkpt lat="42.65301" lon="1.72765">
        <ele>2052</ele>
        <time>2018-06-09T07:51:31Z</time>
      </trkpt>
      <trkpt lat="42.65309" lon="1.72771">
        <ele>2052</ele>
        <time>2018-06-09T07:51:39Z</time>
      </trkpt>
      <trkpt lat="42.65319" lon="1.72777">
        <ele>2052</ele>
        <time>2018-06-09T07:51:48Z</time>
      </trkpt>
      <trkpt lat="42.65328" lon="1.72781">
        <ele>2052</ele>
        <time>2018-06-09T07:51:57Z</time>
      </trkpt>
      <trkpt lat="42.65336" lon="1.72786">
        <ele>2053</ele>
        <time>2018-06-09T07:52:22Z</time>
      </trkpt>
      <trkpt lat="42.65345" lon="1.72787">
        <ele>2052</ele>
        <time>2018-06-09T07:52:31Z</time>
      </trkpt>
      <trkpt lat="42.65354" lon="1.72789">
        <ele>2052</ele>
        <time>2018-06-09T07:52:40Z</time>
      </trkpt>
      <trkpt lat="42.65363" lon="1.72793">
        <ele>2052</ele>
        <time>2018-06-09T07:52:49Z</time>
      </trkpt>
      <trkpt lat="42.65372" lon="1.72795">
        <ele>2051</ele>
        <time>2018-06-09T07:52:58Z</time>
      </trkpt>
      <trkpt lat="42.65381" lon="1.72796">
        <ele>2051</ele>
        <time>2018-06-09T07:53:07Z</time>
      </trkpt>
      <trkpt lat="42.6539" lon="1.72798">
        <ele>2051</ele>
        <time>2018-06-09T07:53:16Z</time>
      </trkpt>
      <trkpt lat="42.654" lon="1.72801">
        <ele>2050</ele>
        <time>2018-06-09T07:53:25Z</time>
      </trkpt>
      <trkpt lat="42.65411" lon="1.72801">
        <ele>2050</ele>
        <time>2018-06-09T07:53:35Z</time>
      </trkpt>
      <trkpt lat="42.6542" lon="1.72806">
        <ele>2048</ele>
        <time>2018-06-09T07:53:44Z</time>
      </trkpt>
      <trkpt lat="42.65429" lon="1.72805">
        <ele>2048</ele>
        <time>2018-06-09T07:53:53Z</time>
      </trkpt>
      <trkpt lat="42.65438" lon="1.72804">
        <ele>2048</ele>
        <time>2018-06-09T07:54:02Z</time>
      </trkpt>
      <trkpt lat="42.65449" lon="1.72804">
        <ele>2048</ele>
        <time>2018-06-09T07:54:12Z</time>
      </trkpt>
      <trkpt lat="42.65459" lon="1.72808">
        <ele>2047</ele>
        <time>2018-06-09T07:54:21Z</time>
      </trkpt>
      <trkpt lat="42.65468" lon="1.72812">
        <ele>2047</ele>
        <time>2018-06-09T07:54:30Z</time>
      </trkpt>
      <trkpt lat="42.65478" lon="1.72814">
        <ele>2047</ele>
        <time>2018-06-09T07:54:40Z</time>
      </trkpt>
      <trkpt lat="42.65488" lon="1.72814">
        <ele>2047</ele>
        <time>2018-06-09T07:54:49Z</time>
      </trkpt>
      <trkpt lat="42.65498" lon="1.72815">
        <ele>2046</ele>
        <time>2018-06-09T07:54:59Z</time>
      </trkpt>
      <trkpt lat="42.65508" lon="1.72815">
        <ele>2046</ele>
        <time>2018-06-09T07:55:08Z</time>
      </trkpt>
      <trkpt lat="42.65518" lon="1.72818">
        <ele>2046</ele>
        <time>2018-06-09T07:55:17Z</time>
      </trkpt>
      <trkpt lat="42.65527" lon="1.7282">
        <ele>2046</ele>
        <time>2018-06-09T07:55:26Z</time>
      </trkpt>
      <trkpt lat="42.65537" lon="1.72823">
        <ele>2046</ele>
        <time>2018-06-09T07:55:35Z</time>
      </trkpt>
      <trkpt lat="42.65545" lon="1.72829">
        <ele>2045</ele>
        <time>2018-06-09T07:55:45Z</time>
      </trkpt>
      <trkpt lat="42.65554" lon="1.72835">
        <ele>2037</ele>
        <time>2018-06-09T07:55:55Z</time>
      </trkpt>
      <trkpt lat="42.65563" lon="1.72836">
        <ele>2038</ele>
        <time>2018-06-09T07:56:07Z</time>
      </trkpt>
      <trkpt lat="42.65573" lon="1.7284">
        <ele>2038</ele>
        <time>2018-06-09T07:56:32Z</time>
      </trkpt>
      <trkpt lat="42.65582" lon="1.72846">
        <ele>2038</ele>
        <time>2018-06-09T07:56:42Z</time>
      </trkpt>
      <trkpt lat="42.65592" lon="1.72845">
        <ele>2035</ele>
        <time>2018-06-09T07:56:53Z</time>
      </trkpt>
      <trkpt lat="42.65601" lon="1.72848">
        <ele>2033</ele>
        <time>2018-06-09T07:57:03Z</time>
      </trkpt>
      <trkpt lat="42.65611" lon="1.72853">
        <ele>2031</ele>
        <time>2018-06-09T07:57:12Z</time>
      </trkpt>
      <trkpt lat="42.6562" lon="1.72854">
        <ele>2030</ele>
        <time>2018-06-09T07:57:22Z</time>
      </trkpt>
      <trkpt lat="42.6563" lon="1.72854">
        <ele>2029</ele>
        <time>2018-06-09T07:57:31Z</time>
      </trkpt>
      <trkpt lat="42.65639" lon="1.72857">
        <ele>2029</ele>
        <time>2018-06-09T07:57:43Z</time>
      </trkpt>
      <trkpt lat="42.65649" lon="1.72859">
        <ele>2028</ele>
        <time>2018-06-09T07:57:54Z</time>
      </trkpt>
      <trkpt lat="42.65658" lon="1.72862">
        <ele>2028</ele>
        <time>2018-06-09T07:58:05Z</time>
      </trkpt>
      <trkpt lat="42.65668" lon="1.72867">
        <ele>2021</ele>
        <time>2018-06-09T07:58:15Z</time>
      </trkpt>
      <trkpt lat="42.65678" lon="1.72864">
        <ele>2021</ele>
        <time>2018-06-09T07:58:52Z</time>
      </trkpt>
      <trkpt lat="42.65687" lon="1.72864">
        <ele>2021</ele>
        <time>2018-06-09T07:59:02Z</time>
      </trkpt>
      <trkpt lat="42.65697" lon="1.72862">
        <ele>2020</ele>
        <time>2018-06-09T07:59:14Z</time>
      </trkpt>
      <trkpt lat="42.65705" lon="1.72858">
        <ele>2020</ele>
        <time>2018-06-09T07:59:25Z</time>
      </trkpt>
      <trkpt lat="42.65713" lon="1.72854">
        <ele>2020</ele>
        <time>2018-06-09T08:00:05Z</time>
      </trkpt>
      <trkpt lat="42.65717" lon="1.72857">
        <ele>2019</ele>
        <time>2018-06-09T08:01:15Z</time>
      </trkpt>
      <trkpt lat="42.65726" lon="1.72862">
        <ele>2018</ele>
        <time>2018-06-09T08:01:24Z</time>
      </trkpt>
      <trkpt lat="42.65735" lon="1.72867">
        <ele>2018</ele>
        <time>2018-06-09T08:01:33Z</time>
      </trkpt>
      <trkpt lat="42.65744" lon="1.72869">
        <ele>2017</ele>
        <time>2018-06-09T08:01:42Z</time>
      </trkpt>
      <trkpt lat="42.65753" lon="1.72873">
        <ele>2012</ele>
        <time>2018-06-09T08:01:52Z</time>
      </trkpt>
      <trkpt lat="42.65762" lon="1.72877">
        <ele>2012</ele>
        <time>2018-06-09T08:02:02Z</time>
      </trkpt>
      <trkpt lat="42.65772" lon="1.72879">
        <ele>2012</ele>
        <time>2018-06-09T08:02:12Z</time>
      </trkpt>
      <trkpt lat="42.65782" lon="1.72882">
        <ele>2011</ele>
        <time>2018-06-09T08:02:22Z</time>
      </trkpt>
      <trkpt lat="42.65792" lon="1.72885">
        <ele>2011</ele>
        <time>2018-06-09T08:02:31Z</time>
      </trkpt>
      <trkpt lat="42.65802" lon="1.72887">
        <ele>2010</ele>
        <time>2018-06-09T08:02:41Z</time>
      </trkpt>
      <trkpt lat="42.6581" lon="1.72889">
        <ele>2010</ele>
        <time>2018-06-09T08:02:50Z</time>
      </trkpt>
      <trkpt lat="42.65819" lon="1.72891">
        <ele>2009</ele>
        <time>2018-06-09T08:02:59Z</time>
      </trkpt>
      <trkpt lat="42.65829" lon="1.72895">
        <ele>2008</ele>
        <time>2018-06-09T08:03:09Z</time>
      </trkpt>
      <trkpt lat="42.65838" lon="1.72898">
        <ele>2004</ele>
        <time>2018-06-09T08:03:18Z</time>
      </trkpt>
      <trkpt lat="42.65847" lon="1.72903">
        <ele>2004</ele>
        <time>2018-06-09T08:03:28Z</time>
      </trkpt>
      <trkpt lat="42.65857" lon="1.72906">
        <ele>2003</ele>
        <time>2018-06-09T08:03:38Z</time>
      </trkpt>
      <trkpt lat="42.65867" lon="1.72908">
        <ele>2003</ele>
        <time>2018-06-09T08:03:48Z</time>
      </trkpt>
      <trkpt lat="42.65877" lon="1.72906">
        <ele>2002</ele>
        <time>2018-06-09T08:03:58Z</time>
      </trkpt>
      <trkpt lat="42.65887" lon="1.72906">
        <ele>2001</ele>
        <time>2018-06-09T08:04:08Z</time>
      </trkpt>
      <trkpt lat="42.65897" lon="1.72909">
        <ele>1999</ele>
        <time>2018-06-09T08:04:18Z</time>
      </trkpt>
      <trkpt lat="42.65905" lon="1.72913">
        <ele>1997</ele>
        <time>2018-06-09T08:04:27Z</time>
      </trkpt>
      <trkpt lat="42.65915" lon="1.72918">
        <ele>1992</ele>
        <time>2018-06-09T08:04:37Z</time>
      </trkpt>
      <trkpt lat="42.65924" lon="1.72923">
        <ele>1988</ele>
        <time>2018-06-09T08:04:47Z</time>
      </trkpt>
      <trkpt lat="42.65933" lon="1.72923">
        <ele>1986</ele>
        <time>2018-06-09T08:04:58Z</time>
      </trkpt>
      <trkpt lat="42.65942" lon="1.72921">
        <ele>1984</ele>
        <time>2018-06-09T08:05:33Z</time>
      </trkpt>
      <trkpt lat="42.65948" lon="1.72921">
        <ele>1984</ele>
        <time>2018-06-09T08:06:04Z</time>
      </trkpt>
      <trkpt lat="42.65957" lon="1.72925">
        <ele>1983</ele>
        <time>2018-06-09T08:06:15Z</time>
      </trkpt>
      <trkpt lat="42.65966" lon="1.72925">
        <ele>1982</ele>
        <time>2018-06-09T08:06:25Z</time>
      </trkpt>
      <trkpt lat="42.65975" lon="1.7293">
        <ele>1982</ele>
        <time>2018-06-09T08:06:36Z</time>
      </trkpt>
      <trkpt lat="42.65985" lon="1.72931">
        <ele>1982</ele>
        <time>2018-06-09T08:06:52Z</time>
      </trkpt>
      <trkpt lat="42.65994" lon="1.72934">
        <ele>1982</ele>
        <time>2018-06-09T08:07:07Z</time>
      </trkpt>
      <trkpt lat="42.66002" lon="1.72941">
        <ele>1974</ele>
        <time>2018-06-09T08:07:21Z</time>
      </trkpt>
      <trkpt lat="42.6601" lon="1.72946">
        <ele>1972</ele>
        <time>2018-06-09T08:07:35Z</time>
      </trkpt>
      <trkpt lat="42.66018" lon="1.72954">
        <ele>1969</ele>
        <time>2018-06-09T08:07:50Z</time>
      </trkpt>
      <trkpt lat="42.66026" lon="1.72961">
        <ele>1967</ele>
        <time>2018-06-09T08:08:02Z</time>
      </trkpt>
      <trkpt lat="42.66035" lon="1.72967">
        <ele>1965</ele>
        <time>2018-06-09T08:08:15Z</time>
      </trkpt>
      <trkpt lat="42.66043" lon="1.72971">
        <ele>1964</ele>
        <time>2018-06-09T08:08:27Z</time>
      </trkpt>
      <trkpt lat="42.66052" lon="1.72975">
        <ele>1962</ele>
        <time>2018-06-09T08:08:39Z</time>
      </trkpt>
      <trkpt lat="42.66061" lon="1.72978">
        <ele>1960</ele>
        <time>2018-06-09T08:08:51Z</time>
      </trkpt>
      <trkpt lat="42.6607" lon="1.72973">
        <ele>1959</ele>
        <time>2018-06-09T08:09:01Z</time>
      </trkpt>
      <trkpt lat="42.6608" lon="1.72974">
        <ele>1958</ele>
        <time>2018-06-09T08:09:13Z</time>
      </trkpt>
      <trkpt lat="42.66088" lon="1.72979">
        <ele>1950</ele>
        <time>2018-06-09T08:09:25Z</time>
      </trkpt>
      <trkpt lat="42.66097" lon="1.72982">
        <ele>1950</ele>
        <time>2018-06-09T08:09:38Z</time>
      </trkpt>
      <trkpt lat="42.66106" lon="1.72983">
        <ele>1950</ele>
        <time>2018-06-09T08:09:51Z</time>
      </trkpt>
      <trkpt lat="42.66116" lon="1.72986">
        <ele>1950</ele>
        <time>2018-06-09T08:10:05Z</time>
      </trkpt>
      <trkpt lat="42.66124" lon="1.72988">
        <ele>1949</ele>
        <time>2018-06-09T08:10:18Z</time>
      </trkpt>
      <trkpt lat="42.66134" lon="1.72994">
        <ele>1948</ele>
        <time>2018-06-09T08:10:31Z</time>
      </trkpt>
      <trkpt lat="42.66145" lon="1.72994">
        <ele>1945</ele>
        <time>2018-06-09T08:10:44Z</time>
      </trkpt>
      <trkpt lat="42.66153" lon="1.72999">
        <ele>1941</ele>
        <time>2018-06-09T08:10:58Z</time>
      </trkpt>
      <trkpt lat="42.66161" lon="1.73006">
        <ele>1931</ele>
        <time>2018-06-09T08:12:32Z</time>
      </trkpt>
      <trkpt lat="42.6617" lon="1.73005">
        <ele>1929</ele>
        <time>2018-06-09T08:12:45Z</time>
      </trkpt>
      <trkpt lat="42.66178" lon="1.73011">
        <ele>1925</ele>
        <time>2018-06-09T08:12:57Z</time>
      </trkpt>
      <trkpt lat="42.66183" lon="1.7302">
        <ele>1922</ele>
        <time>2018-06-09T08:13:09Z</time>
      </trkpt>
      <trkpt lat="42.66192" lon="1.7302">
        <ele>1921</ele>
        <time>2018-06-09T08:13:24Z</time>
      </trkpt>
      <trkpt lat="42.66201" lon="1.73025">
        <ele>1920</ele>
        <time>2018-06-09T08:13:37Z</time>
      </trkpt>
      <trkpt lat="42.66205" lon="1.73035">
        <ele>1918</ele>
        <time>2018-06-09T08:13:50Z</time>
      </trkpt>
      <trkpt lat="42.66206" lon="1.73045">
        <ele>1917</ele>
        <time>2018-06-09T08:14:05Z</time>
      </trkpt>
      <trkpt lat="42.66213" lon="1.73052">
        <ele>1915</ele>
        <time>2018-06-09T08:14:19Z</time>
      </trkpt>
      <trkpt lat="42.66221" lon="1.7306">
        <ele>1914</ele>
        <time>2018-06-09T08:14:34Z</time>
      </trkpt>
      <trkpt lat="42.66228" lon="1.73068">
        <ele>1911</ele>
        <time>2018-06-09T08:14:49Z</time>
      </trkpt>
      <trkpt lat="42.66237" lon="1.73071">
        <ele>1908</ele>
        <time>2018-06-09T08:15:00Z</time>
      </trkpt>
      <trkpt lat="42.66247" lon="1.73073">
        <ele>1905</ele>
        <time>2018-06-09T08:15:14Z</time>
      </trkpt>
      <trkpt lat="42.66254" lon="1.73078">
        <ele>1900</ele>
        <time>2018-06-09T08:15:27Z</time>
      </trkpt>
      <trkpt lat="42.66259" lon="1.73089">
        <ele>1893</ele>
        <time>2018-06-09T08:15:44Z</time>
      </trkpt>
      <trkpt lat="42.66266" lon="1.73093">
        <ele>1890</ele>
        <time>2018-06-09T08:15:58Z</time>
      </trkpt>
      <trkpt lat="42.66275" lon="1.73093">
        <ele>1888</ele>
        <time>2018-06-09T08:16:11Z</time>
      </trkpt>
      <trkpt lat="42.66285" lon="1.7309">
        <ele>1886</ele>
        <time>2018-06-09T08:16:20Z</time>
      </trkpt>
      <trkpt lat="42.66294" lon="1.73087">
        <ele>1885</ele>
        <time>2018-06-09T08:16:30Z</time>
      </trkpt>
      <trkpt lat="42.66304" lon="1.73083">
        <ele>1898</ele>
        <time>2018-06-09T08:16:40Z</time>
      </trkpt>
      <trkpt lat="42.66313" lon="1.73079">
        <ele>1896</ele>
        <time>2018-06-09T08:16:50Z</time>
      </trkpt>
      <trkpt lat="42.66323" lon="1.7308">
        <ele>1892</ele>
        <time>2018-06-09T08:17:01Z</time>
      </trkpt>
      <trkpt lat="42.66331" lon="1.73081">
        <ele>1887</ele>
        <time>2018-06-09T08:17:11Z</time>
      </trkpt>
      <trkpt lat="42.66342" lon="1.73078">
        <ele>1886</ele>
        <time>2018-06-09T08:17:22Z</time>
      </trkpt>
      <trkpt lat="42.6635" lon="1.73072">
        <ele>1887</ele>
        <time>2018-06-09T08:17:33Z</time>
      </trkpt>
      <trkpt lat="42.66358" lon="1.73068">
        <ele>1887</ele>
        <time>2018-06-09T08:17:44Z</time>
      </trkpt>
      <trkpt lat="42.66368" lon="1.73065">
        <ele>1887</ele>
        <time>2018-06-09T08:17:54Z</time>
      </trkpt>
      <trkpt lat="42.66374" lon="1.73066">
        <ele>1886</ele>
        <time>2018-06-09T08:21:11Z</time>
      </trkpt>
      <trkpt lat="42.66384" lon="1.73064">
        <ele>1885</ele>
        <time>2018-06-09T08:21:22Z</time>
      </trkpt>
      <trkpt lat="42.66391" lon="1.73056">
        <ele>1885</ele>
        <time>2018-06-09T08:21:32Z</time>
      </trkpt>
      <trkpt lat="42.664" lon="1.73056">
        <ele>1884</ele>
        <time>2018-06-09T08:21:46Z</time>
      </trkpt>
      <trkpt lat="42.66411" lon="1.73054">
        <ele>1883</ele>
        <time>2018-06-09T08:21:58Z</time>
      </trkpt>
      <trkpt lat="42.6642" lon="1.73053">
        <ele>1872</ele>
        <time>2018-06-09T08:22:09Z</time>
      </trkpt>
      <trkpt lat="42.6643" lon="1.73052">
        <ele>1872</ele>
        <time>2018-06-09T08:22:20Z</time>
      </trkpt>
      <trkpt lat="42.66439" lon="1.73045">
        <ele>1872</ele>
        <time>2018-06-09T08:22:31Z</time>
      </trkpt>
      <trkpt lat="42.66447" lon="1.7304">
        <ele>1872</ele>
        <time>2018-06-09T08:22:43Z</time>
      </trkpt>
      <trkpt lat="42.66455" lon="1.73036">
        <ele>1871</ele>
        <time>2018-06-09T08:22:55Z</time>
      </trkpt>
      <trkpt lat="42.66464" lon="1.7303">
        <ele>1871</ele>
        <time>2018-06-09T08:23:05Z</time>
      </trkpt>
      <trkpt lat="42.66474" lon="1.73025">
        <ele>1870</ele>
        <time>2018-06-09T08:23:18Z</time>
      </trkpt>
      <trkpt lat="42.66483" lon="1.73023">
        <ele>1869</ele>
        <time>2018-06-09T08:23:32Z</time>
      </trkpt>
      <trkpt lat="42.66492" lon="1.73022">
        <ele>1869</ele>
        <time>2018-06-09T08:23:41Z</time>
      </trkpt>
      <trkpt lat="42.66502" lon="1.73018">
        <ele>1860</ele>
        <time>2018-06-09T08:23:50Z</time>
      </trkpt>
      <trkpt lat="42.6651" lon="1.73012">
        <ele>1860</ele>
        <time>2018-06-09T08:23:59Z</time>
      </trkpt>
      <trkpt lat="42.66518" lon="1.73007">
        <ele>1859</ele>
        <time>2018-06-09T08:24:09Z</time>
      </trkpt>
      <trkpt lat="42.66527" lon="1.73001">
        <ele>1857</ele>
        <time>2018-06-09T08:24:18Z</time>
      </trkpt>
      <trkpt lat="42.66536" lon="1.72994">
        <ele>1863</ele>
        <time>2018-06-09T08:24:29Z</time>
      </trkpt>
      <trkpt lat="42.66543" lon="1.72989">
        <ele>1862</ele>
        <time>2018-06-09T08:24:40Z</time>
      </trkpt>
      <trkpt lat="42.66551" lon="1.72986">
        <ele>1860</ele>
        <time>2018-06-09T08:24:50Z</time>
      </trkpt>
      <trkpt lat="42.6656" lon="1.7298">
        <ele>1859</ele>
        <time>2018-06-09T08:24:59Z</time>
      </trkpt>
      <trkpt lat="42.66567" lon="1.72974">
        <ele>1859</ele>
        <time>2018-06-09T08:25:09Z</time>
      </trkpt>
      <trkpt lat="42.66576" lon="1.72968">
        <ele>1859</ele>
        <time>2018-06-09T08:25:20Z</time>
      </trkpt>
      <trkpt lat="42.66584" lon="1.72959">
        <ele>1848</ele>
        <time>2018-06-09T08:25:30Z</time>
      </trkpt>
      <trkpt lat="42.66592" lon="1.72954">
        <ele>1849</ele>
        <time>2018-06-09T08:25:40Z</time>
      </trkpt>
      <trkpt lat="42.66601" lon="1.72948">
        <ele>1849</ele>
        <time>2018-06-09T08:25:54Z</time>
      </trkpt>
      <trkpt lat="42.6661" lon="1.72943">
        <ele>1849</ele>
        <time>2018-06-09T08:26:05Z</time>
      </trkpt>
      <trkpt lat="42.66616" lon="1.72936">
        <ele>1850</ele>
        <time>2018-06-09T08:26:15Z</time>
      </trkpt>
      <trkpt lat="42.66625" lon="1.72932">
        <ele>1849</ele>
        <time>2018-06-09T08:26:25Z</time>
      </trkpt>
      <trkpt lat="42.66634" lon="1.72927">
        <ele>1849</ele>
        <time>2018-06-09T08:26:38Z</time>
      </trkpt>
      <trkpt lat="42.66644" lon="1.72924">
        <ele>1848</ele>
        <time>2018-06-09T08:26:50Z</time>
      </trkpt>
      <trkpt lat="42.6665" lon="1.72916">
        <ele>1855</ele>
        <time>2018-06-09T08:27:00Z</time>
      </trkpt>
      <trkpt lat="42.66659" lon="1.72906">
        <ele>1855</ele>
        <time>2018-06-09T08:27:35Z</time>
      </trkpt>
      <trkpt lat="42.66666" lon="1.729">
        <ele>1855</ele>
        <time>2018-06-09T08:27:46Z</time>
      </trkpt>
      <trkpt lat="42.66675" lon="1.72898">
        <ele>1850</ele>
        <time>2018-06-09T08:27:55Z</time>
      </trkpt>
      <trkpt lat="42.66683" lon="1.72895">
        <ele>1851</ele>
        <time>2018-06-09T08:28:06Z</time>
      </trkpt>
      <trkpt lat="42.66692" lon="1.72889">
        <ele>1851</ele>
        <time>2018-06-09T08:28:16Z</time>
      </trkpt>
      <trkpt lat="42.667" lon="1.72884">
        <ele>1851</ele>
        <time>2018-06-09T08:28:25Z</time>
      </trkpt>
      <trkpt lat="42.66709" lon="1.72879">
        <ele>1851</ele>
        <time>2018-06-09T08:28:34Z</time>
      </trkpt>
      <trkpt lat="42.66718" lon="1.72875">
        <ele>1851</ele>
        <time>2018-06-09T08:28:44Z</time>
      </trkpt>
      <trkpt lat="42.66727" lon="1.72868">
        <ele>1851</ele>
        <time>2018-06-09T08:28:54Z</time>
      </trkpt>
      <trkpt lat="42.66734" lon="1.72861">
        <ele>1851</ele>
        <time>2018-06-09T08:29:03Z</time>
      </trkpt>
      <trkpt lat="42.66743" lon="1.72855">
        <ele>1851</ele>
        <time>2018-06-09T08:29:14Z</time>
      </trkpt>
      <trkpt lat="42.66752" lon="1.72854">
        <ele>1847</ele>
        <time>2018-06-09T08:29:23Z</time>
      </trkpt>
      <trkpt lat="42.66762" lon="1.7285">
        <ele>1846</ele>
        <time>2018-06-09T08:29:31Z</time>
      </trkpt>
      <trkpt lat="42.66771" lon="1.72847">
        <ele>1846</ele>
        <time>2018-06-09T08:29:40Z</time>
      </trkpt>
      <trkpt lat="42.6678" lon="1.72846">
        <ele>1845</ele>
        <time>2018-06-09T08:29:51Z</time>
      </trkpt>
      <trkpt lat="42.66789" lon="1.72845">
        <ele>1844</ele>
        <time>2018-06-09T08:30:01Z</time>
      </trkpt>
      <trkpt lat="42.66798" lon="1.72842">
        <ele>1844</ele>
        <time>2018-06-09T08:30:11Z</time>
      </trkpt>
      <trkpt lat="42.66807" lon="1.72832">
        <ele>1848</ele>
        <time>2018-06-09T08:30:20Z</time>
      </trkpt>
      <trkpt lat="42.66816" lon="1.72826">
        <ele>1847</ele>
        <time>2018-06-09T08:30:29Z</time>
      </trkpt>
      <trkpt lat="42.66824" lon="1.72822">
        <ele>1846</ele>
        <time>2018-06-09T08:30:39Z</time>
      </trkpt>
      <trkpt lat="42.66833" lon="1.72816">
        <ele>1846</ele>
        <time>2018-06-09T08:30:48Z</time>
      </trkpt>
      <trkpt lat="42.66842" lon="1.72813">
        <ele>1842</ele>
        <time>2018-06-09T08:30:58Z</time>
      </trkpt>
      <trkpt lat="42.6685" lon="1.7281">
        <ele>1842</ele>
        <time>2018-06-09T08:31:08Z</time>
      </trkpt>
      <trkpt lat="42.66859" lon="1.72806">
        <ele>1842</ele>
        <time>2018-06-09T08:31:18Z</time>
      </trkpt>
      <trkpt lat="42.66868" lon="1.72801">
        <ele>1842</ele>
        <time>2018-06-09T08:31:28Z</time>
      </trkpt>
      <trkpt lat="42.66876" lon="1.72794">
        <ele>1842</ele>
        <time>2018-06-09T08:31:42Z</time>
      </trkpt>
      <trkpt lat="42.6688" lon="1.72789">
        <ele>1842</ele>
        <time>2018-06-09T08:32:03Z</time>
      </trkpt>
      <trkpt lat="42.66886" lon="1.72781">
        <ele>1842</ele>
        <time>2018-06-09T08:32:15Z</time>
      </trkpt>
      <trkpt lat="42.66897" lon="1.72775">
        <ele>1842</ele>
        <time>2018-06-09T08:32:26Z</time>
      </trkpt>
      <trkpt lat="42.66903" lon="1.72766">
        <ele>1841</ele>
        <time>2018-06-09T08:32:37Z</time>
      </trkpt>
      <trkpt lat="42.66909" lon="1.72754">
        <ele>1840</ele>
        <time>2018-06-09T08:32:46Z</time>
      </trkpt>
      <trkpt lat="42.66915" lon="1.72744">
        <ele>1841</ele>
        <time>2018-06-09T08:32:55Z</time>
      </trkpt>
      <trkpt lat="42.6692" lon="1.72735">
        <ele>1838</ele>
        <time>2018-06-09T08:33:04Z</time>
      </trkpt>
      <trkpt lat="42.66925" lon="1.72725">
        <ele>1838</ele>
        <time>2018-06-09T08:33:14Z</time>
      </trkpt>
      <trkpt lat="42.66927" lon="1.72714">
        <ele>1838</ele>
        <time>2018-06-09T08:33:24Z</time>
      </trkpt>
      <trkpt lat="42.66935" lon="1.72704">
        <ele>1837</ele>
        <time>2018-06-09T08:33:32Z</time>
      </trkpt>
      <trkpt lat="42.66942" lon="1.72697">
        <ele>1837</ele>
        <time>2018-06-09T08:33:41Z</time>
      </trkpt>
      <trkpt lat="42.66952" lon="1.72692">
        <ele>1836</ele>
        <time>2018-06-09T08:33:51Z</time>
      </trkpt>
      <trkpt lat="42.66956" lon="1.72702">
        <ele>1836</ele>
        <time>2018-06-09T08:34:02Z</time>
      </trkpt>
      <trkpt lat="42.66951" lon="1.72715">
        <ele>1837</ele>
        <time>2018-06-09T08:34:20Z</time>
      </trkpt>
      <trkpt lat="42.66945" lon="1.72726">
        <ele>1837</ele>
        <time>2018-06-09T08:34:29Z</time>
      </trkpt>
      <trkpt lat="42.66939" lon="1.72738">
        <ele>1838</ele>
        <time>2018-06-09T08:34:39Z</time>
      </trkpt>
      <trkpt lat="42.66936" lon="1.72751">
        <ele>1840</ele>
        <time>2018-06-09T08:34:49Z</time>
      </trkpt>
      <trkpt lat="42.66935" lon="1.72762">
        <ele>1840</ele>
        <time>2018-06-09T08:35:02Z</time>
      </trkpt>
      <trkpt lat="42.6693" lon="1.72776">
        <ele>1840</ele>
        <time>2018-06-09T08:35:13Z</time>
      </trkpt>
      <trkpt lat="42.66927" lon="1.72786">
        <ele>1840</ele>
        <time>2018-06-09T08:35:22Z</time>
      </trkpt>
      <trkpt lat="42.66932" lon="1.72797">
        <ele>1840</ele>
        <time>2018-06-09T08:35:32Z</time>
      </trkpt>
      <trkpt lat="42.66927" lon="1.72811">
        <ele>1840</ele>
        <time>2018-06-09T08:35:46Z</time>
      </trkpt>
      <trkpt lat="42.66917" lon="1.72818">
        <ele>1840</ele>
        <time>2018-06-09T08:35:58Z</time>
      </trkpt>
      <trkpt lat="42.66913" lon="1.72821">
        <ele>1840</ele>
        <time>2018-06-09T08:36:37Z</time>
      </trkpt>
      <trkpt lat="42.66915" lon="1.72828">
        <ele>1840</ele>
        <time>2018-06-09T08:37:59Z</time>
      </trkpt>
      <trkpt lat="42.66915" lon="1.7282">
        <ele>1840</ele>
        <time>2018-06-09T08:38:13Z</time>
      </trkpt>
      <trkpt lat="42.66908" lon="1.72827">
        <ele>1840</ele>
        <time>2018-06-09T08:38:29Z</time>
      </trkpt>
      <trkpt lat="42.66913" lon="1.72831">
        <ele>1840</ele>
        <time>2018-06-09T08:40:07Z</time>
      </trkpt>
      <trkpt lat="42.66915" lon="1.72822">
        <ele>1840</ele>
        <time>2018-06-09T08:48:51Z</time>
      </trkpt>
      <trkpt lat="42.66912" lon="1.72828">
        <ele>1840</ele>
        <time>2018-06-09T08:50:35Z</time>
      </trkpt>
      <trkpt lat="42.66914" lon="1.72825">
        <ele>1840</ele>
        <time>2018-06-09T08:51:53Z</time>
      </trkpt>
      <trkpt lat="42.66917" lon="1.72822">
        <ele>1839</ele>
        <time>2018-06-09T08:53:29Z</time>
      </trkpt>
      <trkpt lat="42.66926" lon="1.72814">
        <ele>1840</ele>
        <time>2018-06-09T08:53:42Z</time>
      </trkpt>
      <trkpt lat="42.66929" lon="1.72802">
        <ele>1840</ele>
        <time>2018-06-09T08:53:57Z</time>
      </trkpt>
      <trkpt lat="42.66933" lon="1.72788">
        <ele>1840</ele>
        <time>2018-06-09T08:54:06Z</time>
      </trkpt>
      <trkpt lat="42.66933" lon="1.72775">
        <ele>1840</ele>
        <time>2018-06-09T08:54:17Z</time>
      </trkpt>
      <trkpt lat="42.66935" lon="1.72763">
        <ele>1840</ele>
        <time>2018-06-09T08:54:28Z</time>
      </trkpt>
      <trkpt lat="42.6694" lon="1.72749">
        <ele>1838</ele>
        <time>2018-06-09T08:54:41Z</time>
      </trkpt>
      <trkpt lat="42.66945" lon="1.72737">
        <ele>1837</ele>
        <time>2018-06-09T08:54:50Z</time>
      </trkpt>
      <trkpt lat="42.66953" lon="1.72727">
        <ele>1837</ele>
        <time>2018-06-09T08:55:00Z</time>
      </trkpt>
      <trkpt lat="42.66959" lon="1.72714">
        <ele>1836</ele>
        <time>2018-06-09T08:55:10Z</time>
      </trkpt>
      <trkpt lat="42.66965" lon="1.72705">
        <ele>1836</ele>
        <time>2018-06-09T08:55:27Z</time>
      </trkpt>
      <trkpt lat="42.66975" lon="1.72702">
        <ele>1835</ele>
        <time>2018-06-09T08:55:37Z</time>
      </trkpt>
      <trkpt lat="42.66982" lon="1.72694">
        <ele>1834</ele>
        <time>2018-06-09T08:55:47Z</time>
      </trkpt>
      <trkpt lat="42.6699" lon="1.72687">
        <ele>1832</ele>
        <time>2018-06-09T08:55:56Z</time>
      </trkpt>
      <trkpt lat="42.66999" lon="1.72688">
        <ele>1832</ele>
        <time>2018-06-09T08:56:05Z</time>
      </trkpt>
      <trkpt lat="42.67007" lon="1.72683">
        <ele>1829</ele>
        <time>2018-06-09T08:56:17Z</time>
      </trkpt>
      <trkpt lat="42.67016" lon="1.72687">
        <ele>1830</ele>
        <time>2018-06-09T08:56:27Z</time>
      </trkpt>
      <trkpt lat="42.67023" lon="1.72682">
        <ele>1830</ele>
        <time>2018-06-09T08:56:41Z</time>
      </trkpt>
      <trkpt lat="42.67025" lon="1.72669">
        <ele>1829</ele>
        <time>2018-06-09T08:56:55Z</time>
      </trkpt>
      <trkpt lat="42.67031" lon="1.72657">
        <ele>1825</ele>
        <time>2018-06-09T08:57:05Z</time>
      </trkpt>
      <trkpt lat="42.67038" lon="1.72646">
        <ele>1825</ele>
        <time>2018-06-09T08:57:16Z</time>
      </trkpt>
      <trkpt lat="42.67046" lon="1.72637">
        <ele>1825</ele>
        <time>2018-06-09T08:57:25Z</time>
      </trkpt>
      <trkpt lat="42.67053" lon="1.72625">
        <ele>1825</ele>
        <time>2018-06-09T08:57:35Z</time>
      </trkpt>
      <trkpt lat="42.67059" lon="1.72615">
        <ele>1824</ele>
        <time>2018-06-09T08:57:45Z</time>
      </trkpt>
      <trkpt lat="42.67065" lon="1.72607">
        <ele>1823</ele>
        <time>2018-06-09T08:57:55Z</time>
      </trkpt>
      <trkpt lat="42.67068" lon="1.72596">
        <ele>1822</ele>
        <time>2018-06-09T08:58:06Z</time>
      </trkpt>
      <trkpt lat="42.67077" lon="1.72589">
        <ele>1820</ele>
        <time>2018-06-09T08:58:17Z</time>
      </trkpt>
      <trkpt lat="42.67085" lon="1.7258">
        <ele>1817</ele>
        <time>2018-06-09T08:58:26Z</time>
      </trkpt>
      <trkpt lat="42.67094" lon="1.72574">
        <ele>1816</ele>
        <time>2018-06-09T08:58:35Z</time>
      </trkpt>
      <trkpt lat="42.67102" lon="1.72566">
        <ele>1815</ele>
        <time>2018-06-09T08:58:46Z</time>
      </trkpt>
      <trkpt lat="42.67111" lon="1.72557">
        <ele>1814</ele>
        <time>2018-06-09T08:58:59Z</time>
      </trkpt>
      <trkpt lat="42.67116" lon="1.72546">
        <ele>1814</ele>
        <time>2018-06-09T08:59:14Z</time>
      </trkpt>
      <trkpt lat="42.67121" lon="1.72532">
        <ele>1812</ele>
        <time>2018-06-09T08:59:25Z</time>
      </trkpt>
      <trkpt lat="42.67124" lon="1.7252">
        <ele>1812</ele>
        <time>2018-06-09T08:59:38Z</time>
      </trkpt>
      <trkpt lat="42.67129" lon="1.72507">
        <ele>1811</ele>
        <time>2018-06-09T08:59:48Z</time>
      </trkpt>
      <trkpt lat="42.67136" lon="1.72498">
        <ele>1805</ele>
        <time>2018-06-09T09:00:00Z</time>
      </trkpt>
      <trkpt lat="42.67142" lon="1.72485">
        <ele>1805</ele>
        <time>2018-06-09T09:00:11Z</time>
      </trkpt>
      <trkpt lat="42.67148" lon="1.72474">
        <ele>1805</ele>
        <time>2018-06-09T09:00:23Z</time>
      </trkpt>
      <trkpt lat="42.67151" lon="1.72467">
        <ele>1805</ele>
        <time>2018-06-09T09:01:04Z</time>
      </trkpt>
      <trkpt lat="42.67156" lon="1.72454">
        <ele>1804</ele>
        <time>2018-06-09T09:01:16Z</time>
      </trkpt>
      <trkpt lat="42.67162" lon="1.72444">
        <ele>1804</ele>
        <time>2018-06-09T09:01:26Z</time>
      </trkpt>
      <trkpt lat="42.67169" lon="1.72433">
        <ele>1811</ele>
        <time>2018-06-09T09:01:36Z</time>
      </trkpt>
      <trkpt lat="42.67178" lon="1.72428">
        <ele>1812</ele>
        <time>2018-06-09T09:01:47Z</time>
      </trkpt>
      <trkpt lat="42.67183" lon="1.72416">
        <ele>1808</ele>
        <time>2018-06-09T09:01:56Z</time>
      </trkpt>
      <trkpt lat="42.67177" lon="1.72405">
        <ele>1807</ele>
        <time>2018-06-09T09:02:09Z</time>
      </trkpt>
      <trkpt lat="42.67183" lon="1.72396">
        <ele>1808</ele>
        <time>2018-06-09T09:02:21Z</time>
      </trkpt>
      <trkpt lat="42.6718" lon="1.72381">
        <ele>1807</ele>
        <time>2018-06-09T09:02:31Z</time>
      </trkpt>
      <trkpt lat="42.67176" lon="1.72367">
        <ele>1805</ele>
        <time>2018-06-09T09:02:42Z</time>
      </trkpt>
      <trkpt lat="42.67172" lon="1.72352">
        <ele>1801</ele>
        <time>2018-06-09T09:02:53Z</time>
      </trkpt>
      <trkpt lat="42.67167" lon="1.72336">
        <ele>1793</ele>
        <time>2018-06-09T09:03:06Z</time>
      </trkpt>
      <trkpt lat="42.67166" lon="1.72326">
        <ele>1791</ele>
        <time>2018-06-09T09:03:19Z</time>
      </trkpt>
      <trkpt lat="42.6717" lon="1.72312">
        <ele>1793</ele>
        <time>2018-06-09T09:03:39Z</time>
      </trkpt>
      <trkpt lat="42.67172" lon="1.72296">
        <ele>1793</ele>
        <time>2018-06-09T09:03:53Z</time>
      </trkpt>
      <trkpt lat="42.67179" lon="1.72281">
        <ele>1792</ele>
        <time>2018-06-09T09:04:13Z</time>
      </trkpt>
      <trkpt lat="42.67181" lon="1.72263">
        <ele>1789</ele>
        <time>2018-06-09T09:04:32Z</time>
      </trkpt>
      <trkpt lat="42.67184" lon="1.72247">
        <ele>1784</ele>
        <time>2018-06-09T09:04:55Z</time>
      </trkpt>
      <trkpt lat="42.67189" lon="1.72236">
        <ele>1785</ele>
        <time>2018-06-09T09:05:16Z</time>
      </trkpt>
      <trkpt lat="42.67196" lon="1.72226">
        <ele>1785</ele>
        <time>2018-06-09T09:05:56Z</time>
      </trkpt>
      <trkpt lat="42.67192" lon="1.72208">
        <ele>1785</ele>
        <time>2018-06-09T09:06:13Z</time>
      </trkpt>
      <trkpt lat="42.67189" lon="1.72195">
        <ele>1784</ele>
        <time>2018-06-09T09:06:23Z</time>
      </trkpt>
      <trkpt lat="42.67191" lon="1.7218">
        <ele>1784</ele>
        <time>2018-06-09T09:06:36Z</time>
      </trkpt>
      <trkpt lat="42.67195" lon="1.72168">
        <ele>1784</ele>
        <time>2018-06-09T09:06:50Z</time>
      </trkpt>
      <trkpt lat="42.67187" lon="1.72155">
        <ele>1779</ele>
        <time>2018-06-09T09:07:05Z</time>
      </trkpt>
      <trkpt lat="42.67191" lon="1.72144">
        <ele>1778</ele>
        <time>2018-06-09T09:07:19Z</time>
      </trkpt>
      <trkpt lat="42.67194" lon="1.72129">
        <ele>1777</ele>
        <time>2018-06-09T09:07:41Z</time>
      </trkpt>
      <trkpt lat="42.67199" lon="1.72117">
        <ele>1777</ele>
        <time>2018-06-09T09:08:02Z</time>
      </trkpt>
      <trkpt lat="42.67202" lon="1.72102">
        <ele>1776</ele>
        <time>2018-06-09T09:08:14Z</time>
      </trkpt>
      <trkpt lat="42.67212" lon="1.72097">
        <ele>1776</ele>
        <time>2018-06-09T09:08:28Z</time>
      </trkpt>
      <trkpt lat="42.67214" lon="1.72086">
        <ele>1776</ele>
        <time>2018-06-09T09:08:38Z</time>
      </trkpt>
      <trkpt lat="42.67206" lon="1.72074">
        <ele>1769</ele>
        <time>2018-06-09T09:08:48Z</time>
      </trkpt>
      <trkpt lat="42.67205" lon="1.72057">
        <ele>1769</ele>
        <time>2018-06-09T09:09:00Z</time>
      </trkpt>
      <trkpt lat="42.67207" lon="1.72039">
        <ele>1768</ele>
        <time>2018-06-09T09:09:11Z</time>
      </trkpt>
      <trkpt lat="42.67213" lon="1.7203">
        <ele>1767</ele>
        <time>2018-06-09T09:09:23Z</time>
      </trkpt>
      <trkpt lat="42.6722" lon="1.72015">
        <ele>1766</ele>
        <time>2018-06-09T09:09:41Z</time>
      </trkpt>
      <trkpt lat="42.67228" lon="1.72008">
        <ele>1765</ele>
        <time>2018-06-09T09:09:59Z</time>
      </trkpt>
      <trkpt lat="42.67223" lon="1.71992">
        <ele>1761</ele>
        <time>2018-06-09T09:10:14Z</time>
      </trkpt>
      <trkpt lat="42.67229" lon="1.7198">
        <ele>1760</ele>
        <time>2018-06-09T09:10:29Z</time>
      </trkpt>
      <trkpt lat="42.67226" lon="1.7197">
        <ele>1760</ele>
        <time>2018-06-09T09:10:42Z</time>
      </trkpt>
      <trkpt lat="42.6722" lon="1.71955">
        <ele>1759</ele>
        <time>2018-06-09T09:11:00Z</time>
      </trkpt>
      <trkpt lat="42.67218" lon="1.71938">
        <ele>1759</ele>
        <time>2018-06-09T09:11:16Z</time>
      </trkpt>
      <trkpt lat="42.6722" lon="1.71925">
        <ele>1758</ele>
        <time>2018-06-09T09:11:33Z</time>
      </trkpt>
      <trkpt lat="42.67219" lon="1.71912">
        <ele>1757</ele>
        <time>2018-06-09T09:11:45Z</time>
      </trkpt>
      <trkpt lat="42.67228" lon="1.71905">
        <ele>1756</ele>
        <time>2018-06-09T09:11:54Z</time>
      </trkpt>
      <trkpt lat="42.67234" lon="1.71895">
        <ele>1756</ele>
        <time>2018-06-09T09:12:07Z</time>
      </trkpt>
      <trkpt lat="42.67237" lon="1.71881">
        <ele>1757</ele>
        <time>2018-06-09T09:12:18Z</time>
      </trkpt>
      <trkpt lat="42.67241" lon="1.71869">
        <ele>1756</ele>
        <time>2018-06-09T09:12:27Z</time>
      </trkpt>
      <trkpt lat="42.67246" lon="1.71856">
        <ele>1755</ele>
        <time>2018-06-09T09:12:37Z</time>
      </trkpt>
      <trkpt lat="42.67254" lon="1.71846">
        <ele>1759</ele>
        <time>2018-06-09T09:12:46Z</time>
      </trkpt>
      <trkpt lat="42.67264" lon="1.71843">
        <ele>1761</ele>
        <time>2018-06-09T09:13:00Z</time>
      </trkpt>
      <trkpt lat="42.67268" lon="1.71826">
        <ele>1761</ele>
        <time>2018-06-09T09:13:52Z</time>
      </trkpt>
      <trkpt lat="42.67273" lon="1.71815">
        <ele>1764</ele>
        <time>2018-06-09T09:14:03Z</time>
      </trkpt>
      <trkpt lat="42.67275" lon="1.71802">
        <ele>1765</ele>
        <time>2018-06-09T09:14:14Z</time>
      </trkpt>
      <trkpt lat="42.67277" lon="1.71788">
        <ele>1766</ele>
        <time>2018-06-09T09:14:25Z</time>
      </trkpt>
      <trkpt lat="42.67279" lon="1.71773">
        <ele>1766</ele>
        <time>2018-06-09T09:14:36Z</time>
      </trkpt>
      <trkpt lat="42.67284" lon="1.71756">
        <ele>1767</ele>
        <time>2018-06-09T09:14:47Z</time>
      </trkpt>
      <trkpt lat="42.67289" lon="1.71742">
        <ele>1766</ele>
        <time>2018-06-09T09:14:58Z</time>
      </trkpt>
      <trkpt lat="42.67289" lon="1.71725">
        <ele>1765</ele>
        <time>2018-06-09T09:15:14Z</time>
      </trkpt>
      <trkpt lat="42.67284" lon="1.71706">
        <ele>1764</ele>
        <time>2018-06-09T09:15:34Z</time>
      </trkpt>
      <trkpt lat="42.6728" lon="1.71687">
        <ele>1762</ele>
        <time>2018-06-09T09:15:48Z</time>
      </trkpt>
      <trkpt lat="42.67275" lon="1.7167">
        <ele>1759</ele>
        <time>2018-06-09T09:15:59Z</time>
      </trkpt>
      <trkpt lat="42.67274" lon="1.71655">
        <ele>1757</ele>
        <time>2018-06-09T09:16:10Z</time>
      </trkpt>
      <trkpt lat="42.6727" lon="1.71644">
        <ele>1757</ele>
        <time>2018-06-09T09:16:25Z</time>
      </trkpt>
      <trkpt lat="42.67266" lon="1.71631">
        <ele>1757</ele>
        <time>2018-06-09T09:16:52Z</time>
      </trkpt>
      <trkpt lat="42.67262" lon="1.71618">
        <ele>1757</ele>
        <time>2018-06-09T09:17:13Z</time>
      </trkpt>
      <trkpt lat="42.67252" lon="1.71606">
        <ele>1754</ele>
        <time>2018-06-09T09:17:42Z</time>
      </trkpt>
      <trkpt lat="42.67251" lon="1.71588">
        <ele>1748</ele>
        <time>2018-06-09T09:18:01Z</time>
      </trkpt>
      <trkpt lat="42.67252" lon="1.71573">
        <ele>1751</ele>
        <time>2018-06-09T09:18:18Z</time>
      </trkpt>
      <trkpt lat="42.67248" lon="1.7156">
        <ele>1759</ele>
        <time>2018-06-09T09:18:29Z</time>
      </trkpt>
      <trkpt lat="42.67247" lon="1.71544">
        <ele>1761</ele>
        <time>2018-06-09T09:18:44Z</time>
      </trkpt>
      <trkpt lat="42.67254" lon="1.71533">
        <ele>1755</ele>
        <time>2018-06-09T09:18:58Z</time>
      </trkpt>
      <trkpt lat="42.67255" lon="1.71517">
        <ele>1753</ele>
        <time>2018-06-09T09:19:13Z</time>
      </trkpt>
      <trkpt lat="42.67253" lon="1.71496">
        <ele>1749</ele>
        <time>2018-06-09T09:19:49Z</time>
      </trkpt>
      <trkpt lat="42.67263" lon="1.71485">
        <ele>1753</ele>
        <time>2018-06-09T09:20:29Z</time>
      </trkpt>
      <trkpt lat="42.67268" lon="1.71472">
        <ele>1754</ele>
        <time>2018-06-09T09:20:40Z</time>
      </trkpt>
      <trkpt lat="42.67274" lon="1.7146">
        <ele>1755</ele>
        <time>2018-06-09T09:20:52Z</time>
      </trkpt>
      <trkpt lat="42.67281" lon="1.71447">
        <ele>1755</ele>
        <time>2018-06-09T09:21:07Z</time>
      </trkpt>
      <trkpt lat="42.67283" lon="1.7143">
        <ele>1754</ele>
        <time>2018-06-09T09:21:27Z</time>
      </trkpt>
      <trkpt lat="42.67284" lon="1.7141">
        <ele>1749</ele>
        <time>2018-06-09T09:21:44Z</time>
      </trkpt>
      <trkpt lat="42.67285" lon="1.71394">
        <ele>1748</ele>
        <time>2018-06-09T09:22:01Z</time>
      </trkpt>
      <trkpt lat="42.67284" lon="1.71374">
        <ele>1747</ele>
        <time>2018-06-09T09:22:18Z</time>
      </trkpt>
      <trkpt lat="42.67283" lon="1.71358">
        <ele>1746</ele>
        <time>2018-06-09T09:22:43Z</time>
      </trkpt>
      <trkpt lat="42.67276" lon="1.71359">
        <ele>1744</ele>
        <time>2018-06-09T09:23:01Z</time>
      </trkpt>
      <trkpt lat="42.67274" lon="1.7134">
        <ele>1740</ele>
        <time>2018-06-09T09:23:20Z</time>
      </trkpt>
      <trkpt lat="42.67274" lon="1.71321">
        <ele>1731</ele>
        <time>2018-06-09T09:23:40Z</time>
      </trkpt>
      <trkpt lat="42.67275" lon="1.71298">
        <ele>1730</ele>
        <time>2018-06-09T09:24:21Z</time>
      </trkpt>
      <trkpt lat="42.6728" lon="1.71279">
        <ele>1729</ele>
        <time>2018-06-09T09:24:38Z</time>
      </trkpt>
      <trkpt lat="42.67279" lon="1.71254">
        <ele>1724</ele>
        <time>2018-06-09T09:25:05Z</time>
      </trkpt>
      <trkpt lat="42.67283" lon="1.71235">
        <ele>1712</ele>
        <time>2018-06-09T09:25:31Z</time>
      </trkpt>
      <trkpt lat="42.67286" lon="1.71218">
        <ele>1711</ele>
        <time>2018-06-09T09:25:56Z</time>
      </trkpt>
      <trkpt lat="42.67286" lon="1.71199">
        <ele>1708</ele>
        <time>2018-06-09T09:26:31Z</time>
      </trkpt>
      <trkpt lat="42.67286" lon="1.71187">
        <ele>1706</ele>
        <time>2018-06-09T09:27:02Z</time>
      </trkpt>
      <trkpt lat="42.67286" lon="1.71165">
        <ele>1686</ele>
        <time>2018-06-09T09:27:31Z</time>
      </trkpt>
      <trkpt lat="42.67278" lon="1.71164">
        <ele>1684</ele>
        <time>2018-06-09T09:27:59Z</time>
      </trkpt>
      <trkpt lat="42.67279" lon="1.71141">
        <ele>1682</ele>
        <time>2018-06-09T09:28:28Z</time>
      </trkpt>
      <trkpt lat="42.67283" lon="1.7112">
        <ele>1679</ele>
        <time>2018-06-09T09:28:54Z</time>
      </trkpt>
      <trkpt lat="42.67287" lon="1.71105">
        <ele>1677</ele>
        <time>2018-06-09T09:29:23Z</time>
      </trkpt>
      <trkpt lat="42.67294" lon="1.71089">
        <ele>1677</ele>
        <time>2018-06-09T09:29:58Z</time>
      </trkpt>
      <trkpt lat="42.67284" lon="1.7109">
        <ele>1674</ele>
        <time>2018-06-09T09:30:21Z</time>
      </trkpt>
      <trkpt lat="42.67275" lon="1.71096">
        <ele>1671</ele>
        <time>2018-06-09T09:30:50Z</time>
      </trkpt>
      <trkpt lat="42.67265" lon="1.71092">
        <ele>1665</ele>
        <time>2018-06-09T09:31:15Z</time>
      </trkpt>
      <trkpt lat="42.67272" lon="1.71082">
        <ele>1651</ele>
        <time>2018-06-09T09:31:39Z</time>
      </trkpt>
      <trkpt lat="42.67273" lon="1.71062">
        <ele>1649</ele>
        <time>2018-06-09T09:32:21Z</time>
      </trkpt>
      <trkpt lat="42.6727" lon="1.71049">
        <ele>1646</ele>
        <time>2018-06-09T09:32:52Z</time>
      </trkpt>
      <trkpt lat="42.67253" lon="1.71059">
        <ele>1647</ele>
        <time>2018-06-09T09:33:41Z</time>
      </trkpt>
      <trkpt lat="42.67257" lon="1.71038">
        <ele>1642</ele>
        <time>2018-06-09T09:35:30Z</time>
      </trkpt>
      <trkpt lat="42.67255" lon="1.71021">
        <ele>1635</ele>
        <time>2018-06-09T09:36:06Z</time>
      </trkpt>
      <trkpt lat="42.67265" lon="1.7101">
        <ele>1633</ele>
        <time>2018-06-09T09:36:57Z</time>
      </trkpt>
      <trkpt lat="42.67273" lon="1.70992">
        <ele>1613</ele>
        <time>2018-06-09T09:37:38Z</time>
      </trkpt>
      <trkpt lat="42.67288" lon="1.70983">
        <ele>1614</ele>
        <time>2018-06-09T09:38:12Z</time>
      </trkpt>
      <trkpt lat="42.67284" lon="1.70974">
        <ele>1611</ele>
        <time>2018-06-09T09:38:40Z</time>
      </trkpt>
      <trkpt lat="42.67285" lon="1.70968">
        <ele>1610</ele>
        <time>2018-06-09T09:39:03Z</time>
      </trkpt>
      <trkpt lat="42.67293" lon="1.70958">
        <ele>1609</ele>
        <time>2018-06-09T09:39:34Z</time>
      </trkpt>
      <trkpt lat="42.67295" lon="1.70947">
        <ele>1606</ele>
        <time>2018-06-09T09:40:11Z</time>
      </trkpt>
      <trkpt lat="42.67297" lon="1.70937">
        <ele>1604</ele>
        <time>2018-06-09T09:40:41Z</time>
      </trkpt>
      <trkpt lat="42.6731" lon="1.70927">
        <ele>1603</ele>
        <time>2018-06-09T09:41:05Z</time>
      </trkpt>
      <trkpt lat="42.67316" lon="1.7091">
        <ele>1580</ele>
        <time>2018-06-09T09:41:34Z</time>
      </trkpt>
      <trkpt lat="42.67315" lon="1.70901">
        <ele>1576</ele>
        <time>2018-06-09T09:42:11Z</time>
      </trkpt>
      <trkpt lat="42.67309" lon="1.70886">
        <ele>1569</ele>
        <time>2018-06-09T09:42:50Z</time>
      </trkpt>
      <trkpt lat="42.67313" lon="1.70876">
        <ele>1566</ele>
        <time>2018-06-09T09:43:18Z</time>
      </trkpt>
      <trkpt lat="42.67324" lon="1.70861">
        <ele>1560</ele>
        <time>2018-06-09T09:43:44Z</time>
      </trkpt>
      <trkpt lat="42.67311" lon="1.70867">
        <ele>1562</ele>
        <time>2018-06-09T09:44:19Z</time>
      </trkpt>
      <trkpt lat="42.67296" lon="1.70862">
        <ele>1560</ele>
        <time>2018-06-09T09:44:39Z</time>
      </trkpt>
      <trkpt lat="42.67285" lon="1.70862">
        <ele>1559</ele>
        <time>2018-06-09T09:44:50Z</time>
      </trkpt>
      <trkpt lat="42.67276" lon="1.70869">
        <ele>1560</ele>
        <time>2018-06-09T09:45:11Z</time>
      </trkpt>
    </trkseg>
  </trk>
</gpx>